[[{"header":{"parameterUnit":"m.s-1","parameterCategory":1,"la1":30.6,"la2":29.2853,"lo1":-89.7004,"lo2":-87.6739,"dy":0.0162,"dx":0.0183,"nx":112,"ny":82,"refTime":"2023-03-21T06:00:00:Z","depth":0,"parameterNumber":2,"parameterNumberName":"U-component_of_WINDS"},"data":[0.0,0.0,0.0,0.0,0.0,0.0,0.0,0.0,0.0,0.0,0.0,0.0,0.0,0.0,0.0,0.0,0.0,0.0,0.0,0.0,0.0,0.0,0.0,0.0,0.0,0.0,0.0,0.0,0.0,0.0,0.0,0.0,0.0,0.0,0.0,0.0,0.0,0.0,0.0,0.0,0.0,0.0,0.0,0.0,0.0,0.0,0.0,0.0,0.0,0.0,0.0,0.0,0.0,0.0,0.0,0.0,0.0,0.0,0.0,0.0,0.0,0.0,0.0,0.0,0.0,0.0,0.0,0.0,0.0,0.0,0.0,0.0,0.0,0.0,0.0,0.0,0.0,0.0,0.0,0.0,0.0,0.0,0.0,0.0,0.0,0.0,0.0,0.0,0.0,0.0,-4.5561,-4.4233,-4.2265,-4.07,-3.9901,-3.8705,-3.7563,-3.646,0.0,0.0,0.0,0.0,0.0,0.0,0.0,0.0,0.0,0.0,0.0,0.0,0.0,0.0,0.0,0.0,0.0,0.0,0.0,0.0,0.0,0.0,0.0,0.0,0.0,0.0,0.0,0.0,0.0,0.0,0.0,0.0,0.0,0.0,0.0,0.0,0.0,0.0,0.0,0.0,0.0,0.0,0.0,0.0,0.0,0.0,0.0,0.0,0.0,0.0,0.0,0.0,0.0,0.0,0.0,0.0,0.0,0.0,0.0,0.0,0.0,0.0,0.0,0.0,0.0,0.0,0.0,0.0,0.0,0.0,0.0,0.0,0.0,0.0,0.0,0.0,0.0,0.0,0.0,0.0,0.0,0.0,0.0,0.0,0.0,0.0,0.0,0.0,0.0,0.0,0.0,0.0,0.0,0.0,0.0,0.0,0.0,0.0,0.0,0.0,0.0,0.0,0.0,0.0,-4.4634,-4.543,-4.4538,-4.3158,-4.1425,-4.0071,-3.8473,-3.6521,0.0,0.0,0.0,0.0,0.0,0.0,0.0,0.0,0.0,0.0,0.0,0.0,0.0,0.0,0.0,0.0,0.0,0.0,0.0,0.0,0.0,0.0,0.0,0.0,0.0,0.0,0.0,0.0,0.0,0.0,0.0,0.0,0.0,0.0,0.0,0.0,0.0,0.0,0.0,0.0,0.0,0.0,0.0,0.0,0.0,0.0,0.0,0.0,0.0,0.0,0.0,0.0,0.0,0.0,0.0,0.0,0.0,0.0,0.0,0.0,0.0,0.0,0.0,0.0,0.0,0.0,0.0,0.0,0.0,0.0,0.0,0.0,0.0,0.0,0.0,0.0,0.0,0.0,0.0,0.0,0.0,0.0,0.0,0.0,0.0,0.0,0.0,0.0,0.0,0.0,0.0,0.0,0.0,0.0,0.0,0.0,0.0,0.0,0.0,0.0,0.0,0.0,0.0,-4.807,-4.7596,-4.9123,-4.8249,-4.661,-4.4318,-4.2467,-4.0333,-3.7854,-3.6743,0.0,0.0,0.0,0.0,0.0,0.0,0.0,0.0,0.0,0.0,0.0,0.0,0.0,0.0,0.0,0.0,0.0,0.0,0.0,0.0,0.0,0.0,0.0,0.0,0.0,0.0,0.0,0.0,0.0,0.0,0.0,0.0,0.0,0.0,0.0,0.0,0.0,0.0,0.0,0.0,0.0,0.0,0.0,0.0,0.0,0.0,0.0,0.0,0.0,0.0,0.0,0.0,0.0,0.0,0.0,0.0,0.0,0.0,0.0,0.0,0.0,0.0,0.0,0.0,0.0,0.0,0.0,0.0,0.0,0.0,0.0,0.0,0.0,0.0,0.0,0.0,0.0,0.0,0.0,0.0,0.0,0.0,0.0,0.0,0.0,0.0,0.0,0.0,0.0,0.0,0.0,0.0,0.0,0.0,0.0,0.0,0.0,0.0,0.0,0.0,0.0,0.0,-5.0897,-5.1045,-5.2436,-5.1592,-4.9875,-4.7356,-4.49,-4.232,-3.9556,-3.7613,0.0,0.0,0.0,0.0,0.0,0.0,0.0,0.0,0.0,0.0,0.0,0.0,0.0,0.0,0.0,0.0,0.0,0.0,0.0,0.0,0.0,0.0,0.0,0.0,0.0,0.0,0.0,0.0,0.0,0.0,0.0,0.0,0.0,0.0,0.0,0.0,0.0,0.0,0.0,0.0,0.0,0.0,0.0,0.0,0.0,0.0,0.0,0.0,0.0,0.0,0.0,0.0,0.0,0.0,0.0,0.0,0.0,0.0,0.0,0.0,0.0,0.0,0.0,0.0,0.0,0.0,0.0,0.0,0.0,0.0,0.0,0.0,0.0,0.0,0.0,0.0,0.0,0.0,0.0,0.0,0.0,0.0,0.0,0.0,0.0,0.0,0.0,0.0,0.0,0.0,0.0,0.0,0.0,0.0,0.0,0.0,0.0,0.0,0.0,0.0,0.0,0.0,-5.1324,-5.3299,-5.3654,-5.3434,-5.2289,-4.9848,-4.6941,-4.4044,-4.1294,-3.8164,0.0,0.0,0.0,0.0,0.0,0.0,0.0,0.0,0.0,0.0,0.0,0.0,0.0,0.0,0.0,0.0,0.0,0.0,0.0,0.0,0.0,0.0,0.0,0.0,0.0,0.0,0.0,0.0,0.0,0.0,0.0,0.0,0.0,0.0,0.0,0.0,0.0,0.0,0.0,0.0,0.0,0.0,0.0,0.0,0.0,0.0,0.0,0.0,0.0,0.0,0.0,0.0,0.0,0.0,0.0,0.0,0.0,0.0,0.0,0.0,0.0,0.0,0.0,0.0,0.0,0.0,0.0,0.0,0.0,0.0,0.0,0.0,0.0,0.0,0.0,0.0,0.0,0.0,0.0,0.0,0.0,0.0,0.0,0.0,0.0,0.0,0.0,0.0,0.0,0.0,0.0,0.0,0.0,0.0,0.0,0.0,0.0,0.0,0.0,0.0,0.0,0.0,-5.054,-5.2943,0.0,-5.5419,-5.4971,-5.3419,-5.0311,-4.6933,-4.3382,0.0,0.0,0.0,0.0,0.0,0.0,0.0,0.0,0.0,0.0,0.0,0.0,0.0,0.0,0.0,0.0,0.0,0.0,0.0,0.0,0.0,0.0,0.0,0.0,0.0,0.0,0.0,0.0,0.0,0.0,0.0,0.0,0.0,0.0,0.0,0.0,0.0,0.0,0.0,0.0,0.0,0.0,0.0,0.0,0.0,0.0,0.0,0.0,0.0,0.0,0.0,0.0,0.0,0.0,0.0,0.0,0.0,0.0,0.0,0.0,0.0,0.0,0.0,0.0,0.0,0.0,0.0,0.0,0.0,0.0,0.0,0.0,0.0,0.0,0.0,0.0,0.0,0.0,0.0,0.0,0.0,0.0,0.0,0.0,0.0,0.0,0.0,0.0,0.0,0.0,0.0,0.0,0.0,0.0,0.0,0.0,0.0,0.0,0.0,0.0,0.0,0.0,-4.721,-4.9981,-5.2689,0.0,-5.6322,-5.6521,-5.6083,-5.2715,-4.9074,-4.5535,0.0,0.0,0.0,0.0,0.0,0.0,0.0,0.0,0.0,0.0,0.0,0.0,0.0,0.0,0.0,0.0,0.0,0.0,0.0,0.0,0.0,0.0,0.0,0.0,0.0,0.0,0.0,0.0,0.0,0.0,0.0,0.0,0.0,0.0,0.0,0.0,0.0,0.0,0.0,0.0,0.0,0.0,0.0,0.0,0.0,0.0,0.0,0.0,0.0,0.0,0.0,0.0,0.0,0.0,0.0,0.0,0.0,0.0,0.0,0.0,0.0,0.0,0.0,0.0,0.0,0.0,0.0,0.0,0.0,0.0,0.0,0.0,0.0,0.0,0.0,0.0,0.0,0.0,0.0,0.0,0.0,0.0,0.0,0.0,0.0,0.0,0.0,0.0,0.0,0.0,0.0,0.0,0.0,0.0,0.0,0.0,0.0,0.0,0.0,0.0,0.0,0.0,-4.656,-4.9847,-5.2786,-5.514,-5.6,-5.6714,-5.7557,-5.3777,-5.0257,0.0,0.0,0.0,0.0,0.0,0.0,0.0,0.0,0.0,0.0,0.0,0.0,0.0,0.0,0.0,0.0,0.0,0.0,0.0,0.0,0.0,0.0,0.0,0.0,0.0,0.0,0.0,0.0,0.0,0.0,0.0,0.0,0.0,0.0,0.0,0.0,0.0,0.0,0.0,0.0,0.0,0.0,0.0,0.0,0.0,0.0,0.0,0.0,0.0,0.0,0.0,0.0,0.0,0.0,0.0,0.0,0.0,0.0,0.0,0.0,0.0,0.0,0.0,0.0,0.0,0.0,0.0,0.0,0.0,0.0,0.0,0.0,0.0,0.0,0.0,0.0,0.0,0.0,0.0,0.0,0.0,0.0,0.0,0.0,0.0,0.0,0.0,0.0,0.0,0.0,0.0,0.0,0.0,0.0,0.0,0.0,0.0,0.0,0.0,0.0,0.0,0.0,0.0,-4.4698,-4.8778,-5.2085,-5.3804,-5.5549,-5.6948,-5.7859,-5.5547,-5.2688,-4.9547,0.0,0.0,0.0,0.0,0.0,0.0,0.0,0.0,0.0,0.0,0.0,0.0,0.0,0.0,0.0,0.0,0.0,0.0,0.0,0.0,0.0,0.0,0.0,0.0,0.0,0.0,0.0,0.0,0.0,0.0,0.0,0.0,0.0,0.0,0.0,0.0,0.0,0.0,0.0,0.0,0.0,0.0,0.0,0.0,0.0,0.0,0.0,0.0,0.0,0.0,0.0,0.0,0.0,0.0,0.0,0.0,0.0,0.0,0.0,0.0,0.0,0.0,0.0,0.0,0.0,0.0,0.0,0.0,0.0,0.0,0.0,0.0,0.0,0.0,0.0,0.0,0.0,0.0,0.0,0.0,0.0,0.0,0.0,0.0,0.0,0.0,0.0,0.0,0.0,0.0,0.0,0.0,0.0,0.0,0.0,0.0,0.0,0.0,0.0,0.0,0.0,0.0,-4.3412,-4.7548,-5.0829,-5.2138,-5.3949,-5.5739,-5.7273,-5.5705,-5.3444,-5.0558,0.0,0.0,0.0,0.0,0.0,0.0,0.0,0.0,0.0,0.0,0.0,0.0,0.0,0.0,0.0,0.0,0.0,0.0,0.0,0.0,0.0,0.0,0.0,0.0,0.0,0.0,0.0,0.0,0.0,0.0,0.0,0.0,0.0,0.0,0.0,0.0,0.0,0.0,0.0,0.0,0.0,0.0,0.0,0.0,0.0,0.0,0.0,0.0,0.0,0.0,0.0,0.0,0.0,0.0,0.0,0.0,0.0,0.0,0.0,0.0,0.0,0.0,0.0,0.0,0.0,0.0,0.0,0.0,0.0,0.0,0.0,0.0,0.0,0.0,0.0,0.0,0.0,0.0,0.0,0.0,0.0,0.0,0.0,0.0,0.0,0.0,0.0,0.0,0.0,0.0,0.0,0.0,0.0,0.0,0.0,0.0,0.0,0.0,0.0,0.0,0.0,0.0,-4.2506,-4.6286,-4.917,-5.0152,-5.1661,-5.3516,-5.5798,-5.4634,-5.296,-5.1011,0.0,0.0,0.0,0.0,0.0,0.0,0.0,0.0,0.0,0.0,0.0,0.0,0.0,0.0,0.0,0.0,0.0,0.0,0.0,0.0,0.0,0.0,0.0,0.0,0.0,0.0,0.0,0.0,0.0,0.0,0.0,0.0,0.0,0.0,0.0,0.0,0.0,0.0,0.0,0.0,0.0,0.0,0.0,0.0,0.0,0.0,0.0,0.0,0.0,0.0,0.0,0.0,0.0,0.0,0.0,0.0,0.0,0.0,0.0,0.0,-3.8842,0.0,0.0,0.0,0.0,0.0,0.0,0.0,0.0,0.0,0.0,0.0,0.0,0.0,0.0,0.0,0.0,0.0,0.0,0.0,0.0,0.0,0.0,0.0,0.0,0.0,0.0,0.0,0.0,0.0,0.0,0.0,0.0,0.0,0.0,0.0,0.0,0.0,0.0,0.0,0.0,0.0,-4.1338,-4.4962,-4.7589,-4.8095,-5.0097,-5.1976,-5.3334,-5.335,-5.2757,-5.1581,-4.9655,0.0,0.0,0.0,0.0,0.0,0.0,0.0,0.0,0.0,0.0,0.0,0.0,0.0,0.0,0.0,0.0,0.0,0.0,0.0,0.0,0.0,0.0,0.0,0.0,0.0,0.0,0.0,0.0,0.0,0.0,0.0,0.0,0.0,0.0,0.0,0.0,0.0,0.0,0.0,0.0,0.0,0.0,0.0,0.0,0.0,0.0,0.0,0.0,0.0,0.0,0.0,0.0,0.0,0.0,0.0,0.0,0.0,0.0,0.0,0.0,-3.8211,0.0,0.0,0.0,0.0,0.0,0.0,0.0,0.0,0.0,0.0,0.0,0.0,0.0,0.0,0.0,0.0,0.0,0.0,0.0,0.0,0.0,0.0,0.0,0.0,0.0,0.0,0.0,0.0,0.0,0.0,0.0,0.0,0.0,0.0,0.0,0.0,0.0,0.0,0.0,0.0,-4.0989,-4.3977,-4.6093,-4.62,-4.7974,-4.9531,-5.038,-5.1254,-5.1516,-5.0807,-4.9708,0.0,0.0,0.0,0.0,0.0,0.0,0.0,0.0,0.0,0.0,0.0,0.0,0.0,0.0,0.0,0.0,0.0,0.0,0.0,0.0,0.0,0.0,0.0,0.0,0.0,0.0,0.0,0.0,0.0,0.0,0.0,0.0,0.0,0.0,0.0,0.0,0.0,0.0,0.0,0.0,0.0,0.0,0.0,0.0,0.0,0.0,0.0,0.0,0.0,0.0,0.0,0.0,0.0,-2.8442,-2.8948,-2.9887,-2.9337,-2.9679,-3.0863,-3.4286,-3.577,-3.5892,-3.6765,0.0,0.0,0.0,0.0,0.0,0.0,0.0,0.0,0.0,0.0,0.0,0.0,0.0,0.0,0.0,0.0,0.0,0.0,0.0,0.0,0.0,0.0,0.0,0.0,-3.9172,-3.9787,0.0,0.0,0.0,0.0,0.0,0.0,0.0,0.0,0.0,0.0,0.0,0.0,-4.0985,-4.3323,-4.4861,-4.4591,-4.589,-4.6948,-4.7401,-4.882,-4.9584,-4.9427,-4.9145,-4.8343,0.0,0.0,0.0,0.0,0.0,0.0,0.0,0.0,0.0,0.0,0.0,0.0,0.0,0.0,0.0,0.0,0.0,0.0,0.0,0.0,0.0,0.0,0.0,0.0,0.0,0.0,0.0,0.0,0.0,0.0,0.0,0.0,-3.8561,-3.8127,0.0,0.0,0.0,0.0,0.0,0.0,0.0,0.0,0.0,0.0,0.0,0.0,0.0,-2.6343,-2.6108,-2.5767,-2.5977,-2.6758,-2.621,-2.6705,-2.8036,-2.7642,-2.7757,-2.8364,-2.8842,0.0,-3.1656,-3.2408,0.0,0.0,0.0,0.0,0.0,0.0,0.0,0.0,0.0,0.0,0.0,0.0,0.0,0.0,0.0,0.0,0.0,0.0,0.0,0.0,0.0,0.0,-3.8635,-3.9353,-3.9534,-3.9599,0.0,-3.981,-3.9764,-3.9533,-3.9314,0.0,0.0,0.0,0.0,0.0,0.0,0.0,-4.0999,-4.3132,-4.4436,-4.3706,-4.4566,-4.5174,-4.5348,-4.6253,-4.7112,-4.7761,-4.8271,-4.815,-4.7079,-4.6334,0.0,0.0,0.0,0.0,0.0,0.0,0.0,0.0,0.0,0.0,0.0,0.0,0.0,0.0,0.0,0.0,0.0,0.0,0.0,0.0,0.0,0.0,0.0,0.0,0.0,0.0,0.0,0.0,0.0,-3.5628,-3.5769,-3.4469,-3.3969,-3.3056,0.0,0.0,0.0,0.0,0.0,0.0,0.0,0.0,0.0,-2.6015,-2.5703,-2.5331,-2.4912,-2.4755,-2.4879,-2.5216,-2.4527,-2.4615,-2.5371,-2.4776,-2.4633,-2.4876,-2.4659,-2.516,-2.6274,-2.8099,-2.8518,-2.7966,0.0,0.0,0.0,0.0,-2.7084,-2.9204,-2.9136,-3.1438,0.0,-3.4567,0.0,0.0,0.0,0.0,0.0,0.0,0.0,0.0,0.0,0.0,-3.8334,-3.8932,-3.9214,-3.9392,-3.9475,-3.9626,-3.975,0.0,-3.979,-3.9692,-3.8838,0.0,0.0,0.0,0.0,-4.1533,-4.1888,-4.3568,-4.429,-4.3217,-4.4117,-4.4487,-4.3636,-4.4589,-4.5381,-4.5707,-4.6305,-4.6724,-4.6676,-4.5779,-4.4403,0.0,0.0,0.0,0.0,0.0,0.0,0.0,0.0,0.0,0.0,0.0,0.0,0.0,0.0,0.0,0.0,0.0,0.0,0.0,0.0,0.0,0.0,0.0,0.0,0.0,0.0,0.0,0.0,-3.3165,-3.2928,-3.1318,-3.1263,-3.0649,0.0,0.0,0.0,0.0,0.0,0.0,-2.5266,-2.4907,-2.4668,-2.4587,-2.4459,-2.4223,-2.3815,-2.3848,-2.3778,-2.3708,-2.3017,-2.2775,-2.2928,-2.2215,-2.1895,-2.1878,-2.1591,-2.1523,-2.1828,-2.4125,-2.5071,-2.4945,-2.357,-2.3096,-2.3033,-2.197,-2.3845,-2.6781,-2.6539,-2.9595,-3.3617,-3.3798,0.0,-3.5934,-3.5677,0.0,0.0,0.0,0.0,-3.8037,-3.8757,-3.8564,-3.8164,-3.8496,-3.8812,-3.903,-3.903,-3.9301,-3.9586,0.0,-3.9996,-4.0093,-3.9279,0.0,0.0,0.0,0.0,-4.2233,-4.2925,-4.4041,-4.4366,-4.3287,-4.3928,-4.3848,-4.2472,-4.3057,-4.3608,-4.3629,-4.4099,-4.4642,-4.526,-4.4736,-4.3835,-4.2419,0.0,0.0,0.0,0.0,0.0,0.0,0.0,0.0,0.0,0.0,0.0,0.0,0.0,0.0,0.0,0.0,0.0,0.0,0.0,0.0,0.0,0.0,0.0,0.0,0.0,0.0,0.0,0.0,0.0,-3.0162,-2.9693,0.0,0.0,0.0,0.0,-2.4137,-2.3791,-2.3681,-2.3678,-2.3184,-2.298,-2.3087,-2.2805,-2.2636,-2.258,-2.2353,-2.2183,-2.2175,-2.1519,-2.1179,-2.1207,-2.055,-2.0225,-2.0241,-1.9931,-1.9657,-1.9472,-2.0899,-2.1172,-2.0699,-2.0322,-1.9876,-1.9546,-2.0297,-2.2173,-2.4595,-2.6345,-2.9333,-3.2745,-3.487,-3.6489,-3.7551,-3.733,-3.7496,0.0,0.0,-3.884,-3.8999,-3.9141,-3.8899,-3.8555,-3.8574,-3.8647,-3.8647,-3.8647,-3.8938,-3.9306,0.0,-3.973,-3.9719,-3.9344,0.0,-4.0181,-4.0553,-4.1576,-4.2661,-4.378,-4.4309,-4.4482,-4.424,-4.3722,-4.3035,-4.21,-4.1507,-4.1374,-4.1851,-4.1888,-4.2097,-4.2447,-4.3057,-4.2545,-4.0844,-3.9755,0.0,0.0,0.0,0.0,0.0,0.0,0.0,0.0,0.0,0.0,0.0,0.0,0.0,0.0,0.0,0.0,0.0,0.0,0.0,0.0,0.0,0.0,0.0,0.0,0.0,0.0,0.0,0.0,-2.786,-2.7714,0.0,-2.5235,-2.4765,-2.4336,-2.3566,-2.3529,-2.3472,-2.3303,-2.3076,-2.2741,-2.2175,-2.2233,-2.2012,-2.1345,-2.146,-2.1282,-2.0844,-2.0479,-2.0047,-1.9619,-1.9194,-1.8893,-1.8736,-1.8475,-1.8088,-1.7637,-1.774,-1.8086,-1.8519,-1.7927,-1.7654,-1.7733,-1.8138,-1.9992,-2.2586,-2.4882,-2.8205,-3.209,-3.5589,-3.7191,-3.7863,-3.8175,-3.8409,-3.8712,-3.9488,-3.9404,-3.9194,-3.9478,-3.9083,-3.8574,-3.8574,-3.8793,-3.8958,-3.8647,-3.8958,-3.9063,-3.8668,-3.9209,-3.9532,-3.9046,-3.9618,-4.0201,-4.0362,-4.1213,-4.2098,-4.3006,-4.3742,-4.4028,-4.3502,-4.346,-4.2973,-4.1771,-4.1084,-4.0571,-4.0276,-4.0232,-4.0258,-4.0316,-4.0545,-4.035,-3.9577,-3.8315,-3.6911,0.0,0.0,0.0,0.0,0.0,0.0,0.0,0.0,0.0,0.0,0.0,0.0,0.0,0.0,0.0,0.0,0.0,0.0,0.0,0.0,0.0,0.0,0.0,0.0,0.0,0.0,-2.6877,-2.6172,-2.6163,-2.5693,-2.4265,-2.3998,-2.3605,-2.2986,-2.289,-2.2852,-2.2662,-2.2498,-2.2133,-2.138,-2.1496,-2.1162,-2.0385,-2.0429,-2.0216,-1.9738,-1.9486,-1.896,-1.8212,-1.814,-1.7845,-1.7437,-1.7213,-1.6912,-1.6459,-1.5768,-1.5935,-1.6581,-1.6137,-1.6061,-1.6286,-1.6733,-1.8521,-2.1288,-2.4944,-2.8725,-3.2458,-3.5808,-3.7511,-3.8274,-3.8796,-3.9075,-3.9433,-4.0191,-4.0136,-3.983,-4.0101,-3.9592,-3.9009,-3.9155,-3.9202,-3.9176,-3.9011,-3.9037,-3.8997,-3.8336,-3.872,-3.893,-3.8417,-3.892,-3.9423,-3.9647,-4.0193,-4.0964,-4.2092,-4.2722,-4.2995,-4.2746,-4.2884,-4.2479,-4.1397,-4.0464,-3.9618,-3.88,-3.8279,-3.7852,-3.7587,-3.7695,-3.7593,-3.7288,-3.6003,-3.4575,-3.2942,0.0,0.0,0.0,0.0,0.0,0.0,0.0,0.0,0.0,0.0,0.0,0.0,0.0,0.0,0.0,0.0,0.0,0.0,0.0,0.0,0.0,0.0,0.0,-2.6151,-2.5973,-2.5632,-2.5258,-2.5125,-2.4645,-2.3499,-2.323,-2.2885,-2.2273,-2.1906,-2.1715,-2.1701,-2.1393,-2.1046,-2.0716,-2.0443,-2.0155,-1.9809,-1.9229,-1.8924,-1.8875,-1.8568,-1.7932,-1.7089,-1.745,-1.7107,-1.6311,-1.6287,-1.611,-1.5813,-1.5008,-1.469,-1.4714,-1.498,-1.5077,-1.5206,-1.6101,-1.7927,-2.0827,-2.6764,-3.0842,-3.3747,-3.5621,-3.735,-3.8768,-3.9186,-3.9647,-4.0165,-4.0734,-4.0977,-4.0983,-4.1004,-4.0398,-3.9864,-4.0305,-3.9765,-3.9321,-3.9642,-3.9372,-3.8977,-3.8694,-3.8263,-3.7824,-3.7476,-3.7696,-3.8117,-3.8409,-3.8687,0.0,-4.1092,-4.1179,-4.1391,-4.2127,-4.1943,-4.1507,-4.0844,-3.9465,-3.8274,-3.7488,-3.6037,-3.4949,-3.4247,-3.4471,-3.4428,-3.4062,-3.285,-3.1494,-2.989,0.0,0.0,0.0,0.0,0.0,0.0,0.0,0.0,0.0,0.0,0.0,0.0,0.0,0.0,0.0,0.0,0.0,0.0,0.0,0.0,0.0,0.0,-2.3209,-2.4467,-2.4773,-2.4903,-2.5125,-2.4928,-2.4501,-2.3962,-2.361,-2.3212,-2.252,-2.2418,-2.2169,-2.1715,-2.1613,-2.1322,-2.073,-2.0443,-2.0155,-1.9809,-1.9229,-1.8784,-1.8532,-1.8268,-1.7648,-1.6839,-1.718,-1.6855,-1.6033,-1.6039,-1.5752,-1.5287,-1.4847,-1.4485,-1.4159,-1.4413,-1.4835,-1.5347,-1.6295,-1.8893,-2.2505,-2.6107,-2.9512,-3.2624,-3.5095,-3.7354,-3.9226,-4.0141,-4.0935,-4.1627,-4.1545,-4.1425,-4.1295,-4.141,-4.0593,-3.983,-4.0298,-3.9963,-3.957,-3.9714,-3.9586,-3.9253,-3.866,-3.7923,-3.7402,-3.7381,-3.7476,-3.7623,-3.7696,-3.7801,0.0,-3.8787,-3.9049,-3.9403,-3.9786,-4.0046,-3.9903,-3.9327,-3.8156,-3.7038,-3.6064,-3.479,-3.3852,-3.3145,-3.2949,-3.2722,-3.252,-3.0954,-2.9946,0.0,0.0,0.0,0.0,0.0,0.0,0.0,0.0,0.0,0.0,0.0,0.0,0.0,0.0,0.0,0.0,0.0,0.0,0.0,0.0,0.0,0.0,-2.2759,-2.2422,-2.3284,-2.3948,-2.4438,-2.4641,-2.461,-2.4425,-2.3917,-2.3715,-2.3346,-2.2652,-2.2623,-2.2403,-2.192,-2.1774,-2.1365,-2.0558,-2.0385,-2.0097,-1.9649,-1.8997,-1.859,-1.8415,-1.7968,-1.7297,-1.6334,-1.6788,-1.6408,0.0,-1.5503,-1.5338,-1.492,-1.4533,-1.4243,0.0,0.0,0.0,0.0,0.0,-1.9486,-2.2551,-2.5196,-2.8107,-3.1086,-3.3911,-3.6637,-3.8991,-4.0195,-4.1474,-4.246,-4.2065,-4.2064,-4.2208,-4.2095,-4.114,-4.0407,-4.1,-4.0396,-3.9786,-4.0146,-3.987,-3.9412,-3.905,-3.8127,0.0,-3.7336,-3.7096,-3.692,-3.6941,-3.6719,-3.6775,-3.7144,-3.7217,-3.747,-3.8,-3.8053,-3.8058,-3.7817,-3.6769,0.0,0.0,0.0,-3.2119,-3.0838,-3.072,0.0,0.0,0.0,-2.8892,0.0,0.0,0.0,0.0,-2.6127,-2.5907,0.0,0.0,0.0,0.0,0.0,0.0,0.0,0.0,0.0,0.0,0.0,0.0,0.0,0.0,0.0,0.0,-2.3039,-2.2321,-2.2538,-2.3436,-2.4053,-2.4115,-2.4425,-2.4363,-2.3749,-2.3686,-2.3407,-2.2713,-2.2684,-2.2537,-2.214,0.0,0.0,0.0,0.0,-2.004,-1.9533,-1.8836,-1.8415,-1.8415,-1.7855,-1.6962,-1.5817,-1.6451,-1.5952,-1.4601,-1.4966,-1.4956,-1.4678,-1.4135,-1.4056,-1.4272,-1.4364,-1.476,-1.5553,-1.7928,-1.9832,-2.1649,-2.4193,0.0,0.0,-3.235,-3.5475,-3.8371,-3.981,-4.1546,-4.2883,-4.2636,-4.294,-4.3243,-4.3013,-4.1981,-4.1243,-4.2062,-4.0995,-4.0002,-4.074,-4.022,-3.9584,-3.9564,-3.8584,-3.7637,-3.7269,-3.6689,-3.6236,-3.6091,-3.5774,-3.5662,-3.5923,-3.5662,-3.5754,-3.6405,0.0,0.0,-3.6223,-3.5149,-3.3996,-3.2902,-3.1794,-3.0241,-2.816,-2.8429,-2.819,-2.7447,-2.8092,-2.7934,-2.7023,-2.6653,-2.6121,-2.548,-2.5676,-2.5617,0.0,0.0,0.0,0.0,0.0,0.0,0.0,0.0,0.0,0.0,0.0,0.0,0.0,0.0,0.0,-2.3784,-2.3226,-2.2829,-2.263,-2.3247,-2.379,-2.4038,-2.4425,-2.4517,-2.4394,-2.4131,-2.3716,-2.3079,-2.2989,-2.2615,-2.1818,-2.173,-2.1482,-2.1046,-2.0572,-2.0213,-2.0097,-1.9229,-1.8648,-1.8415,0.0,0.0,-1.5817,-1.6451,-1.5952,-1.4601,-1.4966,-1.4956,-1.4678,-1.4325,-1.4371,-1.4744,-1.5444,-1.644,-1.7667,-1.8967,-2.0159,-2.1449,-2.3563,-2.5585,-2.7777,-3.1164,-3.4558,-3.7742,-3.9913,-4.1886,0.0,-4.3802,-4.3759,-4.3613,-4.3649,-4.2486,-4.1489,-4.2042,-4.1131,-4.031,-4.0811,-4.0468,-3.9943,-3.9584,-3.8815,-3.7968,-3.7243,-3.6836,-3.6249,-3.5338,-3.519,-3.49,-3.4377,-3.4531,-3.4574,-3.4406,-3.4649,-3.4571,-3.3927,-3.3091,-3.228,-3.1478,-3.0354,-2.919,-2.8146,-2.7906,-2.7594,-2.718,-2.6671,-2.6379,-2.628,-2.5928,-2.5707,-2.5592,-2.5317,-2.5054,0.0,0.0,0.0,0.0,0.0,0.0,0.0,0.0,0.0,0.0,0.0,-2.6878,0.0,0.0,-2.6121,-2.6039,-2.4921,-2.3998,-2.3799,-2.4001,-2.4038,-2.3852,-2.4425,-2.4733,-2.4361,-2.4378,-2.4086,-2.3384,-2.3171,-2.2841,-2.2246,-2.1891,-2.1482,-2.0974,-2.05,-2.0213,-2.004,-1.9287,-1.8706,-1.8415,-1.8125,-1.7297,-1.6053,-1.6505,-1.5931,-1.4676,-1.4957,-1.4849,-1.4459,-1.4506,-1.4757,-1.5205,-1.6426,-1.7383,-1.8196,-1.9284,-2.052,-2.1802,-2.3172,-2.4881,-2.6927,-2.9821,-3.3158,-3.6556,-3.9289,-4.1915,-4.4055,-4.4437,-4.47,-4.4638,-4.3991,-4.2926,-4.1983,-4.2111,-4.1162,-4.0382,-4.0811,-4.0389,-3.9795,-3.955,-3.8959,-3.8228,-3.7257,-3.6855,-3.6295,-3.5205,-3.4702,-3.4218,-3.3643,-3.3592,-3.3471,-3.3228,-3.3225,-3.3106,-3.2667,-3.1642,-3.0696,-2.9979,-2.8991,-2.8224,-2.7593,-2.7631,-2.7289,-2.6535,-2.6555,-2.6249,-2.581,-2.5973,-2.5953,-2.5846,-2.5869,-2.5722,0.0,0.0,0.0,0.0,0.0,0.0,0.0,0.0,-2.666,-2.766,-2.8405,-2.9096,-2.9989,-2.9411,-2.8915,-2.9146,-2.7552,-2.6215,-2.584,-2.5475,-2.5008,-2.4332,-2.4795,-2.4869,-2.4342,-2.4561,-2.4409,-2.3748,-2.3475,-2.3067,-2.2617,-2.2068,-2.1482,-2.0845,-2.05,-2.0155,-1.9924,-1.9287,-1.8797,-1.8384,-1.8212,-1.7495,-1.6319,-1.6588,-1.5962,-1.4683,-1.4843,-1.4667,-1.4293,-1.4665,-1.5092,-1.5595,-1.7172,-1.7952,-1.8272,-1.9678,-2.0947,-2.2115,-2.3014,-2.4459,-2.6251,-2.8548,-3.1729,-3.5319,-3.8416,-4.1574,-4.4217,-4.492,-4.5399,-4.5481,-4.4356,-4.3407,-4.2575,-4.2166,-4.1233,-4.0596,-4.0882,-4.0309,-3.9686,-3.9502,-3.9158,-3.8473,-3.7314,-3.6768,-3.6066,-3.4929,-3.427,-3.3705,-3.3117,-3.2848,-3.2675,-3.26,-3.2234,-3.1959,-3.1875,-3.063,-2.9556,-2.8915,-2.8212,-2.7625,-2.7192,-2.7382,-2.7014,-2.607,-2.6517,-2.6398,-2.5604,-2.6201,-2.6439,-2.6397,-2.6725,-2.6661,-2.9807,-2.6296,-2.3423,-2.2512,-2.2969,-2.382,0.0,0.0,-2.7263,-2.9151,-3.0346,-3.1356,-3.1967,-3.2758,-3.2884,-3.1684,-3.1274,-3.0547,-2.8938,-2.7966,-2.7246,-2.6668,-2.57,-2.5087,-2.4994,-2.5026,-2.4777,-2.4112,-2.4036,-2.3457,-2.2317,-2.2184,-2.183,-2.1161,-2.063,-2.027,-2.0213,-1.9649,-1.9052,-1.8376,-1.8414,-1.7682,-1.632,-1.6555,-1.5962,-1.471,-1.4401,-1.4356,-1.4514,-1.4892,-1.5217,-1.5685,-1.7517,-1.8348,-1.8769,-2.084,-2.1565,-2.1804,-2.3306,-2.4413,-2.5564,-2.7678,-3.0795,-3.4423,-3.7859,-4.0761,-4.339,-4.5637,-4.5741,-4.5059,-4.4972,-4.4005,-4.2844,-4.2037,-4.1622,-4.1259,-4.0954,-4.0555,-4.0054,-3.9564,-3.9219,-3.8567,-3.7287,-3.6511,-3.5596,-3.4135,-3.3929,-3.3526,-3.2374,-3.2531,-3.2526,-3.2151,-3.2076,-3.1795,-3.1199,-3.0057,-2.932,-2.9288,-2.8547,-2.7956,-2.7625,-2.7308,-2.6822,-2.6091,-2.583,-2.5815,-2.6031,-2.613,-2.6625,-2.7509,-2.7578,-2.7223,-2.5948,-2.3224,0.0,0.0,-2.1105,-2.2286,-2.3719,-2.5402,-2.7171,-2.9057,-3.1014,-3.26,-3.307,-3.4415,-3.5066,0.0,-3.3822,-3.312,-3.1211,-3.0156,-2.9355,-2.8629,-2.7082,-2.5887,-2.5439,-2.5226,-2.4978,-2.4714,-2.4327,-2.3851,-2.3334,-2.2598,-2.2036,-2.1786,-2.083,-2.027,-2.027,-1.9707,-1.9039,-1.8381,-1.8108,-1.7491,-1.6545,-1.6328,-1.5753,-1.4901,-1.443,-1.43,-1.4539,-1.5076,-1.5377,-1.5719,-1.774,-1.8344,-1.8316,-2.0269,-2.1475,-2.2172,-2.2513,-2.356,-2.4997,-2.6592,-2.9529,-3.3127,-3.7011,-4.0534,-4.3628,-4.5632,-4.6142,-4.5899,-4.5118,-4.4319,-4.3416,-4.2669,-4.1936,-4.1402,-4.1259,-4.0596,-3.9902,-3.9584,-3.9053,-3.8332,-3.7307,-3.6119,-3.4939,-3.3988,-3.3479,-3.2841,-3.1912,-3.148,-3.1211,-3.0769,-3.0956,-3.0816,-3.009,-2.9379,-2.8793,-2.8393,-2.8092,-2.7816,-2.7697,-2.7546,-2.7144,-2.6479,-2.6073,-2.5891,-2.61,-2.6556,-2.7161,-2.7975,-2.8411,-2.8402,-2.3429,0.0,0.0,-1.9542,-2.0063,-2.1351,-2.3367,-2.5384,-2.7258,-2.9154,-3.1674,-3.3716,-3.43,-3.5915,-3.6958,-3.6258,-3.6173,-3.5558,-3.3682,-3.245,-3.1381,-3.0324,-2.8464,-2.6885,-2.6021,-2.5384,-2.5082,-2.5082,-2.4635,-2.4311,-2.4096,-2.3154,-2.2496,-2.2362,-2.1089,-2.0454,-2.0454,-1.9689,-1.8999,-1.8446,-1.7789,-1.7219,-1.6651,-1.5931,-1.5323,-1.4843,-1.4328,-1.4231,-1.4539,-1.5149,-1.5446,-1.5699,-1.7627,-1.8053,-1.7828,-1.946,-2.0995,-2.2184,-2.1976,-2.2953,-2.4567,-2.5786,-2.8662,-3.2396,-3.6592,-4.0467,-4.3861,-4.5901,-4.6645,-4.6573,-4.543,-4.4743,-4.4006,-4.3039,-4.2245,-4.1664,-4.1544,-4.0525,-3.9667,-3.9494,-3.8824,-3.7986,-3.724,-3.6012,-3.4844,-3.3872,-3.3258,-3.2491,-3.1515,-3.0841,-3.026,-2.9968,-3.0225,-3.0184,-2.9656,-2.913,-2.8551,-2.7884,-2.7611,-2.7372,-2.7224,-2.7144,-2.688,-2.6393,-2.5993,-2.5982,-2.6373,-2.6946,-2.7632,-2.8546,-2.9058,-2.9199,0.0,0.0,-1.9975,-1.9801,-2.0219,-2.132,-2.3694,-2.5769,-2.7875,-3.0166,-3.2878,-3.5037,-3.5861,-3.7699,-3.8975,-3.8581,-3.876,-3.8437,-3.6796,-3.4992,-3.3228,-3.1596,-2.9793,-2.8086,0.0,-2.5679,-2.5016,-2.5016,-2.5019,-2.4822,-2.4112,-2.3763,-2.3308,-2.2692,-2.1478,-2.0777,-2.0777,-1.9551,-1.8779,-1.8504,-1.7644,-1.7009,-1.667,-1.5354,-1.4577,-1.4333,-1.3963,-1.405,-1.4539,-1.5149,-1.5473,-1.5745,-1.7035,-1.7473,-1.7548,-1.879,-2.0112,-2.1353,-2.2101,-2.3108,-2.423,-2.5476,-2.856,-3.2519,-3.6864,-4.0419,-4.3606,-4.6813,-4.7148,-4.6436,-4.6155,-4.5477,-4.4561,-4.3084,-4.2626,-4.237,-4.1615,-4.0525,-3.9667,-3.9494,-3.8546,-3.7639,-3.7172,-3.6471,-3.5433,-3.3928,-3.3404,-3.2685,-3.1209,-3.068,-3.0405,-3.0405,-3.0369,-3.037,-3.0354,-2.9416,-2.8664,-2.8286,-2.7331,-2.6561,-2.6137,-2.5841,-2.5631,-2.5642,-2.5312,-2.5794,-2.7192,-2.7207,-2.7896,-2.9282,-2.9282,-2.9282,0.0,0.0,-2.1758,-2.1378,-2.1786,-2.2734,-2.4357,-2.6027,-2.7821,-2.9615,-3.2312,-3.4646,-3.552,-3.7716,-3.9197,-3.893,-3.9671,-3.9536,-3.7326,-3.6509,-3.5239,-3.2884,-3.0794,0.0,0.0,0.0,0.0,-2.5027,-2.5053,-2.4923,-2.4806,-2.3882,-2.3215,-2.3049,-2.1335,-2.0482,-2.0482,-1.9457,-1.8766,-1.849,-1.737,-1.6345,-1.5357,-1.4899,-1.4453,-1.4025,-1.3909,-1.3985,-1.427,-1.4943,-1.5286,-1.5536,-1.6752,-1.7175,-1.7222,-1.8352,-1.9253,-1.9928,-2.0937,-2.2155,-2.3511,-2.4899,-2.808,-3.2236,-3.6968,-4.0629,-4.3778,-4.6839,-4.711,-4.6475,-4.6298,-4.5427,-4.4484,-4.3715,-4.2971,-4.2199,-4.1764,-4.0619,-3.954,-3.953,-3.8511,-3.7694,-3.7449,-3.6435,-3.497,-3.3261,-3.2274,-3.1407,-3.0414,-3.0176,-2.9889,-2.9312,-2.9505,-2.9488,-2.8948,-2.8449,-2.7808,-2.7283,-2.6874,-2.665,-2.648,-2.6158,-2.5947,-2.594,-2.5363,-2.5794,-2.7207,-2.7207,-2.7896,-2.9298,-2.9568,-2.9456,0.0,-2.5494,-2.4797,-2.4175,-2.4307,-2.4922,-2.606,-2.7178,-2.8365,-2.9793,-3.1954,-3.3918,-3.502,-3.6807,-3.8246,-3.868,-3.9582,-3.9599,-3.7841,-3.7394,-3.6278,-3.3764,-3.1862,-3.0049,0.0,0.0,0.0,-2.4869,-2.5027,-2.5097,-2.4913,-2.3943,-2.3351,-2.3351,-2.1466,-2.0496,-2.0496,-1.9341,-1.8365,-1.77,-1.7003,-1.5955,-1.4579,-1.4561,-1.4194,-1.3603,-1.372,-1.3841,-1.4058,-1.4791,-1.5182,-1.5389,-1.6309,-1.6719,-1.6892,-1.778,-1.8429,-1.9011,-1.9911,-2.126,-2.2844,-2.4765,-2.8249,-3.2709,-3.7739,-4.1538,-4.4632,-4.7218,-4.742,-4.6863,-4.6508,-4.5625,-4.4789,-4.4262,-4.3376,-4.2438,-4.2024,-4.0827,-3.9819,-3.9673,-3.8835,-3.8078,-3.8032,-3.663,-3.5065,-3.3582,-3.2236,-3.1079,-3.0179,-2.9855,-2.9497,-2.8995,-2.9028,-2.8869,-2.8263,-2.7772,-2.7207,-2.6512,-2.6341,-2.6253,-2.6152,-2.6028,-2.5947,-2.594,-2.5733,-2.6124,-2.7024,-2.7146,-2.7632,-2.8562,-2.8846,-2.8648,-3.0556,-2.9529,-2.8988,-2.8266,-2.7889,-2.7965,-2.8858,-2.9219,-2.9665,-3.0601,-3.1874,-3.3187,0.0,0.0,-3.647,-3.802,-3.8682,-3.8876,-3.8516,-3.7891,-3.6627,0.0,0.0,0.0,0.0,0.0,0.0,-2.4518,0.0,-2.524,-2.4671,-2.396,-2.3581,-2.3581,-2.1741,-2.0777,-2.0777,-1.9232,-1.7708,-1.629,-1.6572,-1.5857,-1.4276,-1.4276,-1.3852,-1.3087,-1.3366,-1.3622,-1.3857,-1.473,-1.5155,-1.5296,-1.572,-1.6164,-1.6612,-1.7028,-1.7731,-1.8549,-1.9158,-2.0515,-2.238,-2.5014,-2.9059,-3.3902,-3.9164,-4.3012,-4.595,-4.7941,-4.8086,-4.7466,-4.6673,-4.6013,-4.5342,-4.4664,-4.378,-4.2969,-4.2327,-4.1296,-4.0422,-3.9997,-3.9306,-3.8802,-3.8657,-3.7141,-3.5645,-3.4892,-3.3255,-3.1635,-3.0572,-2.9783,-2.9282,-2.9266,-2.8964,-2.8601,-2.813,-2.7539,-2.6839,-2.607,-2.574,-2.5459,-2.5099,-2.5402,-2.5581,-2.5626,-2.6295,-2.6703,-2.6702,-2.7024,-2.7192,-2.7207,-2.7207,-2.7192,-3.491,-3.4595,-3.4034,-3.3419,-3.3239,-3.3121,-3.2878,-3.2254,-3.177,-3.2096,-3.2671,-3.3253,0.0,0.0,0.0,-3.7895,-3.9425,0.0,-3.9596,-3.9711,0.0,-3.564,0.0,-3.27,-3.011,-2.8654,0.0,0.0,-2.528,-2.5076,-2.5005,-2.3927,-2.329,-2.329,-2.1408,-2.0454,-2.0454,-1.9128,-1.7853,-1.6582,-1.668,-1.5857,-1.4276,-1.4276,-1.3763,-1.2905,-1.3321,-1.352,-1.3598,-1.4557,-1.4824,-1.4691,-1.5389,-1.5885,-1.6175,-1.6612,-1.7339,-1.82,-1.8752,-2.0506,-2.2974,-2.5771,-3.0261,-3.5456,-4.0147,-4.383,-4.6549,-4.7861,-4.7847,-4.7202,-4.5976,-4.5202,-4.4551,-4.3972,-4.3047,-4.2339,-4.2382,-4.1528,-4.0607,-4.0315,-3.9635,-3.8922,-3.8262,-3.7065,-3.5826,-3.4778,-3.2925,-3.1325,-3.0489,-3.0048,-2.9544,-2.9003,-2.8821,-2.8341,-2.7116,-2.6931,-2.6391,-2.5402,-2.5292,-2.5152,-2.5114,-2.5396,-2.5595,-2.5576,-2.6029,-2.6433,-2.6702,-2.6779,-2.6962,-2.7207,-2.7207,-2.7069,-3.8885,-3.8885,-3.8497,-3.8389,-3.8082,-3.7514,-3.6552,-3.5507,-3.4474,-3.3503,-3.3281,0.0,0.0,0.0,0.0,0.0,0.0,0.0,-4.0259,-4.0478,-3.9894,0.0,-3.649,0.0,-3.2346,-3.0989,-2.9513,0.0,-2.6166,-2.5241,-2.491,-2.3818,-2.3227,-2.3227,-2.1293,-2.004,-1.9461,-1.8827,-1.788,-1.6694,-1.668,-1.5922,-1.4491,-1.4491,-1.3913,-1.2953,0.0,-1.3601,-1.3527,-1.4372,-1.4661,-1.4678,-1.5069,-1.5498,-1.5886,-1.614,-1.6855,-1.7794,-1.8678,-2.1161,-2.435,-2.694,-3.118,-3.6155,-4.0845,-4.4311,-4.6779,-4.763,-4.7675,-4.7281,-4.6196,-4.522,-4.4453,-4.4299,-4.3346,-4.248,-4.2586,-4.1987,-4.1296,-4.0651,-4.0127,-3.9649,-3.9153,-3.8103,-3.6936,-3.5686,-3.3927,-3.2246,-3.0786,-2.9785,-2.8953,-2.8357,-2.8338,-2.7947,-2.6923,-2.6765,-2.6362,-2.5592,-2.539,-2.5301,-2.5323,-2.5838,-2.6105,-2.6055,-2.6594,-2.6645,-2.642,-2.6626,-2.6581,-2.6283,-2.6283,-2.6109,-4.2267,-4.2387,-4.2413,-4.2789,-4.2266,-4.128,-3.9791,-3.8725,-3.7339,-3.4933,0.0,-3.3918,-3.4148,-3.3857,-3.4454,-3.7204,0.0,-3.932,-4.0669,-4.0829,-4.0564,-3.9925,-3.8908,-3.7322,-3.5011,-3.4053,-3.2567,-3.0013,-2.7732,-2.5977,-2.4907,-2.3888,-2.3271,-2.2988,-2.1205,-1.9693,-1.8415,-1.8489,-1.7935,-1.675,-1.6734,-1.6026,-1.4745,-1.4695,-1.4113,-1.3195,-1.369,0.0,-1.3602,-1.4242,-1.4633,-1.4796,-1.4717,-1.5079,-1.5626,-1.5766,-1.6525,-1.7666,-1.918,-2.2472,-2.6349,-2.8402,-3.2212,-3.6775,-4.128,-4.453,-4.6779,-4.7067,-4.7352,-4.74,-4.6534,-4.5373,-4.457,-4.4908,-4.4061,-4.3083,-4.2934,-4.2563,-4.1975,-4.1035,-4.0676,-4.0446,-4.0423,-3.9368,-3.8111,-3.6809,-3.5318,-3.3551,-3.1175,-2.9395,-2.8201,-2.7777,-2.7679,-2.7557,-2.7191,-2.6925,-2.6669,-2.6218,-2.5922,-2.5692,-2.5592,-2.6264,-2.6599,-2.6532,-2.7165,-2.7045,-2.6011,-2.6352,-2.608,-2.5119,-2.5052,-2.4849,-4.3771,-4.4637,-4.5238,-4.5392,-4.5004,-4.4108,-4.2319,-4.1005,0.0,0.0,0.0,-3.5175,-3.3934,-3.4416,-3.5352,-3.6555,0.0,0.0,0.0,0.0,-4.1501,0.0,0.0,0.0,0.0,0.0,0.0,0.0,0.0,-2.892,-2.6168,-2.4881,-2.3442,-2.1701,-2.0757,-1.9693,-1.8415,-1.8489,-1.7978,-1.7018,-1.6788,-1.6131,-1.4999,-1.4796,-1.4263,-1.3437,-1.3738,0.0,-1.3882,-1.4287,-1.4458,-1.4434,-1.4598,-1.4927,-1.5274,-1.5766,-1.7125,-1.9032,-2.1563,-2.5199,-2.8888,-3.0091,-3.4276,-3.9331,-4.167,-4.4597,-4.6936,-4.5696,-4.6184,-4.6675,-4.4959,-4.444,-4.4276,-4.4033,-4.372,-4.3465,-4.3324,-4.256,-4.1742,-4.1293,-4.0826,-4.0419,-3.9953,-3.882,-3.7621,-3.6758,-3.4672,-3.2642,-3.0879,-2.9771,-2.8747,-2.7825,-2.7717,-2.7419,-2.6833,-2.7258,-2.7254,-2.6651,-2.6537,-2.627,-2.5659,-2.6011,-2.6063,-2.5794,-2.6191,-2.6124,-2.5674,-2.5787,-2.5517,-2.5119,-2.4781,-2.4578,-4.5288,-4.6368,-4.6876,-4.663,-4.671,-4.6205,-4.3569,0.0,0.0,0.0,0.0,-3.6962,-3.5557,0.0,0.0,0.0,0.0,0.0,0.0,0.0,0.0,0.0,0.0,0.0,0.0,0.0,0.0,0.0,0.0,-3.127,-2.7166,-2.5393,-2.3551,-2.1538,-2.1032,-2.0134,-1.8648,-1.8546,-1.8033,-1.7117,-1.7003,-1.6428,-1.5511,-1.5263,-1.4683,-1.3924,-1.4026,0.0,-1.3897,-1.4226,-1.4435,-1.4572,-1.4342,-1.4688,-1.5433,-1.6218,-1.8005,-2.0546,-2.411,-2.7947,-3.1728,-3.4342,-3.7432,-4.0391,-4.1912,-4.4138,-4.5969,-4.4851,-4.5343,-4.5979,-4.5031,-4.4763,-4.4653,-4.429,-4.3851,-4.3561,-4.3612,-4.295,-4.2125,-4.1421,-4.1039,-4.0711,-4.0338,-3.9514,-3.8627,-3.7663,-3.5843,-3.3871,-3.2051,-3.0023,-2.8271,-2.697,-2.6853,-2.6901,-2.6953,-2.7247,-2.7458,-2.7501,-2.7158,-2.6745,-2.6182,-2.6331,-2.6264,-2.5876,-2.6011,-2.5944,-2.5592,-2.5628,-2.5427,-2.5119,-2.4675,-2.4405,-4.6485,-4.7458,-4.7796,-4.7287,-4.7617,-4.7228,-4.4185,-4.3852,0.0,0.0,-3.8996,-3.8652,-3.7347,0.0,-3.5629,0.0,0.0,0.0,0.0,0.0,0.0,0.0,0.0,0.0,0.0,0.0,0.0,0.0,0.0,0.0,-2.8292,-2.6062,-2.412,-2.2363,-2.1799,-2.0799,-1.9229,-1.8838,-1.821,-1.7284,-1.7242,-1.6831,-1.607,-1.5732,-1.5207,-1.4542,-1.4606,0.0,0.0,-1.4472,-1.4744,-1.4869,-1.436,-1.4748,-1.5805,-1.706,-1.9413,-2.2575,-2.6776,-3.0911,-3.4861,-3.8378,-4.0118,-4.1055,-4.2182,-4.3568,-4.4512,-4.3842,-4.4292,-4.4989,-4.4956,-4.4981,-4.4968,-4.4884,-4.4307,-4.3792,-4.4012,-4.3357,-4.2506,-4.1614,-4.123,-4.0984,-4.0646,-4.0174,-3.9538,-3.8597,-3.7051,-3.523,-3.3299,-3.046,-2.8043,-2.6665,-2.6247,-2.6344,-2.6955,-2.7243,-2.7682,-2.818,-2.7687,-2.7178,-2.6718,-2.6599,-2.6331,-2.5861,-2.5876,-2.5764,-2.5487,-2.5499,-2.5336,-2.5115,-2.4635,-2.4251,-4.6897,-4.7595,-4.8007,-4.7797,-4.7422,-4.6498,-4.4199,0.0,0.0,-4.0615,-4.0353,-4.0078,-3.797,-3.7451,-3.6878,0.0,0.0,0.0,0.0,0.0,0.0,0.0,0.0,0.0,0.0,0.0,0.0,0.0,0.0,0.0,-2.9888,-2.7548,-2.5743,-2.4561,-2.3108,-2.1645,-2.0213,-1.9608,-1.8857,-1.7909,-1.738,-1.6957,-1.6691,-1.6138,-1.5707,-1.5379,-1.5569,0.0,0.0,-1.569,-1.5541,-1.509,-1.5143,-1.5437,-1.615,-1.8444,-2.1754,-2.5636,-2.9595,-3.4091,-3.8388,-4.0025,-4.1062,-4.1836,-4.2775,-4.2995,-4.2769,-4.2046,-4.2594,-4.3372,-4.3169,-4.3848,-4.4679,-4.52,-4.497,-4.4611,-4.4774,-4.3716,-4.257,-4.187,-4.142,-4.0921,-4.0422,-3.9779,-3.9208,-3.8714,-3.7266,-3.5508,-3.3736,-3.1207,-2.9164,-2.8056,-2.6839,-2.6152,-2.6258,-2.7433,-2.8089,-2.7751,-2.8048,-2.7766,-2.6733,-2.6331,-2.5876,-2.5187,-2.5187,-2.5174,-2.5143,-2.518,-2.5161,-2.5085,-2.439,-2.4,-4.6764,-4.7631,-4.7843,-4.7278,-4.6993,-4.6184,-4.3741,0.0,0.0,-4.1242,-4.1303,-4.1266,-3.9738,-3.8994,-3.8103,0.0,0.0,0.0,0.0,0.0,0.0,0.0,0.0,0.0,0.0,0.0,0.0,0.0,0.0,0.0,-3.4508,-3.1262,-2.8457,-2.637,-2.5418,-2.4036,-2.2168,-2.1203,-2.0106,-1.9057,-1.8381,-1.7836,-1.7435,-1.7294,-1.7086,-1.6849,-1.7207,0.0,0.0,-1.7219,-1.7246,-1.7211,-1.6599,-1.7186,-1.8582,-2.098,-2.4132,-2.7878,-3.234,-3.6039,-3.9228,-4.1758,-4.2408,-4.2214,-4.22,-4.2508,-4.2583,-4.1138,-4.1424,-4.2223,-4.2433,-4.3704,-4.5048,-4.5645,-4.522,-4.4533,-4.3969,-4.3072,-4.214,-4.1086,-4.074,-4.0445,-3.9885,-3.9779,-3.9544,-3.8995,-3.8147,-3.6967,-3.5337,-3.3073,-3.11,-2.9869,-2.7312,-2.5928,-2.6408,-2.717,-2.776,-2.8025,-2.798,-2.7637,-2.7051,-2.6213,-2.5598,-2.5119,-2.5119,-2.5092,-2.5099,-2.5101,-2.513,-2.5058,-2.4396,-2.401,-4.6764,-4.7701,-4.7919,-4.7261,-4.6666,-4.5674,0.0,0.0,-4.3311,-4.1511,-4.1887,-4.2205,-4.1133,-4.0427,-3.9361,0.0,0.0,0.0,0.0,0.0,0.0,0.0,0.0,0.0,0.0,0.0,0.0,0.0,0.0,0.0,-3.7865,-3.4905,-3.1788,-2.8624,-2.7707,-2.6352,-2.4333,-2.3178,-2.1975,-2.0811,-2.0214,-1.9618,-1.9155,-1.912,-1.9035,-1.8894,-1.9336,0.0,0.0,-1.9383,-1.9401,-1.9512,-1.8861,-1.9543,-2.1131,-2.3735,-2.6788,-3.0189,-3.4206,-3.7325,-3.9863,-4.2218,-4.286,-4.2556,-4.2046,-4.2059,-4.2019,-4.0648,-4.0576,-4.1106,-4.2071,-4.3502,-4.4963,-4.5908,-4.542,-4.459,-4.3972,-4.2971,-4.1923,-4.0938,-4.0409,-3.9966,-3.9469,-3.9621,-3.9597,-3.8906,-3.8776,-3.815,-3.6592,-3.467,-3.2977,-3.1696,-2.8634,-2.6634,-2.6566,-2.6872,-2.73,-2.7939,-2.7781,-2.7556,-2.724,-2.6358,-2.5601,-2.4973,-2.4905,-2.4945,-2.4949,-2.4905,-2.4952,-2.5072,-2.4384,-2.3873,-4.6928,-4.782,-4.842,-4.8065,-4.6649,-4.4915,0.0,0.0,-4.2864,-4.1337,-4.213,-4.2802,-4.1853,-4.156,-4.0659,-3.8103,0.0,0.0,0.0,0.0,0.0,0.0,0.0,0.0,0.0,0.0,0.0,0.0,0.0,0.0,-3.8858,-3.8007,-3.5669,-3.1574,-2.9952,-2.8309,-2.6473,-2.5587,-2.4479,-2.3151,-2.2878,-2.2502,-2.2045,-2.1696,-2.1579,0.0,0.0,0.0,0.0,-2.2349,-2.2109,-2.16,-2.2067,-2.2543,-2.3357,-2.6505,-2.9635,-3.267,-3.4941,-3.7818,-4.0633,-4.1013,-4.2037,-4.3039,-4.2604,-4.1612,-4.0568,-4.0416,-3.9957,-4.0007,-4.1981,-4.3044,-4.4103,-4.5947,-4.5573,-4.4955,-4.5442,-4.3822,-4.2121,-4.1754,-4.0655,-3.968,-3.9164,-3.9318,-3.9217,-3.8364,-3.894,-3.8827,-3.7035,-3.5857,-3.4675,-3.3407,-3.0969,-2.8649,-2.6695,-2.6599,-2.6793,-2.7173,-2.752,-2.7572,-2.7214,-2.6872,-2.6005,-2.4554,-2.4488,-2.454,-2.4526,-2.4526,-2.4708,-2.5058,-2.4425,-2.3344,-4.5598,-4.6802,-4.7582,-4.6922,-4.5748,-4.4448,-4.3368,0.0,-4.2138,-4.1654,-4.1583,-4.1784,-4.2233,-4.1497,-4.0481,-3.9387,-3.9009,0.0,0.0,0.0,0.0,0.0,0.0,0.0,0.0,0.0,0.0,0.0,0.0,0.0,-3.9522,-3.8613,-3.6699,-3.372,-3.2825,-3.1715,-3.0197,-2.8833,-2.7585,-2.6398,-2.5681,-2.4922,-2.4217,-2.4576,-2.4684,0.0,0.0,0.0,0.0,-2.5583,-2.5725,-2.6019,-2.5701,-2.6294,-2.7603,-3.0225,-3.2448,-3.4468,-3.6949,-3.8753,-4.0059,-4.0941,-4.1591,-4.2111,-4.2607,-4.243,-4.168,-3.9967,-3.9212,-3.9223,-4.0697,-4.2081,-4.339,-4.4557,-4.4731,-4.4422,-4.3579,-4.2579,-4.1552,-4.0612,-3.987,-3.9363,-3.8964,-3.8529,-3.815,-3.7885,-3.8335,-3.819,-3.6885,-3.6822,-3.628,-3.4896,-3.3128,-3.0959,-2.8079,-2.7434,-2.7057,-2.6839,-2.6909,-2.682,-2.6488,-2.6152,-2.5496,-2.4624,-2.4559,-2.4461,-2.4261,-2.4453,-2.4543,-2.4425,-2.4177,-2.3476,0.0,-4.5881,-4.6843,-4.6374,-4.5169,0.0,0.0,0.0,-4.1007,-4.0945,-4.0772,-4.0829,-4.1491,-4.0911,-4.0102,-3.949,-3.9056,0.0,0.0,0.0,0.0,0.0,0.0,0.0,0.0,0.0,0.0,0.0,0.0,0.0,-3.9247,-3.846,-3.7438,-3.6153,-3.525,-3.4259,-3.3148,-3.1985,-3.0853,-2.9713,-2.9015,-2.8099,-2.6998,-2.7363,-2.7353,0.0,0.0,0.0,0.0,-2.8081,-2.8533,-2.9415,-2.91,-2.989,-3.1505,-3.3528,-3.5157,-3.6551,-3.8291,-3.9298,-3.9881,-4.056,-4.1319,-4.2132,-4.2977,-4.27,-4.1742,-3.9934,-3.902,-3.8874,-4.0304,-4.1318,-4.2367,-4.4008,-4.4327,-4.4075,-4.3371,-4.2476,-4.1541,-4.0684,-3.986,-3.9231,-3.9003,-3.8227,-3.7556,-3.7405,-3.7836,-3.7726,-3.6637,-3.7166,-3.7221,-3.6137,-3.4833,-3.3099,-3.0778,-2.8764,-2.7456,-2.7119,-2.6907,-2.6703,-2.65,-2.6305,-2.566,-2.4604,-2.4475,-2.4257,-2.3907,-2.423,-2.4314,-2.4115,-2.3976,-2.342,0.0,0.0,0.0,0.0,0.0,0.0,0.0,0.0,0.0,-3.9471,-3.9594,-3.9777,-3.9907,-3.9811,-3.9502,-3.8758,-3.8439,0.0,0.0,0.0,0.0,0.0,0.0,0.0,0.0,0.0,0.0,0.0,0.0,0.0,-3.8212,-3.7774,-3.7843,-3.8521,-3.7153,-3.6148,-3.5507,-3.4995,-3.4162,-3.309,-3.2671,-3.1663,-3.0229,-2.993,-2.9584,0.0,0.0,0.0,0.0,-3.0056,-3.0721,-3.207,-3.2348,-3.3425,-3.5001,-3.6497,-3.7772,-3.885,-3.9187,-3.9627,-4.0012,-3.9913,-4.1069,-4.2698,-4.3501,-4.2587,-4.1143,-4.0338,-3.9329,-3.889,-4.0604,-4.0723,-4.11,-4.396,-4.411,-4.3835,-4.437,-4.3241,-4.1993,-4.1749,-4.0465,-3.9403,-3.9323,-3.8358,-3.7394,-3.6969,-3.7344,-3.7263,-3.618,-3.6906,-3.732,-3.7039,-3.5963,-3.4968,-3.4186,-3.0458,-2.812,-2.7979,-2.7391,-2.702,-2.6991,-2.698,-2.6235,-2.4527,-2.4179,-2.394,-2.3623,-2.3956,-2.4115,-2.4115,-2.3775,-2.3286,-4.0245,0.0,-4.4291,-4.4374,-4.3485,0.0,0.0,0.0,0.0,0.0,0.0,0.0,0.0,-3.82,-3.7797,-3.9535,-3.8921,-3.8577,-3.959,0.0,0.0,0.0,0.0,0.0,0.0,0.0,0.0,0.0,0.0,-3.8956,-3.8014,-3.7276,-3.7219,-3.7825,-3.792,-3.8121,-3.8438,-3.7335,-3.647,-3.5852,-3.5143,-3.4065,-3.2639,-3.1863,-3.1225,0.0,0.0,0.0,-3.192,-3.2613,-3.3811,-3.5315,-3.6513,-3.7353,-3.806,-3.9688,-4.0506,-4.0792,-4.1171,-4.1041,-4.0603,-3.9869,-4.0252,-4.1163,-4.2546,-4.27,-4.2222,-4.1308,-4.0169,-3.9378,-4.0254,-4.0305,-4.0613,-4.2514,-4.3127,-4.3364,-4.3452,-4.314,-4.2647,-4.199,-4.1099,-4.03,-3.9779,-3.8217,-3.7049,-3.6937,-3.6082,-3.5282,-3.4804,-3.5514,-3.6038,-3.5962,-3.6028,-3.5835,-3.5187,-3.2022,-2.958,-2.8369,-2.7369,-2.6509,-2.5847,-2.6074,-2.5682,-2.4497,-2.3961,-2.3786,-2.3973,-2.4084,-2.4239,-2.4471,-2.4147,-2.3734,-3.8271,-4.0248,-4.2041,-4.2204,-4.1612,-4.0964,0.0,0.0,0.0,0.0,0.0,0.0,0.0,0.0,0.0,-3.8138,-3.838,0.0,0.0,0.0,0.0,0.0,0.0,0.0,0.0,0.0,0.0,0.0,0.0,-3.9196,-3.8133,-3.7276,-3.7153,-3.7833,-3.8371,-3.8948,-3.9609,-3.9069,-3.8422,-3.7703,-3.7158,-3.5748,-3.3638,-3.3252,-3.2501,0.0,0.0,0.0,-3.382,-3.4674,-3.6211,-3.8076,-3.902,-3.9898,-4.0735,-4.1633,-4.1883,-4.1745,-4.1818,-4.0977,-3.9827,-3.9552,-3.9751,-4.0417,-4.1961,-4.2836,-4.3239,-4.2911,-4.1799,-4.0789,-4.0997,-4.0811,-4.0759,-4.1681,-4.2515,-4.3197,-4.3353,-4.3403,-4.3214,-4.2463,-4.1663,-4.0788,-3.9795,-3.8125,-3.6839,-3.6634,-3.5447,-3.4492,-3.4271,-3.4699,-3.5135,-3.5527,-3.5863,-3.6048,-3.6023,-3.3923,-3.1644,-2.9513,-2.8064,-2.6971,-2.6149,-2.6145,-2.5653,-2.4503,-2.4239,-2.4177,-2.4363,-2.4363,-2.4487,-2.4857,-2.4668,-2.428,-3.6677,-3.7955,-3.9289,-4.0108,-3.9876,-3.9377,0.0,0.0,0.0,0.0,0.0,0.0,0.0,0.0,0.0,0.0,0.0,0.0,0.0,0.0,0.0,0.0,0.0,0.0,0.0,0.0,0.0,0.0,0.0,-3.971,-3.8449,-3.7512,-3.7298,-3.7882,-3.8382,-3.8955,-3.9721,-4.0142,-3.9917,-3.9146,-3.8811,-3.7281,-3.4598,-3.4558,-3.3711,0.0,0.0,0.0,-3.5669,-3.6631,-3.8342,-4.0416,-4.0903,-4.1789,-4.2733,-4.2871,-4.2495,-4.1989,-4.1528,-4.0117,-3.8596,-3.8878,-3.9244,-3.9846,-4.1389,-4.2779,-4.393,-4.4503,-4.3598,-4.2376,-4.2225,-4.1579,-4.105,-4.1242,-4.2043,-4.2953,-4.3331,-4.3523,-4.3425,-4.2912,-4.2039,-4.1028,-3.9758,-3.8166,-3.6865,-3.6365,-3.5167,-3.4229,-3.4075,-3.4048,-3.4291,-3.5025,-3.5332,-3.5713,-3.6348,-3.5354,-3.3577,-3.0967,-2.9146,-2.7761,-2.6846,-2.6487,-2.5805,-2.4623,-2.4607,-2.4672,-2.4672,-2.4672,-2.4826,-2.5146,-2.5098,-2.4715,-3.4269,-3.4519,-3.5678,-3.9193,-3.9511,-3.919,0.0,0.0,0.0,0.0,0.0,0.0,0.0,0.0,0.0,0.0,0.0,0.0,0.0,0.0,0.0,0.0,0.0,0.0,0.0,0.0,0.0,0.0,0.0,-4.01,-3.887,-3.7813,-3.7063,-3.661,-3.7306,-3.8082,-3.8899,-4.0274,-4.0865,-4.0668,-4.0282,-3.94,-3.8076,-3.6625,-3.5457,0.0,0.0,-3.5565,-3.6755,-3.8947,-4.0772,-4.2359,-4.3814,-4.3966,-4.3373,-4.3637,-4.29,-4.158,-4.0313,-3.9172,-3.8255,-3.7776,-3.797,-3.872,-4.0305,-4.2,-4.3785,-4.5112,-4.427,-4.2968,-4.2862,-4.1979,-4.1013,-4.0703,-4.1404,-4.2024,-4.1668,-4.2228,-4.2791,-4.2718,-4.1824,-4.0911,-4.0411,-3.8498,-3.689,-3.6577,-3.4803,-3.3453,-3.3299,-3.306,-3.3019,-3.3211,-3.4237,-3.4944,-3.4977,-3.4807,-3.3929,-3.2151,-3.0105,-2.8113,-2.6208,-2.6062,-2.5646,-2.4924,-2.499,-2.5042,-2.5042,-2.5042,-2.5205,-2.5441,-2.513,-2.4652,-3.3325,-3.2879,-3.3277,-3.6319,-3.7196,-3.729,0.0,0.0,0.0,0.0,0.0,0.0,0.0,0.0,0.0,0.0,0.0,0.0,0.0,0.0,0.0,0.0,0.0,0.0,0.0,0.0,0.0,0.0,0.0,0.0,-3.9722,-3.8726,-3.7862,-3.722,-3.7193,-3.7605,-3.8572,-3.9487,-4.0254,-4.0959,-4.1569,-4.0793,-3.8777,-3.8698,-3.7732,-3.6221,0.0,-3.7882,-3.8753,-4.0694,-4.2423,-4.3829,-4.4483,-4.4452,-4.3826,-4.2282,-4.0982,-3.9896,-3.9029,-3.8269,-3.7644,-3.758,-3.7658,-3.805,-3.9244,-4.0802,-4.2573,-4.4349,-4.4763,-4.4526,-4.3869,-4.3066,-4.2175,-4.0952,-4.1249,-4.1725,-4.1264,-4.1773,-4.2157,-4.1686,-4.1299,-4.0597,-3.9297,-3.8067,-3.7016,-3.6356,-3.4821,-3.3683,-3.3486,-3.2867,-3.2494,-3.2715,-3.3461,-3.4193,-3.4702,-3.4718,-3.374,-3.1584,-2.9324,-2.7532,-2.6347,-2.616,-2.5748,-2.5005,-2.5622,-2.5717,-2.5365,-2.5538,-2.566,-2.5777,-2.5411,-2.4928,-3.2289,-3.1766,-3.1624,-3.3105,0.0,0.0,0.0,0.0,0.0,0.0,0.0,0.0,0.0,0.0,0.0,0.0,0.0,0.0,0.0,0.0,0.0,0.0,0.0,0.0,0.0,0.0,0.0,0.0,0.0,0.0,-4.0587,-3.9567,-3.8699,-3.7993,-3.7209,-3.7165,-3.8011,-3.8394,-3.9421,-4.1017,-4.2381,-4.1931,-3.9936,-4.0804,-4.0132,-3.8335,-3.9262,-3.9929,-4.048,-4.182,-4.3198,-4.4496,-4.4336,-4.4033,-4.334,-4.0516,-3.9053,-3.8388,-3.795,-3.7531,-3.725,-3.7505,-3.7488,-3.7526,-3.8315,-3.9656,-4.1293,-4.3169,-4.4613,-4.5452,-4.4732,-4.4038,-4.3039,-4.1231,-4.1162,-4.129,-4.0647,-4.1024,-4.1312,-4.0586,-4.0458,-4.0012,-3.8371,-3.7661,-3.7019,-3.6033,-3.4834,-3.392,-3.3671,-3.2717,-3.2105,-3.2267,-3.261,-3.3258,-3.4342,-3.4163,-3.3187,-3.1176,-2.8954,-2.7393,-2.664,-2.6482,-2.5987,-2.5111,-2.6081,-2.6355,-2.5785,-2.5927,-2.6008,-2.6058,-2.5509,-2.4942,-3.0315,-3.0547,-3.0803,-3.0366,-3.1396,0.0,-3.5953,0.0,0.0,0.0,0.0,0.0,0.0,0.0,0.0,0.0,0.0,0.0,0.0,0.0,0.0,0.0,0.0,0.0,0.0,0.0,0.0,0.0,0.0,0.0,-4.1018,-3.9955,-3.8938,-3.7946,-3.703,-3.6542,-3.6541,-3.7367,-3.8963,-4.1294,-4.2397,-4.3106,-4.35,-4.2992,-4.237,-4.1693,-4.1046,-4.0956,-4.1241,-4.1983,-4.2849,-4.3593,-4.3904,-4.2844,-4.0958,-3.921,-3.8333,-3.7882,-3.7235,-3.7223,-3.7511,-3.7101,-3.7039,-3.7248,-3.7704,-3.8801,-4.0249,-4.2088,-4.3512,-4.4644,-4.519,-4.4259,-4.2812,-4.1281,-4.0876,-4.041,-3.8866,-3.9349,-4.0012,-3.9671,-3.928,-3.895,-3.8701,-3.7565,-3.6579,-3.5982,-3.471,-3.3657,-3.3146,-3.2201,-3.1423,-3.1169,-3.1499,-3.2139,-3.3124,-3.2665,-3.2197,-3.2105,-3.0339,-2.8528,-2.6774,-2.687,-2.6424,-2.5386,-2.6201,-2.6523,-2.6406,-2.6168,-2.609,-2.6257,-2.503,-2.4306,-2.9804,-2.9945,-3.0198,-3.017,-3.0194,0.0,0.0,0.0,0.0,0.0,0.0,0.0,0.0,0.0,0.0,0.0,0.0,0.0,0.0,0.0,0.0,0.0,0.0,0.0,0.0,0.0,0.0,0.0,0.0,0.0,-4.0326,-3.9739,-3.9132,-3.8573,-3.704,-3.6263,-3.6445,-3.6349,-3.7197,-3.9102,-4.1744,-4.294,-4.2813,-4.3777,-4.3359,-4.1869,-4.1631,-4.1055,-4.0313,-4.0626,-4.1085,-4.1602,-4.1992,-4.1296,-4.0004,-3.9306,-3.8582,-3.7938,-3.8325,-3.8211,-3.7881,-3.7651,-3.7385,-3.7137,-3.7072,-3.787,-3.9139,-4.0647,-4.2199,-4.3805,-4.5258,-4.4984,-4.3907,-4.2275,-4.1483,-4.053,-3.8616,-3.8641,-3.8779,-3.8061,-3.7913,-3.7703,-3.7287,-3.665,-3.61,-3.5761,-3.482,-3.3935,-3.3378,-3.2104,-3.1063,-3.0838,-3.1013,-3.1483,-3.2323,-3.2414,-3.212,-3.1489,-2.9934,-2.8496,-2.7378,-2.7046,-2.6399,-2.5444,-2.6143,-2.6406,-2.6194,-2.597,-2.5589,-2.5091,-2.4418,-2.3494,-2.886,-2.8851,-2.9144,-2.9522,0.0,0.0,0.0,0.0,0.0,0.0,0.0,0.0,0.0,0.0,0.0,0.0,0.0,0.0,0.0,0.0,0.0,0.0,0.0,0.0,0.0,0.0,0.0,0.0,0.0,0.0,0.0,-3.917,-3.8952,-3.9021,-3.705,-3.6103,-3.6369,-3.5642,-3.5941,-3.7245,-4.021,-4.1794,-4.2164,-4.3504,-4.323,-4.1624,-4.0992,-4.0097,-3.9011,-3.8742,-3.9,-3.9741,-4.0278,-4.0227,-3.9854,-3.9807,-3.945,-3.8984,-3.9506,-3.9285,-3.8672,-3.8406,-3.7906,-3.7289,-3.6734,-3.7241,-3.8232,-3.9448,-4.1028,-4.2723,-4.439,-4.4774,-4.4289,-4.2505,-4.1423,-4.0224,-3.8173,-3.791,-3.7769,-3.6781,-3.6698,-3.6616,-3.6096,-3.5808,-3.5597,-3.5379,-3.4707,-3.3963,-3.3293,-3.1868,-3.0747,-3.0237,-3.0315,-3.069,-3.1301,-3.1427,-3.1234,-3.0736,-2.9442,-2.841,-2.7872,-2.7389,-2.6755,-2.585,-2.6302,-2.638,-2.6143,-2.5726,-2.5228,-2.4629,-2.3717,-2.2752,-2.7179,-2.7304,-2.7506,0.0,0.0,0.0,0.0,0.0,0.0,0.0,0.0,0.0,0.0,0.0,0.0,0.0,0.0,0.0,0.0,0.0,0.0,0.0,0.0,0.0,0.0,0.0,0.0,0.0,0.0,0.0,0.0,-3.83,-3.831,-3.9062,-3.709,-3.6008,-3.6082,-3.5347,-3.5404,-3.6166,-3.7656,-3.9673,-4.2081,-4.2129,-4.1886,-4.1264,-3.9131,-3.8028,-3.7596,-3.6464,-3.6825,-3.8161,-3.9044,-3.9823,-4.0427,-4.063,-4.0852,-4.1047,-4.0572,-4.0203,-3.9899,-3.9213,-3.853,-3.7704,-3.6772,-3.6968,-3.7664,-3.8514,-3.996,-4.1398,-4.2428,-4.3359,-4.3567,-4.1588,-4.0489,-3.9355,-3.7372,-3.7126,-3.7001,-3.5926,-3.5802,-3.5732,-3.5377,-3.5219,-3.5098,-3.4848,-3.4335,-3.3658,-3.2709,-3.1529,-3.037,-2.9237,-2.9177,-2.9467,-2.9943,-2.9368,-2.9249,-2.9959,-2.9083,-2.8476,-2.82,-2.7984,-2.7544,-2.6814,-2.6579,-2.6461,-2.6371,-2.536,-2.4986,-2.5093,-2.2973,-2.2044,-2.5969,-2.6476,0.0,-2.6729,0.0,0.0,0.0,0.0,0.0,0.0,0.0,0.0,0.0,0.0,0.0,0.0,0.0,0.0,0.0,0.0,0.0,0.0,0.0,0.0,0.0,0.0,0.0,0.0,0.0,0.0,0.0,-3.6948,-3.718,-3.7867,-3.7085,-3.628,-3.5587,-3.5122,-3.4951,-3.5133,-3.6322,-3.7963,-4.0029,-4.128,-4.1106,-3.9807,-3.8872,-3.776,-3.6609,-3.6116,-3.6374,-3.722,-3.8609,-3.9524,-4.0071,-4.0871,-4.1051,-4.0903,-4.0874,-4.0545,-3.9923,-3.9024,-3.8086,-3.7232,-3.6567,-3.6482,-3.6779,-3.7442,-3.8872,-4.0337,-4.0615,-4.1693,-4.2579,-4.1997,-4.0749,-3.9287,-3.7709,-3.6811,-3.6112,-3.5397,-3.4903,-3.4649,-3.4793,-3.4234,-3.3931,-3.4265,-3.3856,-3.2912,-3.1229,-3.0554,-2.9672,-2.8271,-2.799,-2.8056,-2.8229,-2.7782,-2.7701,-2.8289,-2.7734,-2.7414,-2.7476,-2.7523,-2.698,-2.5719,-2.5497,-2.5175,-2.4713,-2.4404,-2.3743,-2.2901,-2.2321,-2.1469,-2.4289,-2.5067,0.0,-2.5759,0.0,0.0,0.0,0.0,0.0,0.0,0.0,0.0,0.0,0.0,0.0,0.0,0.0,0.0,0.0,0.0,0.0,0.0,0.0,0.0,0.0,0.0,0.0,0.0,0.0,0.0,0.0,-3.5911,-3.6244,0.0,-3.682,-3.6307,-3.5629,-3.5284,-3.5045,-3.4951,-3.5481,-3.6694,-3.8416,-3.9689,-3.9884,-3.9099,-3.862,-3.7616,-3.634,-3.6497,-3.6722,-3.711,-3.8546,-3.954,-4.0302,-4.1181,-4.1482,-4.1413,-4.1244,-4.0789,-4.0012,-3.8842,-3.7958,-3.7193,-3.606,-3.5991,-3.6248,-3.6349,-3.7749,-3.9147,-3.9056,-4.0178,-4.137,-4.1189,-4.0196,-3.8832,-3.741,-3.6375,-3.5527,-3.4933,-3.4314,-3.3854,-3.3861,-3.3298,-3.2936,-3.2996,-3.2737,-3.2114,-3.1014,-3.0218,-2.929,-2.8155,-2.7298,-2.6813,-2.6683,-2.5985,-2.5709,-2.6165,-2.6042,-2.608,-2.6368,-2.6904,-2.662,-2.5533,-2.5099,-2.4547,-2.386,-2.3505,-2.2951,-2.2035,-2.1847,-2.1133,-2.2267,0.0,0.0,-2.4737,0.0,0.0,0.0,0.0,0.0,0.0,0.0,0.0,0.0,0.0,0.0,0.0,0.0,0.0,0.0,0.0,0.0,0.0,0.0,0.0,0.0,0.0,0.0,0.0,0.0,0.0,0.0,-3.5112,0.0,-3.6654,-3.6438,-3.6223,-3.6113,-3.5716,-3.5443,0.0,-3.5132,-3.5848,-3.7284,-3.7923,-3.8524,-3.9069,-3.8501,-3.7758,-3.6917,-3.7524,-3.7699,-3.7712,-3.8723,-3.9634,-4.0462,-4.1092,-4.1583,-4.1826,-4.1266,-4.0694,-3.9994,-3.8559,-3.7882,-3.7318,-3.5452,-3.5392,-3.5862,-3.5273,-3.6458,-3.7889,-3.7636,-3.8758,-3.9886,-3.9437,-3.8928,-3.8132,-3.6526,-3.5736,-3.51,-3.4481,-3.3979,-3.3452,-3.2836,-3.2482,-3.2065,-3.1354,-3.1256,-3.1318,-3.1502,-3.0264,-2.9148,-2.8512,-2.6933,-2.5759,-2.5247,-2.4146,-2.3656,-2.3999,-2.4182,-2.4536,-2.4931,-2.6055,-2.6399,-2.5883,-2.5113,-2.4284,-2.3387,-2.2673,-2.2209,-2.1957,-2.1481,-2.1071,-2.0153,-2.1133,0.0,0.0,0.0,0.0,0.0,0.0,0.0,0.0,0.0,0.0,0.0,0.0,0.0,0.0,0.0,0.0,0.0,0.0,0.0,0.0,0.0,0.0,0.0,0.0,0.0,0.0,0.0,0.0,-3.4785,0.0,0.0,-3.6527,-3.694,-3.7096,-3.6946,-3.6238,-3.5651,0.0,-3.4869,-3.547,-3.6871,-3.7739,-3.8771,-3.9869,-3.9736,-3.9341,-3.8908,-3.9527,-3.9211,-3.8325,-3.8879,-3.8725,-3.8227,-3.8407,-3.863,-3.881,-3.8536,-3.8626,-3.8744,-3.7621,-3.6892,-3.6269,-3.5157,-3.4708,-3.4514,-3.4306,-3.5437,-3.659,-3.6103,-3.6761,-3.7473,-3.7296,-3.7396,-3.7139,-3.5687,-3.4955,-3.4522,-3.423,-3.3768,-3.3391,-3.3064,-3.1989,-3.1018,-3.0334,-3.0504,-3.083,-3.1012,-3.0379,-2.9397,-2.7941,-2.6601,-2.5232,-2.3862,-2.3047,-2.2777,-2.3274,-2.3012,-2.321,-2.4042,-2.5234,-2.5496,-2.4659,-2.3713,-2.2727,-2.1634,-2.0858,-2.067,-2.1089,-2.1202,-2.1496,0.0,0.0,0.0,0.0,0.0,0.0,0.0,0.0,0.0,0.0,0.0,0.0,0.0,0.0,0.0,0.0,0.0,0.0,0.0,0.0,0.0,0.0,0.0,0.0,0.0,0.0,0.0,0.0,0.0,-3.5123,0.0,-3.5261,-3.5571,-3.6328,-3.7087,-3.7346,-3.6989,-3.6942,-3.6538,-3.569,-3.5365,-3.5856,-3.7111,-3.8908,-4.0054,-4.0693,-4.164,-4.155,-4.0793,-4.134,-4.0583,-3.8965,-3.8602,-3.7791,-3.685,-3.6796,-3.6847,-3.6941,-3.7192,-3.7658,-3.7901,-3.6859,-3.6462,-3.6127,-3.4681,-3.4293,-3.4199,-3.3615,-3.4293,-3.5086,-3.4512,-3.4926,-3.5404,-3.4833,-3.5523,-3.6258,-3.5894,-3.5237,-3.471,-3.4705,-3.4063,-3.325,-3.2457,-3.0758,-2.9453,-2.9348,-2.9476,-2.9711,-3.0145,-2.9827,-2.9147,-2.8069,-2.6676,-2.5157,-2.348,-2.2704,-2.2245,-2.2088,-2.2199,-2.2796,-2.4108,-2.4624,-2.4631,-2.4053,-2.3219,-2.2166,-2.0922,-2.0393,-2.0253,-2.0471,-2.1223,-2.2078,0.0,0.0,0.0,0.0,0.0,0.0,0.0,0.0,0.0,0.0,0.0,0.0,0.0,0.0,0.0,0.0,0.0,0.0,0.0,0.0,0.0,0.0,0.0,0.0,0.0,0.0,0.0,0.0,0.0,0.0,-3.6,-3.591,-3.5978,-3.6263,-3.7138,-3.7413,-3.7003,-3.7613,-3.7393,-3.6484,-3.6241,-3.6632,-3.7591,-4.0024,-4.1225,-4.1459,-4.3256,-4.3426,-4.2371,-4.2552,-4.1403,-3.9445,-3.7936,-3.663,-3.5608,-3.5249,-3.5153,-3.5333,-3.6104,-3.6722,-3.709,-3.6313,-3.6314,-3.6248,-3.4458,-3.4166,-3.4186,-3.2962,-3.3102,-3.3451,-3.2771,-3.2969,-3.3187,-3.2524,-3.3602,-3.4981,-3.5952,-3.5529,-3.5039,-3.5267,-3.4246,-3.288,-3.1363,-2.9257,-2.7886,-2.8271,-2.8151,-2.8262,-2.8962,-2.8835,-2.8543,-2.8177,-2.678,-2.5272,-2.3767,-2.2858,-2.2033,-2.1374,-2.1865,-2.2789,-2.4297,-2.4162,-2.3965,-2.3768,-2.3062,-2.1943,-2.0482,-2.0272,-2.0148,-2.0173,-2.1557,-2.2975,0.0,0.0,0.0,0.0,0.0,0.0,0.0,0.0,0.0,0.0,0.0,0.0,0.0,0.0,0.0,0.0,0.0,0.0,0.0,0.0,0.0,0.0,0.0,0.0,0.0,0.0,0.0,0.0,0.0,0.0,-3.6087,-3.6061,-3.6241,-3.6554,-3.7227,-3.7698,-3.7813,-3.782,-3.7478,-3.6828,-3.6952,-3.7182,-3.7569,-3.9344,-4.0777,-4.2038,-4.307,-4.3411,-4.3205,-4.201,-4.0701,-3.9188,-3.6758,-3.5015,-3.3809,-3.2608,-3.2413,-3.2883,-3.3534,-3.4581,-3.5675,-3.6095,-3.6168,-3.5905,-3.5077,-3.4376,-3.3554,-3.2307,-3.1992,-3.1802,-3.0851,-3.0444,-3.0398,-3.0927,-3.1564,-3.2463,-3.4004,-3.4424,-3.4664,-3.5182,-3.3733,-3.1787,-2.9916,-2.832,-2.7189,-2.6818,-2.6557,-2.6696,-2.7473,-2.7475,-2.7458,-2.7422,-2.626,-2.5224,-2.468,-2.3348,-2.2539,-2.2561,-2.2422,-2.2744,-2.3584,-2.3787,-2.3757,-2.3539,-2.2659,-2.1331,-1.9574,-1.9319,-1.9605,-2.0508,-2.2532,-2.4481,-1.8848,0.0,0.0,0.0,0.0,0.0,0.0,0.0,0.0,0.0,0.0,0.0,0.0,0.0,0.0,0.0,0.0,0.0,0.0,0.0,0.0,0.0,0.0,0.0,0.0,0.0,0.0,0.0,0.0,-3.7061,-3.6729,-3.6811,-3.6796,-3.6753,-3.7363,-3.7608,-3.7446,-3.8006,-3.8295,-3.8241,-3.8281,-3.8132,-3.7883,-3.8548,-3.9329,-4.0304,-4.1616,-4.1627,-4.0775,-4.0269,-3.9245,-3.7763,-3.5652,-3.4251,-3.3336,-3.2087,-3.1738,-3.2088,-3.3097,-3.425,-3.5374,-3.6001,-3.6561,-3.681,-3.5752,-3.5105,-3.4378,-3.2971,-3.2058,-3.1204,-3.0106,-2.9481,-2.9171,-2.9209,-2.9784,-3.0758,-3.2381,-3.3619,-3.4322,-3.3938,-3.2495,-3.0844,-2.9468,-2.8187,-2.708,-2.6164,-2.5945,-2.5816,-2.5698,-2.6103,-2.6448,-2.6755,-2.6531,-2.6214,-2.5942,-2.5101,-2.4346,-2.3869,-2.3434,-2.3442,-2.4051,-2.3697,-2.3426,-2.333,-2.2353,-2.1108,-1.9593,-1.9297,-1.9507,-2.0297,-2.2899,-2.5153,0.0,0.0,0.0,0.0,0.0,0.0,0.0,0.0,0.0,0.0,0.0,0.0,0.0,0.0,0.0,0.0,0.0,0.0,0.0,0.0,0.0,0.0,0.0,0.0,0.0,0.0,0.0,0.0,0.0,-3.7449,-3.7207,-3.7605,-3.7553,-3.6946,-3.7475,-3.7472,-3.685,-3.7827,-3.8597,-3.9167,-3.8974,-3.8538,-3.782,-3.7422,-3.7123,-3.7006,-3.8761,-3.8948,-3.8052,-3.7893,-3.7527,-3.6883,-3.5186,-3.4251,-3.3801,-3.2557,-3.2015,-3.2081,-3.2816,-3.3922,-3.5073,-3.5678,-3.6665,-3.7433,-3.6389,-3.5874,-3.5336,-3.379,-3.2389,-3.1107,-2.9972,-2.918,-2.8588,-2.8259,-2.886,-2.9937,-3.1589,-3.3201,-3.3947,-3.2705,-3.1374,-3.0146,-2.9202,-2.8092,-2.7005,-2.6048,-2.5684,-2.5189,-2.4297,-2.4773,-2.5365,-2.5783,-2.6312,-2.6599,-2.659,-2.6158,-2.5559,-2.4682,-2.3978,-2.3727,-2.3883,-2.3176,-2.2647,-2.2351,-2.1306,-2.0313,-1.9295,-1.9021,-1.9246,-1.9965,-2.2899,-2.5366,0.0,0.0,0.0,0.0,0.0,0.0,0.0,0.0,0.0,0.0,0.0,0.0,0.0,0.0,0.0,0.0,0.0,0.0,0.0,0.0,0.0,0.0,0.0,0.0,0.0,0.0,0.0,0.0,0.0,-3.7187,-3.7098,-3.8352,-3.8398,-3.7128,-3.7535,-3.7337,-3.6445,-3.697,-3.7823,-3.8841,-3.8371,-3.7756,-3.7005,-3.5727,-3.3926,-3.1902,-3.3936,-3.5389,-3.613,-3.4876,-3.5592,-3.7306,-3.5737,-3.5231,-3.5256,-3.3871,-3.3078,-3.2595,-3.2132,-3.3007,-3.4372,-3.502,-3.6129,-3.7158,-3.6856,-3.6547,-3.5985,-3.4276,-3.2653,-3.1302,-3.0307,-2.9401,-2.8661,-2.859,-2.9169,-3.0319,-3.224,-3.324,-3.3402,-3.1996,-3.0829,-2.9715,-2.8777,-2.7634,-2.6735,-2.6499,-2.5586,-2.4605,-2.368,-2.3751,-2.4013,-2.4262,-2.491,-2.5518,-2.5994,-2.569,-2.5145,-2.4448,-2.3602,-2.2867,-2.2349,-2.1864,-2.1066,-2.0,-1.9099,-1.8413,-1.7893,-1.8064,-1.8621,-1.959,-2.252,-2.5237,0.0,0.0,0.0,0.0,0.0,0.0,0.0,0.0,0.0,0.0,0.0,0.0,0.0,0.0,0.0,0.0,0.0,0.0,0.0,0.0,0.0,0.0,0.0,0.0,0.0,0.0,0.0,0.0,0.0,0.0,-3.7301,-3.8671,-3.9143,-3.8343,-3.7926,-3.7052,-3.565,-3.6117,-3.6928,-3.8009,-3.7614,-3.6829,-3.5799,-3.404,-3.2142,-3.0132,-3.0271,-3.1004,-3.2164,-3.2632,-3.3924,-3.5642,-3.5816,-3.6186,-3.6485,-3.513,-3.4131,-3.3404,-3.2627,-3.2886,-3.3648,-3.425,-3.5572,-3.6889,-3.6562,-3.6658,-3.6623,-3.5503,-3.4142,-3.2731,-3.1719,-3.079,-2.9919,-2.9085,-2.8892,-2.928,-3.0556,-3.1115,-3.1114,-3.0335,-2.9197,-2.8369,-2.8239,-2.7459,-2.6695,-2.6121,-2.5556,-2.4557,-2.2952,-2.2801,-2.3063,-2.357,-2.4341,-2.5083,-2.5681,-2.5558,-2.4986,-2.3896,-2.2649,-2.1452,-2.0395,-1.9593,-1.87,-1.7704,-1.7034,-1.6836,-1.7099,-1.7386,-1.8097,-1.9271,-2.2162,-2.4692,0.0,0.0,0.0,0.0,0.0,0.0,0.0,0.0,0.0,0.0,0.0,0.0,0.0,0.0,0.0,0.0,0.0,0.0,0.0,0.0,0.0,0.0,0.0,0.0,0.0,0.0,0.0,0.0,0.0,0.0,-3.7682,-3.9262,-3.9814,-3.9014,-3.7892,-3.6614,-3.5234,-3.5478,-3.602,-3.6834,-3.6647,-3.5949,-3.4856,-3.3156,-3.1351,-2.95,-2.8724,-2.9102,-3.0328,-3.1339,-3.3131,-3.5378,-3.6338,-3.7115,-3.7519,-3.6257,-3.52,-3.4254,-3.2812,-3.2652,-3.3123,-3.3401,-3.4679,-3.6162,-3.624,-3.6554,-3.6816,-3.6568,-3.5345,-3.3989,-3.3275,-3.2154,-3.0924,-2.9705,-2.9063,-2.8877,-2.9329,-2.945,-2.9329,-2.8957,-2.7764,-2.6963,-2.7348,-2.7017,-2.6542,-2.6084,-2.5702,-2.4823,-2.3014,-2.2509,-2.246,-2.2814,-2.3485,-2.4018,-2.424,-2.4324,-2.3739,-2.2271,-2.0882,-1.9541,-1.8107,-1.7143,-1.6288,-1.5492,-1.5372,-1.562,-1.623,-1.6687,-1.7553,-1.8903,-2.167,-2.3987,0.0,0.0,0.0,0.0,0.0,0.0,0.0,0.0,0.0,0.0,0.0,0.0,0.0,0.0,0.0,0.0,0.0,0.0,0.0,0.0,0.0,0.0,0.0,0.0,0.0,0.0,0.0,0.0,0.0,-3.7071,-3.8232,-4.0066,-4.0463,-3.9044,-3.7413,-3.6109,-3.5234,-3.5092,-3.5102,-3.5264,-3.544,-3.5116,-3.4251,-3.3139,-3.1661,-2.9963,-2.9525,-3.0033,-3.1159,-3.1082,-3.324,-3.6664,-3.7404,-3.7989,-3.8241,-3.7236,-3.6222,-3.4999,-3.2556,-3.213,-3.2644,-3.2394,-3.3411,-3.4922,-3.5791,-3.6269,-3.661,-3.7186,-3.6213,-3.4944,-3.4884,-3.3359,-3.1503,-3.0386,-2.9755,-2.9255,-2.8789,-2.8475,-2.8179,-2.7983,-2.6603,-2.5594,-2.6067,-2.6235,-2.6337,-2.6455,-2.6099,-2.535,-2.3983,-2.2912,-2.2198,-2.1921,-2.2297,-2.2263,-2.1491,-2.1831,-2.1305,-1.9503,-1.8389,-1.7118,-1.5576,-1.4602,-1.3933,-1.3505,-1.4143,-1.4764,-1.5358,-1.5999,-1.7081,-1.8599,-2.1006,-2.3183,-4.2282,0.0,0.0,0.0,0.0,0.0,0.0,0.0,0.0,0.0,0.0,0.0,0.0,0.0,0.0,0.0,0.0,0.0,0.0,0.0,0.0,0.0,0.0,0.0,0.0,0.0,0.0,0.0,-3.538,-3.6892,-3.7526,-3.9437,-4.022,-3.9601,-3.8175,-3.6836,-3.5506,-3.5141,-3.4965,-3.4841,-3.4389,-3.4144,-3.4137,-3.3122,-3.2556,-3.2293,-3.2592,-3.3262,-3.4099,-3.2539,-3.3535,-3.6205,-3.7245,-3.776,-3.7886,-3.7032,-3.5489,-3.362,-3.2283,-3.117,-3.0324,-3.022,-3.1112,-3.2385,-3.3136,-3.4347,-3.5648,-3.6296,-3.6155,-3.5669,-3.4842,-3.3015,-3.1315,-3.1044,-2.9618,-2.844,-2.8896,-2.7713,-2.6555,-2.6519,-2.5544,-2.4819,-2.5159,-2.5456,-2.569,-2.5762,-2.5895,-2.5411,-2.3675,-2.2652,-2.1878,-2.1318,-2.0629,-2.0045,-1.9638,-1.9194,-1.8246,-1.6549,-1.5711,-1.4601,-1.3037,-1.2923,-1.2853,-1.2717,-1.405,-1.5261,-1.6312,-1.701,-1.791,-1.9134,-2.1745,-2.3557,0.0,0.0,0.0,0.0,0.0,0.0,-2.4637,-2.3132,-2.1849,0.0,0.0,0.0,0.0,0.0,0.0,0.0,0.0,0.0,0.0,0.0,0.0,0.0,0.0,0.0,0.0,0.0,0.0,-3.2629,-3.4317,-3.601,-3.7678,-3.8993,-3.9615,-3.9505,-3.8598,-3.7534,-3.6319,-3.5886,-3.5678,-3.561,-3.5083,-3.4874,-3.4949,-3.4305,-3.4154,-3.4476,-3.4622,-3.52,-3.5903,-3.4029,-3.4382,-3.6115,-3.6538,-3.6567,-3.6319,-3.5684,-3.4209,-3.2332,-3.0869,-2.9689,-2.8829,-2.861,-2.9321,-3.0467,-3.1476,-3.2514,-3.3529,-3.466,-3.4865,-3.4516,-3.3581,-3.2298,-3.1095,-3.0843,-2.9647,-2.8655,-2.9028,-2.7664,-2.6286,-2.6011,-2.4873,-2.4042,-2.4244,-2.4672,-2.5102,-2.5542,-2.5747,-2.534,-2.3918,-2.2851,-2.1855,-2.0833,-1.9796,-1.8957,-1.8451,-1.747,-1.6311,-1.4933,-1.3988,-1.3067,-1.2038,-1.2186,-1.2587,-1.3157,-1.4596,-1.6359,-1.8355,-1.8265,-1.9013,-2.0472,-2.1881,-2.2803,0.0,0.0,0.0,0.0,0.0,0.0,-2.9947,-2.7003,-2.4759,-2.1426,0.0,0.0,0.0,0.0,0.0,0.0,0.0,0.0,0.0,0.0,0.0,0.0,0.0,0.0,0.0,-2.822,-2.968,-3.2076,-3.2993,-3.4877,-3.8035,-3.8362,-3.8629,-3.898,-3.8598,-3.8116,-3.7396,-3.7003,-3.6889,-3.6989,-3.6704,-3.6515,-3.642,-3.6087,-3.6131,-3.6384,-3.6039,-3.6226,-3.6732,-3.5304,-3.5269,-3.6071,-3.5372,-3.471,-3.402,-3.3554,-3.2472,-3.0945,-2.8895,-2.8073,-2.7827,-2.728,-2.7857,-2.896,-3.0282,-3.0575,-3.0885,-3.2542,-3.2636,-3.2195,-3.1772,-3.1263,-3.0736,-3.0284,-2.97,-2.926,-2.9144,-2.7958,-2.6749,-2.6121,-2.4601,-2.34,-2.3504,-2.3994,-2.4632,-2.5436,-2.5589,-2.5325,-2.4533,-2.3364,-2.2035,-2.0564,-1.9507,-1.8581,-1.7777,-1.6469,-1.5331,-1.4435,-1.3336,-1.2599,-1.2381,-1.2575,-1.3334,-1.468,-1.5877,-1.783,-2.0584,-1.9641,-2.0188,-2.2063,-2.1751,-2.1612,0.0,0.0,0.0,0.0,0.0,0.0,-3.966,-3.8526,-3.6626,0.0,0.0,0.0,0.0,0.0,0.0,0.0,0.0,0.0,0.0,0.0,0.0,0.0,0.0,0.0,0.0,-2.6487,-2.8261,-2.9897,-3.205,-3.4358,-3.6746,-3.659,-3.6909,-3.8117,-3.8143,-3.8139,-3.8009,-3.8071,-3.7993,-3.7697,-3.7288,-3.7316,-3.7712,-3.729,-3.729,-3.7729,-3.7621,-3.73,-3.6824,-3.5228,-3.48,-3.5063,-3.3918,-3.2878,-3.1955,-3.1508,-3.0341,-2.8845,-2.8258,-2.7428,-2.6605,-2.6228,-2.652,-2.7085,-2.7757,-2.8318,-2.8947,-3.0246,-3.0181,-2.9946,-3.0791,-3.0048,-2.9326,-3.0267,-2.9479,-2.8675,-2.9284,-2.7867,-2.6391,-2.6256,-2.4931,-2.3605,-2.3111,-2.3901,-2.4659,-2.4803,-2.5638,-2.5842,-2.4778,-2.3533,-2.2308,-2.116,-1.9407,-1.819,-1.7947,-1.6586,-1.5687,-1.549,-1.4906,-1.466,-1.4793,-1.5362,-1.6147,-1.7278,-1.839,-1.9333,-1.9962,-2.0309,-2.1234,-2.2603,-2.2223,-2.2039,0.0,0.0,0.0,-5.0808,0.0,0.0,0.0,-4.4366,-4.2267,-3.6879,0.0,0.0,0.0,0.0,0.0,0.0,0.0,0.0,0.0,0.0,0.0,0.0,0.0,0.0,0.0,-2.493,-2.7369,-2.9944,-3.1595,-3.325,-3.4987,-3.5185,-3.5602,-3.6383,-3.6941,-3.7346,-3.7648,-3.7675,-3.7924,-3.8346,-3.7833,-3.7621,-3.779,-3.72,-3.6997,-3.7048,-3.6385,-3.5645,-3.4848,-3.3219,-3.2148,-3.1531,-3.1283,-3.0387,-2.9201,-2.9141,-2.8306,-2.7175,-2.7175,-2.6802,-2.6281,-2.5933,-2.6027,-2.6312,-2.6408,-2.6662,-2.6982,-2.7305,-2.7519,-2.7811,-2.8544,-2.8489,-2.8474,-2.944,-2.9148,-2.8655,-2.8607,-2.7558,-2.6396,-2.5585,-2.4445,-2.3453,-2.3093,-2.3376,-2.3881,-2.4638,-2.498,-2.5083,-2.4964,-2.4104,-2.2995,-2.1607,-2.0166,-1.9232,-1.8995,-1.7538,-1.6802,-1.7062,-1.6521,-1.6301,-1.667,-1.7165,-1.7806,-1.8496,-1.8923,-1.9198,-1.94,-1.9545,-2.0436,-2.2085,-2.1691,-2.164,0.0,0.0,0.0,0.0,0.0,-5.128,0.0,0.0,0.0,0.0,0.0,0.0,0.0,0.0,0.0,0.0,0.0,0.0,0.0,0.0,0.0,0.0,0.0,0.0,0.0,-2.3961,-2.6987,-3.0547,-3.1273,-3.219,-3.3568,-3.395,-3.4267,-3.4515,-3.523,-3.5931,-3.6608,-3.6638,-3.7326,-3.8526,-3.797,-3.7531,-3.7142,-3.6432,-3.5779,-3.522,-3.3969,-3.2849,-3.1837,-3.0557,-2.9043,-2.7669,-2.857,-2.8054,-2.6775,-2.7114,-2.6849,-2.6358,-2.6468,-2.6715,-2.6888,-2.629,-2.6197,-2.6139,-2.5703,-2.5526,-2.5417,-2.492,-2.5249,-2.5892,-2.6403,-2.6861,-2.7393,-2.8187,-2.8433,-2.8277,-2.7601,-2.692,-2.6161,-2.4921,-2.3904,-2.3226,-2.3149,-2.2824,-2.302,-2.4393,-2.4193,-2.4113,-2.4734,-2.4227,-2.329,-2.1897,-2.1062,-2.0472,-2.0195,-1.8872,-1.8319,-1.8945,-1.8181,-1.7946,-1.8446,-1.8553,-1.8751,-1.8973,-1.8476,-1.8306,-1.8471,-1.8131,-1.9037,-2.1159,-2.098,-2.1133,0.0,0.0,0.0,0.0,-5.3789,0.0,0.0,0.0,-5.2382,-4.8567,0.0,0.0,0.0,0.0,0.0,0.0,0.0,0.0,0.0,0.0,0.0,0.0,0.0,0.0,0.0,0.0,-2.7638,-3.0231,-3.0858,-3.1742,-3.3347,-3.2528,-3.2346,-3.3002,-3.3137,-3.3717,-3.4888,-3.559,-3.6455,-3.7467,-3.717,-3.6609,-3.5891,-3.5055,-3.3751,-3.2164,-3.1412,-3.0108,-2.8459,-2.8075,-2.6967,-2.5577,-2.6799,-2.6758,-2.5956,-2.6341,-2.6867,-2.7334,-2.7313,-2.8027,-2.88,-2.7655,-2.7031,-2.6504,-2.5362,-2.5178,-2.515,-2.438,-2.4022,-2.4106,-2.5478,-2.5251,-2.5108,-2.6788,-2.6726,-2.6322,-2.6438,-2.5585,-2.4791,-2.4859,-2.3859,-2.2997,-2.2981,-2.2872,-2.297,-2.342,-2.3682,-2.3758,-2.356,-2.2904,-2.2325,-2.2079,-2.1058,-2.0623,-2.1186,-2.0268,-2.0053,-2.0989,-2.0127,-1.9866,-2.0446,-1.9832,-1.9298,-1.893,-1.777,-1.6974,-1.6625,-1.6359,-1.7659,-2.0282,-2.0883,-2.0822,0.0,0.0,0.0,0.0,0.0,0.0,-5.5882,0.0,-5.4453,0.0,0.0,0.0,0.0,0.0,0.0,0.0,0.0,0.0,0.0,0.0,0.0,0.0,0.0,0.0,0.0,0.0,0.0,0.0,0.0,-3.2187,-3.4012,-3.3135,-3.2581,-3.2629,-3.2439,-3.2601,-3.314,-3.3805,-3.452,-3.5269,-3.4933,-3.434,-3.3453,-3.2279,-3.0949,-2.9511,-2.8579,-2.7405,-2.6323,-2.6696,-2.6251,-2.548,-2.6813,-2.6518,-2.5365,-2.6067,-2.6909,-2.7734,-2.8459,-2.9385,-3.0048,-2.9257,-2.869,-2.8036,-2.6448,-2.6181,-2.6173,-2.5107,-2.4917,-2.5015,-2.5207,-2.4888,-2.4802,-2.5691,-2.5473,-2.5031,-2.4881,-2.4451,-2.3984,-2.3722,-2.3133,-2.273,-2.2935,-2.2727,-2.2705,-2.318,-2.2985,-2.284,-2.2948,-2.2605,-2.2207,-2.1809,-2.1174,-2.0764,-2.0642,-2.0048,-1.9946,-2.0589,-2.0052,-1.9609,-1.9339,-1.8786,-1.8095,-1.7211,-1.6202,-1.5532,-1.525,-1.5042,-1.5886,-1.7635,-1.9028,-1.998,-4.4204,0.0,0.0,0.0,0.0,0.0,0.0,0.0,0.0,0.0,0.0,0.0,0.0,0.0,0.0,0.0,0.0,0.0,0.0,0.0,0.0,0.0,0.0,0.0,0.0,0.0,0.0,-3.1612,-3.1963,-3.2886,-3.5058,-3.4024,-3.3196,-3.2816,-3.2207,-3.1925,-3.197,-3.2512,-3.3025,-3.3533,-3.3063,-3.2343,-3.1287,-2.9846,-2.8486,-2.7189,-2.6346,-2.5573,-2.4972,-2.5916,-2.6109,-2.6,-2.7374,-2.7192,-2.625,-2.6901,-2.7776,-2.8744,-2.9809,-3.0633,-3.1137,-3.0788,-3.0354,-2.9611,-2.7998,-2.7672,-2.76,-2.6088,-2.5873,-2.5833,-2.4726,-2.4193,-2.3918,-2.4107,-2.3905,-2.3606,-2.3384,-2.3403,-2.332,-2.2871,-2.2574,-2.2574,-2.3017,-2.2626,-2.2325,-2.2768,-2.2095,-2.1579,-2.1662,-2.1372,-2.0979,-2.0425,-2.011,-1.9783,-1.935,-1.9072,-1.8985,-1.9207,-1.8883,-1.8327,-1.7585,-1.707,-1.64,-1.5565,-1.4749,-1.4268,-1.4172,-1.4004,-1.4364,-1.5282,-1.7316,-1.8934,0.0,0.0,0.0,-4.8598,0.0,0.0,0.0,0.0,-5.6271,0.0,0.0,0.0,0.0,0.0,0.0,0.0,0.0,0.0,0.0,0.0,0.0,0.0,0.0,0.0,0.0,0.0,0.0,-3.2906,-3.2913,-3.388,-3.6406,-3.4856,-3.3787,-3.3579,-3.2293,-3.1646,-3.1731,-3.1969,-3.2394,-3.2817,-3.2088,-3.1076,-2.9833,-2.8407,-2.6872,-2.5296,-2.5246,-2.4879,-2.4442,-2.5727,-2.6495,-2.6885,-2.8232,-2.8991,-2.9349,-2.9367,-2.9991,-3.0836,-3.13,-3.1785,-3.2164,-3.2216,-3.1733,-3.0911,-2.9692,-2.951,-2.926,-2.7104,-2.6285,-2.5651,-2.3739,-2.2444,-2.1628,-2.1692,-2.1675,-2.1687,-2.2073,-2.2385,-2.2689,-2.2782,-2.2574,-2.2618,-2.3261,-2.2565,-2.1881,-2.1847,-2.086,-1.989,-1.9206,-1.8365,-1.776,-1.745,-1.7177,-1.711,-1.7266,-1.7338,-1.7259,-1.704,-1.6655,-1.6198,-1.5705,-1.4937,-1.4499,-1.4439,-1.3798,-1.3393,-1.3355,-1.3184,-1.3342,-1.3846,-1.6343,-1.7677,0.0,0.0,-4.4926,-4.65,0.0,0.0,0.0,0.0,0.0,0.0,0.0,0.0,0.0,0.0,0.0,0.0,0.0,0.0,0.0,0.0,0.0,0.0,0.0,0.0,0.0,0.0,0.0,-3.2581,-3.2878,-3.4174,0.0,-3.5788,-3.4838,-3.4594,-3.3816,-3.2916,-3.1832,-3.2606,-3.2653,-3.1994,-3.1403,-3.0477,-2.9277,-2.8172,-2.7272,-2.6672,-2.6861,-2.7185,-2.774,-2.8991,-2.9736,-3.0185,-3.1468,-3.1953,-3.1711,-3.0445,-3.0376,-3.0966,-3.1375,-3.1833,-3.2173,-3.184,-3.1617,-3.1247,-3.0238,-3.0102,-2.9965,-2.8225,-2.7448,-2.6629,-2.471,-2.3401,-2.2517,-2.2019,-2.1972,-2.1988,-2.219,-2.2454,-2.2617,-2.2403,-2.2132,-2.1991,-2.2229,-2.1888,-2.1534,-2.1491,-2.0533,-1.9379,-1.8011,-1.7265,-1.652,-1.5616,-1.4966,-1.4493,-1.4256,-1.4654,-1.4921,-1.4831,-1.5092,-1.5099,-1.4813,-1.4683,-1.4627,-1.4713,-1.4507,-1.4442,-1.4484,-1.4163,-1.4333,-1.4937,-1.5677,-1.6411,-4.1785,-4.2559,0.0,-4.5159,-4.7084,0.0,-5.0885,0.0,0.0,0.0,0.0,0.0,0.0,0.0,0.0,0.0,0.0,0.0,0.0,0.0,0.0,0.0,0.0,0.0,0.0,0.0,-3.0827,-3.3136,-3.2998,-3.4029,0.0,0.0,-3.6279,-3.6082,-3.5878,-3.5022,-3.3379,-3.392,-3.3475,-3.2122,-3.1529,-3.0639,-2.9472,-2.876,-2.8309,-2.8099,-2.8699,-2.951,-3.0468,-3.1478,-3.2154,-3.2665,-3.301,-3.2911,-3.2553,-3.1498,-3.088,-3.0574,-3.0802,-3.0876,-3.0834,-3.0622,-3.0477,-3.0194,-2.9441,-2.9329,-2.9238,-2.7988,-2.7261,-2.6582,-2.5092,-2.3977,-2.3047,-2.2633,-2.2636,-2.2695,-2.2612,-2.2887,-2.2884,-2.1968,-2.1644,-2.1423,-2.1069,-2.0713,-2.0594,-2.0731,-1.9886,-1.8629,-1.6926,-1.5861,-1.4843,-1.3684,-1.2836,-1.2204,-1.1964,-1.2585,-1.3025,-1.3274,-1.4179,-1.4705,-1.4744,-1.5204,-1.5533,-1.5717,-1.5746,-1.5836,-1.5906,-1.5517,-1.5491,-1.5767,-1.558,-1.579]},{"header":{"parameterUnit":"m.s-1","parameterCategory":1,"la1":30.6,"la2":29.2853,"lo1":-89.7004,"lo2":-87.6739,"dy":0.0162,"dx":0.0183,"nx":112,"ny":82,"refTime":"2023-03-21T06:00:00:Z","depth":0,"parameterNumber":3,"parameterNumberName":"V-component_of_WINDS"},"data":[0.0,0.0,0.0,0.0,0.0,0.0,0.0,0.0,0.0,0.0,0.0,0.0,0.0,0.0,0.0,0.0,0.0,0.0,0.0,0.0,0.0,0.0,0.0,0.0,0.0,0.0,0.0,0.0,0.0,0.0,0.0,0.0,0.0,0.0,0.0,0.0,0.0,0.0,0.0,0.0,0.0,0.0,0.0,0.0,0.0,0.0,0.0,0.0,0.0,0.0,0.0,0.0,0.0,0.0,0.0,0.0,0.0,0.0,0.0,0.0,0.0,0.0,0.0,0.0,0.0,0.0,0.0,0.0,0.0,0.0,0.0,0.0,0.0,0.0,0.0,0.0,0.0,0.0,0.0,0.0,0.0,0.0,0.0,0.0,0.0,0.0,0.0,0.0,0.0,0.0,2.4225,2.3395,2.2354,2.2213,2.3387,2.401,2.4921,2.6308,0.0,0.0,0.0,0.0,0.0,0.0,0.0,0.0,0.0,0.0,0.0,0.0,0.0,0.0,0.0,0.0,0.0,0.0,0.0,0.0,0.0,0.0,0.0,0.0,0.0,0.0,0.0,0.0,0.0,0.0,0.0,0.0,0.0,0.0,0.0,0.0,0.0,0.0,0.0,0.0,0.0,0.0,0.0,0.0,0.0,0.0,0.0,0.0,0.0,0.0,0.0,0.0,0.0,0.0,0.0,0.0,0.0,0.0,0.0,0.0,0.0,0.0,0.0,0.0,0.0,0.0,0.0,0.0,0.0,0.0,0.0,0.0,0.0,0.0,0.0,0.0,0.0,0.0,0.0,0.0,0.0,0.0,0.0,0.0,0.0,0.0,0.0,0.0,0.0,0.0,0.0,0.0,0.0,0.0,0.0,0.0,0.0,0.0,0.0,0.0,0.0,0.0,0.0,0.0,2.305,2.0883,2.0297,2.0759,2.2433,2.3251,2.4451,2.6291,0.0,0.0,0.0,0.0,0.0,0.0,0.0,0.0,0.0,0.0,0.0,0.0,0.0,0.0,0.0,0.0,0.0,0.0,0.0,0.0,0.0,0.0,0.0,0.0,0.0,0.0,0.0,0.0,0.0,0.0,0.0,0.0,0.0,0.0,0.0,0.0,0.0,0.0,0.0,0.0,0.0,0.0,0.0,0.0,0.0,0.0,0.0,0.0,0.0,0.0,0.0,0.0,0.0,0.0,0.0,0.0,0.0,0.0,0.0,0.0,0.0,0.0,0.0,0.0,0.0,0.0,0.0,0.0,0.0,0.0,0.0,0.0,0.0,0.0,0.0,0.0,0.0,0.0,0.0,0.0,0.0,0.0,0.0,0.0,0.0,0.0,0.0,0.0,0.0,0.0,0.0,0.0,0.0,0.0,0.0,0.0,0.0,0.0,0.0,0.0,0.0,0.0,0.0,2.5829,2.386,2.1232,2.0294,2.0448,2.1855,2.264,2.4115,2.6505,2.7375,0.0,0.0,0.0,0.0,0.0,0.0,0.0,0.0,0.0,0.0,0.0,0.0,0.0,0.0,0.0,0.0,0.0,0.0,0.0,0.0,0.0,0.0,0.0,0.0,0.0,0.0,0.0,0.0,0.0,0.0,0.0,0.0,0.0,0.0,0.0,0.0,0.0,0.0,0.0,0.0,0.0,0.0,0.0,0.0,0.0,0.0,0.0,0.0,0.0,0.0,0.0,0.0,0.0,0.0,0.0,0.0,0.0,0.0,0.0,0.0,0.0,0.0,0.0,0.0,0.0,0.0,0.0,0.0,0.0,0.0,0.0,0.0,0.0,0.0,0.0,0.0,0.0,0.0,0.0,0.0,0.0,0.0,0.0,0.0,0.0,0.0,0.0,0.0,0.0,0.0,0.0,0.0,0.0,0.0,0.0,0.0,0.0,0.0,0.0,0.0,0.0,0.0,2.692,2.5172,2.2528,2.1107,2.0659,2.127,2.2264,2.3883,2.6368,2.7579,0.0,0.0,0.0,0.0,0.0,0.0,0.0,0.0,0.0,0.0,0.0,0.0,0.0,0.0,0.0,0.0,0.0,0.0,0.0,0.0,0.0,0.0,0.0,0.0,0.0,0.0,0.0,0.0,0.0,0.0,0.0,0.0,0.0,0.0,0.0,0.0,0.0,0.0,0.0,0.0,0.0,0.0,0.0,0.0,0.0,0.0,0.0,0.0,0.0,0.0,0.0,0.0,0.0,0.0,0.0,0.0,0.0,0.0,0.0,0.0,0.0,0.0,0.0,0.0,0.0,0.0,0.0,0.0,0.0,0.0,0.0,0.0,0.0,0.0,0.0,0.0,0.0,0.0,0.0,0.0,0.0,0.0,0.0,0.0,0.0,0.0,0.0,0.0,0.0,0.0,0.0,0.0,0.0,0.0,0.0,0.0,0.0,0.0,0.0,0.0,0.0,0.0,2.867,2.6429,2.4029,2.2475,2.1259,2.052,2.2264,2.3914,2.5243,2.7285,0.0,0.0,0.0,0.0,0.0,0.0,0.0,0.0,0.0,0.0,0.0,0.0,0.0,0.0,0.0,0.0,0.0,0.0,0.0,0.0,0.0,0.0,0.0,0.0,0.0,0.0,0.0,0.0,0.0,0.0,0.0,0.0,0.0,0.0,0.0,0.0,0.0,0.0,0.0,0.0,0.0,0.0,0.0,0.0,0.0,0.0,0.0,0.0,0.0,0.0,0.0,0.0,0.0,0.0,0.0,0.0,0.0,0.0,0.0,0.0,0.0,0.0,0.0,0.0,0.0,0.0,0.0,0.0,0.0,0.0,0.0,0.0,0.0,0.0,0.0,0.0,0.0,0.0,0.0,0.0,0.0,0.0,0.0,0.0,0.0,0.0,0.0,0.0,0.0,0.0,0.0,0.0,0.0,0.0,0.0,0.0,0.0,0.0,0.0,0.0,0.0,0.0,3.3057,3.1263,0.0,2.599,2.4045,2.2813,2.2796,2.3528,2.5173,0.0,0.0,0.0,0.0,0.0,0.0,0.0,0.0,0.0,0.0,0.0,0.0,0.0,0.0,0.0,0.0,0.0,0.0,0.0,0.0,0.0,0.0,0.0,0.0,0.0,0.0,0.0,0.0,0.0,0.0,0.0,0.0,0.0,0.0,0.0,0.0,0.0,0.0,0.0,0.0,0.0,0.0,0.0,0.0,0.0,0.0,0.0,0.0,0.0,0.0,0.0,0.0,0.0,0.0,0.0,0.0,0.0,0.0,0.0,0.0,0.0,0.0,0.0,0.0,0.0,0.0,0.0,0.0,0.0,0.0,0.0,0.0,0.0,0.0,0.0,0.0,0.0,0.0,0.0,0.0,0.0,0.0,0.0,0.0,0.0,0.0,0.0,0.0,0.0,0.0,0.0,0.0,0.0,0.0,0.0,0.0,0.0,0.0,0.0,0.0,0.0,0.0,3.7721,3.7068,3.5539,0.0,2.9947,2.7491,2.5485,2.4302,2.4134,2.5176,0.0,0.0,0.0,0.0,0.0,0.0,0.0,0.0,0.0,0.0,0.0,0.0,0.0,0.0,0.0,0.0,0.0,0.0,0.0,0.0,0.0,0.0,0.0,0.0,0.0,0.0,0.0,0.0,0.0,0.0,0.0,0.0,0.0,0.0,0.0,0.0,0.0,0.0,0.0,0.0,0.0,0.0,0.0,0.0,0.0,0.0,0.0,0.0,0.0,0.0,0.0,0.0,0.0,0.0,0.0,0.0,0.0,0.0,0.0,0.0,0.0,0.0,0.0,0.0,0.0,0.0,0.0,0.0,0.0,0.0,0.0,0.0,0.0,0.0,0.0,0.0,0.0,0.0,0.0,0.0,0.0,0.0,0.0,0.0,0.0,0.0,0.0,0.0,0.0,0.0,0.0,0.0,0.0,0.0,0.0,0.0,0.0,0.0,0.0,0.0,0.0,0.0,4.1283,4.0365,3.8793,3.6583,3.4065,3.1356,2.8306,2.6959,2.5953,0.0,0.0,0.0,0.0,0.0,0.0,0.0,0.0,0.0,0.0,0.0,0.0,0.0,0.0,0.0,0.0,0.0,0.0,0.0,0.0,0.0,0.0,0.0,0.0,0.0,0.0,0.0,0.0,0.0,0.0,0.0,0.0,0.0,0.0,0.0,0.0,0.0,0.0,0.0,0.0,0.0,0.0,0.0,0.0,0.0,0.0,0.0,0.0,0.0,0.0,0.0,0.0,0.0,0.0,0.0,0.0,0.0,0.0,0.0,0.0,0.0,0.0,0.0,0.0,0.0,0.0,0.0,0.0,0.0,0.0,0.0,0.0,0.0,0.0,0.0,0.0,0.0,0.0,0.0,0.0,0.0,0.0,0.0,0.0,0.0,0.0,0.0,0.0,0.0,0.0,0.0,0.0,0.0,0.0,0.0,0.0,0.0,0.0,0.0,0.0,0.0,0.0,0.0,4.4795,4.4599,4.3607,4.1659,3.8896,3.6019,3.2986,3.0316,2.8459,2.7606,0.0,0.0,0.0,0.0,0.0,0.0,0.0,0.0,0.0,0.0,0.0,0.0,0.0,0.0,0.0,0.0,0.0,0.0,0.0,0.0,0.0,0.0,0.0,0.0,0.0,0.0,0.0,0.0,0.0,0.0,0.0,0.0,0.0,0.0,0.0,0.0,0.0,0.0,0.0,0.0,0.0,0.0,0.0,0.0,0.0,0.0,0.0,0.0,0.0,0.0,0.0,0.0,0.0,0.0,0.0,0.0,0.0,0.0,0.0,0.0,0.0,0.0,0.0,0.0,0.0,0.0,0.0,0.0,0.0,0.0,0.0,0.0,0.0,0.0,0.0,0.0,0.0,0.0,0.0,0.0,0.0,0.0,0.0,0.0,0.0,0.0,0.0,0.0,0.0,0.0,0.0,0.0,0.0,0.0,0.0,0.0,0.0,0.0,0.0,0.0,0.0,0.0,4.7376,4.7965,4.7502,4.5825,4.3492,4.0776,3.7818,3.4471,3.1796,3.0153,0.0,0.0,0.0,0.0,0.0,0.0,0.0,0.0,0.0,0.0,0.0,0.0,0.0,0.0,0.0,0.0,0.0,0.0,0.0,0.0,0.0,0.0,0.0,0.0,0.0,0.0,0.0,0.0,0.0,0.0,0.0,0.0,0.0,0.0,0.0,0.0,0.0,0.0,0.0,0.0,0.0,0.0,0.0,0.0,0.0,0.0,0.0,0.0,0.0,0.0,0.0,0.0,0.0,0.0,0.0,0.0,0.0,0.0,0.0,0.0,0.0,0.0,0.0,0.0,0.0,0.0,0.0,0.0,0.0,0.0,0.0,0.0,0.0,0.0,0.0,0.0,0.0,0.0,0.0,0.0,0.0,0.0,0.0,0.0,0.0,0.0,0.0,0.0,0.0,0.0,0.0,0.0,0.0,0.0,0.0,0.0,0.0,0.0,0.0,0.0,0.0,0.0,4.933,5.0623,5.0806,4.9392,4.7755,4.5606,4.2719,3.924,3.5975,3.3048,0.0,0.0,0.0,0.0,0.0,0.0,0.0,0.0,0.0,0.0,0.0,0.0,0.0,0.0,0.0,0.0,0.0,0.0,0.0,0.0,0.0,0.0,0.0,0.0,0.0,0.0,0.0,0.0,0.0,0.0,0.0,0.0,0.0,0.0,0.0,0.0,0.0,0.0,0.0,0.0,0.0,0.0,0.0,0.0,0.0,0.0,0.0,0.0,0.0,0.0,0.0,0.0,0.0,0.0,0.0,0.0,0.0,0.0,0.0,0.0,2.848,0.0,0.0,0.0,0.0,0.0,0.0,0.0,0.0,0.0,0.0,0.0,0.0,0.0,0.0,0.0,0.0,0.0,0.0,0.0,0.0,0.0,0.0,0.0,0.0,0.0,0.0,0.0,0.0,0.0,0.0,0.0,0.0,0.0,0.0,0.0,0.0,0.0,0.0,0.0,0.0,0.0,5.1621,5.3702,5.4384,5.2833,5.1539,4.9756,4.7186,4.3979,4.1033,3.8255,3.5256,0.0,0.0,0.0,0.0,0.0,0.0,0.0,0.0,0.0,0.0,0.0,0.0,0.0,0.0,0.0,0.0,0.0,0.0,0.0,0.0,0.0,0.0,0.0,0.0,0.0,0.0,0.0,0.0,0.0,0.0,0.0,0.0,0.0,0.0,0.0,0.0,0.0,0.0,0.0,0.0,0.0,0.0,0.0,0.0,0.0,0.0,0.0,0.0,0.0,0.0,0.0,0.0,0.0,0.0,0.0,0.0,0.0,0.0,0.0,0.0,3.0462,0.0,0.0,0.0,0.0,0.0,0.0,0.0,0.0,0.0,0.0,0.0,0.0,0.0,0.0,0.0,0.0,0.0,0.0,0.0,0.0,0.0,0.0,0.0,0.0,0.0,0.0,0.0,0.0,0.0,0.0,0.0,0.0,0.0,0.0,0.0,0.0,0.0,0.0,0.0,0.0,5.2346,5.5162,5.6416,5.5059,5.4825,5.3582,5.0933,4.8532,4.5879,4.2821,3.9539,0.0,0.0,0.0,0.0,0.0,0.0,0.0,0.0,0.0,0.0,0.0,0.0,0.0,0.0,0.0,0.0,0.0,0.0,0.0,0.0,0.0,0.0,0.0,0.0,0.0,0.0,0.0,0.0,0.0,0.0,0.0,0.0,0.0,0.0,0.0,0.0,0.0,0.0,0.0,0.0,0.0,0.0,0.0,0.0,0.0,0.0,0.0,0.0,0.0,0.0,0.0,0.0,0.0,4.2068,4.1341,4.0668,4.0102,3.9655,3.9238,3.6928,3.5382,3.4359,3.3249,0.0,0.0,0.0,0.0,0.0,0.0,0.0,0.0,0.0,0.0,0.0,0.0,0.0,0.0,0.0,0.0,0.0,0.0,0.0,0.0,0.0,0.0,0.0,0.0,5.9889,5.8162,0.0,0.0,0.0,0.0,0.0,0.0,0.0,0.0,0.0,0.0,0.0,0.0,5.2695,5.5826,5.7549,5.6818,5.7434,5.6826,5.4289,5.2697,5.0457,4.711,4.396,4.0835,0.0,0.0,0.0,0.0,0.0,0.0,0.0,0.0,0.0,0.0,0.0,0.0,0.0,0.0,0.0,0.0,0.0,0.0,0.0,0.0,0.0,0.0,0.0,0.0,0.0,0.0,0.0,0.0,0.0,0.0,0.0,0.0,3.8059,3.7386,0.0,0.0,0.0,0.0,0.0,0.0,0.0,0.0,0.0,0.0,0.0,0.0,0.0,4.3734,4.4102,4.601,4.6743,4.6346,4.7284,4.7321,4.6544,4.5778,4.4746,4.3573,4.3165,0.0,3.8146,3.7199,0.0,0.0,0.0,0.0,0.0,0.0,0.0,0.0,0.0,0.0,0.0,0.0,0.0,0.0,0.0,0.0,0.0,0.0,0.0,0.0,0.0,0.0,6.5918,6.5173,6.4514,6.3372,0.0,5.5427,5.0327,4.8711,4.7375,0.0,0.0,0.0,0.0,0.0,0.0,0.0,5.3917,5.6466,5.8173,5.8529,5.9007,5.8739,5.7266,5.6234,5.4436,5.1442,4.9228,4.6803,4.4191,4.1537,0.0,0.0,0.0,0.0,0.0,0.0,0.0,0.0,0.0,0.0,0.0,0.0,0.0,0.0,0.0,0.0,0.0,0.0,0.0,0.0,0.0,0.0,0.0,0.0,0.0,0.0,0.0,0.0,0.0,4.1076,4.1057,4.0988,3.9773,3.8703,0.0,0.0,0.0,0.0,0.0,0.0,0.0,0.0,0.0,4.6453,4.7339,4.7893,4.8112,4.9114,4.9226,4.8439,4.866,4.8309,4.7341,4.6596,4.5964,4.5343,4.5417,4.447,4.277,4.0789,4.0259,4.0691,0.0,0.0,0.0,0.0,4.4197,4.5078,4.6741,4.7724,0.0,4.9138,0.0,0.0,0.0,0.0,0.0,0.0,0.0,0.0,0.0,0.0,6.6229,6.6424,6.6076,6.556,6.5053,6.22,5.8518,0.0,5.3895,5.2554,4.8067,0.0,0.0,0.0,0.0,5.316,5.4466,5.7165,5.8774,5.8405,6.0168,6.0672,5.897,5.9038,5.8085,5.5571,5.374,5.1439,4.8652,4.5979,4.3539,0.0,0.0,0.0,0.0,0.0,0.0,0.0,0.0,0.0,0.0,0.0,0.0,0.0,0.0,0.0,0.0,0.0,0.0,0.0,0.0,0.0,0.0,0.0,0.0,0.0,0.0,0.0,0.0,4.4413,4.4297,4.4211,4.3627,4.2673,0.0,0.0,0.0,0.0,0.0,0.0,4.6777,4.7719,4.8676,4.9722,5.0567,5.107,5.1218,5.1289,5.0848,4.9844,4.922,4.8427,4.7402,4.6705,4.6424,4.6389,4.6566,4.6554,4.6283,4.3973,4.2989,4.2881,4.3074,4.3552,4.4246,4.5045,4.5806,4.6738,4.8752,5.0117,5.1153,5.2294,0.0,5.4679,5.4287,0.0,0.0,0.0,0.0,6.2682,6.4027,6.5144,6.6102,6.6677,6.672,6.6592,6.6592,6.6388,6.4757,0.0,5.9577,5.8473,5.2961,0.0,0.0,0.0,0.0,5.4792,5.5689,5.7786,5.901,5.8499,6.0741,6.1615,5.9958,6.0644,6.0297,5.8294,5.6954,5.5129,5.2526,5.0233,4.7942,4.5688,0.0,0.0,0.0,0.0,0.0,0.0,0.0,0.0,0.0,0.0,0.0,0.0,0.0,0.0,0.0,0.0,0.0,0.0,0.0,0.0,0.0,0.0,0.0,0.0,0.0,0.0,0.0,0.0,0.0,4.6225,4.7866,0.0,0.0,0.0,0.0,4.649,4.7587,4.8687,4.9642,5.0004,5.057,5.1551,5.1676,5.175,5.1775,5.1873,5.1478,5.0545,4.9936,4.9146,4.8197,4.7546,4.7218,4.7254,4.7385,4.7457,4.7449,4.6667,4.6458,4.6628,4.6878,4.7111,4.7334,4.7102,4.7415,4.8012,4.8146,4.8818,5.0183,5.3694,5.6322,5.824,5.9308,5.9572,0.0,0.0,6.3382,6.5067,6.6119,6.6534,6.6779,6.6812,6.677,6.677,6.677,6.6601,6.6067,0.0,6.3428,6.2048,6.001,0.0,5.7652,5.7248,5.6703,5.6871,5.823,5.827,5.8629,5.9787,6.0456,6.0612,6.0124,6.0535,6.02,5.8673,5.8455,5.7677,5.6201,5.4496,5.2655,5.0664,4.8226,0.0,0.0,0.0,0.0,0.0,0.0,0.0,0.0,0.0,0.0,0.0,0.0,0.0,0.0,0.0,0.0,0.0,0.0,0.0,0.0,0.0,0.0,0.0,0.0,0.0,0.0,0.0,0.0,4.9494,5.0647,0.0,4.8605,4.9808,5.0453,4.9825,5.0748,5.1505,5.1882,5.1983,5.2301,5.2882,5.2858,5.2654,5.2338,5.2291,5.1858,5.1108,5.0371,4.9619,4.8865,4.8109,4.7809,4.787,4.7972,4.7743,4.7328,4.729,4.7117,4.6864,4.655,4.6445,4.6499,4.6342,4.6255,4.6309,4.6672,4.7763,4.977,5.4671,5.7543,5.9433,6.0945,6.1766,6.2405,6.3348,6.4777,6.6042,6.6192,6.6516,6.6812,6.6812,6.6686,6.6635,6.677,6.6635,6.6482,6.6306,6.5578,6.4195,6.1735,6.1741,6.1317,5.9141,5.9409,5.9982,6.0153,6.0345,6.0185,5.9602,6.0789,6.1229,6.0353,6.1341,6.1588,6.0706,6.0641,6.0108,5.8936,5.7636,5.6049,5.41,5.178,4.9318,0.0,0.0,0.0,0.0,0.0,0.0,0.0,0.0,0.0,0.0,0.0,0.0,0.0,0.0,0.0,0.0,0.0,0.0,0.0,0.0,0.0,0.0,0.0,0.0,0.0,0.0,5.1493,5.1505,5.2908,5.3268,5.1741,5.2811,5.333,5.2706,5.296,5.3189,5.3228,5.3001,5.2943,5.3251,5.3204,5.3044,5.2761,5.2702,5.2324,5.1587,5.0763,5.0044,4.9365,4.8517,4.8209,4.84,4.8107,4.7758,4.7296,4.6954,4.6609,4.6342,4.6209,4.6152,4.599,4.5205,4.4714,4.4507,4.477,4.6306,4.8923,5.3591,5.6539,5.8796,6.1339,6.2685,6.3567,6.4476,6.5657,6.6618,6.641,6.6714,6.7057,6.6972,6.6718,6.6507,6.6558,6.6271,6.6204,6.6904,6.6728,6.5926,6.4095,6.4613,6.449,6.2233,6.2486,6.2778,6.2404,6.2307,6.1833,6.0625,6.1673,6.1952,6.0657,6.1424,6.1741,6.1198,6.111,6.087,6.0299,5.9169,5.8027,5.6874,5.4914,5.2861,5.0847,0.0,0.0,0.0,0.0,0.0,0.0,0.0,0.0,0.0,0.0,0.0,0.0,0.0,0.0,0.0,0.0,0.0,0.0,0.0,0.0,0.0,0.0,0.0,5.1603,5.2523,5.2994,5.222,5.4658,5.5518,5.3248,5.4727,5.5591,5.4955,5.4218,5.3748,5.3711,5.2951,5.2585,5.259,5.2739,5.285,5.298,5.3193,5.2888,5.2034,5.1189,5.0463,4.9806,4.8769,4.8476,4.875,4.781,4.7457,4.7433,4.5848,4.5212,4.5287,4.6104,4.6401,4.6112,4.394,4.3015,4.2821,4.2418,4.4354,4.7421,5.0402,5.3341,5.654,6.0486,6.2233,6.3199,6.4873,6.6057,6.6879,6.6912,6.7234,6.7507,6.7244,6.6839,6.6421,6.6139,6.5526,6.5353,6.6517,6.6946,6.7195,6.7435,6.7312,6.7029,6.6862,6.5842,0.0,6.497,6.4174,6.3432,6.2899,6.3069,6.2561,6.0984,6.0771,6.0514,5.9993,5.9828,5.9928,6.0377,5.9257,5.874,5.8998,5.7622,5.6816,5.6662,0.0,0.0,0.0,0.0,0.0,0.0,0.0,0.0,0.0,0.0,0.0,0.0,0.0,0.0,0.0,0.0,0.0,0.0,0.0,0.0,0.0,0.0,5.4184,5.4314,5.4518,5.4802,5.5131,5.599,5.6349,5.5773,5.6305,5.6386,5.574,5.5486,5.487,5.3748,5.3494,5.3106,5.2627,5.2739,5.285,5.298,5.3193,5.3228,5.3068,5.1587,5.0894,5.0879,4.9196,4.8606,4.8801,4.7935,4.7248,4.6702,4.5695,4.4581,4.3578,4.4358,4.4177,4.3339,4.2449,4.11,3.9778,4.0009,4.1565,4.3988,4.7213,5.0596,5.4114,5.7728,6.0263,6.2152,6.3518,6.4712,6.5766,6.6431,6.6568,6.6618,6.7066,6.6675,6.6182,6.6095,6.5397,6.5006,6.5632,6.5519,6.5773,6.7264,6.7435,6.7353,6.7312,6.6984,0.0,6.6508,6.6128,6.5416,6.4451,6.4243,6.355,6.1881,6.1509,6.1187,6.0768,6.0562,6.0913,6.201,6.1805,6.1704,6.1811,5.994,5.8614,0.0,0.0,0.0,0.0,0.0,0.0,0.0,0.0,0.0,0.0,0.0,0.0,0.0,0.0,0.0,0.0,0.0,0.0,0.0,0.0,0.0,0.0,5.598,5.62,5.6736,5.6247,5.6036,5.6501,5.66,5.651,5.6345,5.6727,5.6711,5.6066,5.5993,5.545,5.4255,5.3892,5.3383,5.2694,5.2761,5.2872,5.3082,5.3277,5.342,5.3481,5.1817,5.1138,5.1413,4.9455,4.8511,0.0,4.7536,4.6685,4.5918,4.4729,4.3674,0.0,0.0,0.0,0.0,0.0,3.9083,3.7718,3.7708,3.8775,4.0696,4.3994,4.7318,5.0929,5.5197,5.8414,6.0921,6.2658,6.4159,6.5463,6.6555,6.6645,6.6589,6.7235,6.6734,6.6052,6.5834,6.4904,6.4314,6.4991,6.4404,0.0,6.599,6.6752,6.7295,6.7684,6.7805,6.7731,6.7529,6.7488,6.708,6.6151,6.6076,6.526,6.3407,6.2892,0.0,0.0,0.0,6.1536,6.2362,6.2812,0.0,0.0,0.0,6.1608,0.0,0.0,0.0,0.0,5.5398,5.4162,0.0,0.0,0.0,0.0,0.0,0.0,0.0,0.0,0.0,0.0,0.0,0.0,0.0,0.0,0.0,0.0,5.7931,5.796,5.8713,5.7644,5.6839,5.6812,5.668,5.6366,5.578,5.6485,5.6685,5.6041,5.5968,5.5606,5.4798,0.0,0.0,0.0,0.0,5.2893,5.3124,5.3375,5.3481,5.3481,5.1856,5.125,5.1533,4.9527,4.8375,4.7943,4.6929,4.603,4.5175,4.3503,4.2625,4.2347,4.2316,4.1682,4.0516,3.8447,3.7103,3.6209,3.5699,0.0,0.0,4.0852,4.4004,4.749,5.271,5.6532,5.9568,6.1892,6.3811,6.5488,6.671,6.6858,6.6811,6.7314,6.6734,6.5922,6.5514,6.4365,6.3657,6.4404,6.3584,6.3105,6.4228,6.5682,6.6912,6.7699,6.8176,6.8323,6.8098,6.8323,6.8319,6.793,0.0,0.0,6.5181,6.4568,6.377,6.2537,6.2231,6.2176,6.2332,6.3111,6.3689,6.3885,6.4414,6.4823,6.5039,6.4347,6.3256,6.1704,5.818,5.6537,0.0,0.0,0.0,0.0,0.0,0.0,0.0,0.0,0.0,0.0,0.0,0.0,0.0,0.0,0.0,5.8135,5.8402,5.8517,5.8762,5.7721,5.6907,5.6803,5.668,5.6555,5.6438,5.6678,5.6557,5.5891,5.5844,5.5279,5.4001,5.3784,5.3336,5.2585,5.2731,5.2828,5.2872,5.3193,5.34,5.3481,0.0,0.0,5.1533,4.9527,4.8375,4.7943,4.6929,4.603,4.5175,4.3441,4.1736,4.0235,3.9972,3.9446,3.8654,3.7026,3.554,3.4409,3.4852,3.5054,3.5553,3.8398,4.1829,4.5582,4.9509,5.3974,0.0,6.0012,6.2205,6.4205,6.5171,6.5423,6.5598,6.6311,6.6145,6.578,6.547,6.4763,6.4078,6.3657,6.3031,6.2724,6.3384,6.5107,6.6416,6.6286,6.76,6.8496,6.8017,6.8508,6.8967,6.9008,6.8186,6.7304,6.6406,6.5121,6.4043,6.3309,6.3639,6.4053,6.4348,6.5345,6.5605,6.5016,6.5395,6.4882,6.3444,6.3378,6.2835,6.1784,6.0375,5.9384,0.0,0.0,0.0,0.0,0.0,0.0,0.0,0.0,0.0,0.0,0.0,5.6036,0.0,0.0,5.6823,5.7804,5.7657,5.7582,5.8172,5.7411,5.6803,5.6881,5.668,5.6376,5.6027,5.6402,5.64,5.5764,5.5768,5.5313,5.4207,5.3845,5.3336,5.2572,5.2717,5.2828,5.2893,5.3172,5.338,5.3481,5.1721,5.1138,5.1501,4.9509,4.8135,4.7266,4.6727,4.553,4.3849,4.1978,4.0272,3.8849,3.8349,3.7925,3.7411,3.5889,3.4835,3.414,3.3795,3.3779,3.4234,3.6418,3.9691,4.3469,4.7345,5.2109,5.6642,5.9104,6.1242,6.3162,6.4609,6.4854,6.4958,6.5943,6.6034,6.5736,6.547,6.4951,6.4308,6.3448,6.2804,6.2382,6.2468,6.3835,6.5141,6.5692,6.6841,6.7703,6.8034,6.8495,6.8815,6.8889,6.85,6.7689,6.6425,6.5057,6.3995,6.3385,6.38,6.4143,6.4417,6.5292,6.5478,6.486,6.5316,6.4765,6.3088,6.3486,6.3241,6.2398,6.188,6.0968,0.0,0.0,0.0,0.0,0.0,0.0,0.0,0.0,5.988,5.8648,5.8725,5.8517,5.6698,5.6648,5.6903,5.7048,5.649,5.6219,5.6865,5.6387,5.6169,5.6635,5.6519,5.6187,5.5651,5.6152,5.6304,5.561,5.5641,5.5346,5.4434,5.3942,5.3336,5.2581,5.2717,5.285,5.2937,5.3172,5.3265,5.3202,5.1607,5.0988,5.1172,4.9398,4.7878,4.6568,4.6025,4.448,4.2257,4.043,3.8935,3.7766,3.7248,3.6705,3.6153,3.4959,3.4351,3.3892,3.2716,3.2681,3.3374,3.4785,3.7729,4.1445,4.558,5.0321,5.497,5.8146,6.0384,6.2171,6.379,6.4203,6.4477,6.5397,6.5667,6.5603,6.5425,6.5138,6.4604,6.3524,6.2818,6.2324,6.1795,6.2575,6.3747,6.5176,6.6009,6.6869,6.7901,6.8292,6.8505,6.854,6.854,6.7763,6.5899,6.4762,6.3928,6.3448,6.3551,6.3723,6.3866,6.4507,6.4619,6.4122,6.4614,6.4325,6.3173,6.3646,6.3632,6.3142,6.2961,6.2054,4.388,4.8306,5.3708,6.1227,6.1432,6.1652,0.0,0.0,6.5616,6.4714,6.4162,6.289,5.9805,5.8795,5.7827,5.5858,5.5417,5.5108,5.4425,5.4009,5.4201,5.5443,5.607,5.6347,5.6303,5.6374,5.6143,5.5453,5.5444,5.4927,5.3712,5.3556,5.3195,5.2539,5.2708,5.2806,5.2828,5.3082,5.2884,5.2254,5.1287,5.0634,5.0228,4.9121,4.7878,4.6478,4.4156,4.2442,4.1272,4.0097,3.8508,3.6839,3.6828,3.572,3.4124,3.4599,3.3689,3.2175,3.1931,3.2178,3.2721,3.3427,3.6216,3.995,4.3744,4.8149,5.252,5.5981,5.8943,6.1173,6.1334,6.27,6.397,6.3662,6.44,6.5234,6.5381,6.5537,6.5203,6.3624,6.3378,6.3091,6.1903,6.2138,6.2756,6.3695,6.535,6.6696,6.7306,6.8011,6.8576,6.8752,6.8011,6.6847,6.5227,6.4643,6.4337,6.4266,6.3743,6.3535,6.3723,6.3944,6.3768,6.3184,6.3334,6.3297,6.304,6.3083,6.33,6.3645,6.3615,6.3173,4.1224,4.869,0.0,0.0,6.4239,6.6605,6.9625,6.932,6.7889,6.6038,6.4839,6.2959,5.9202,5.7704,5.6254,0.0,5.3346,5.3003,5.2201,5.2232,5.2418,5.2729,5.3584,5.4734,5.6146,5.6328,5.6267,5.6,5.5615,5.5183,5.464,5.3891,5.3364,5.3086,5.2881,5.2806,5.2806,5.306,5.2847,5.2086,5.1313,5.0618,4.9989,4.9156,4.7947,4.6376,4.3283,4.1677,4.1056,3.9402,3.794,3.6697,3.6677,3.5238,3.3214,3.3484,3.2677,3.1446,3.1058,3.0913,3.1077,3.2044,3.4421,3.7608,4.1105,4.5815,5.0632,5.3903,5.698,5.9413,6.0009,6.1422,6.273,6.2816,6.3963,6.5144,6.5234,6.5603,6.5434,6.3657,6.3572,6.3325,6.1936,6.1779,6.2229,6.342,6.4483,6.551,6.6531,6.7126,6.7509,6.7712,6.6766,6.5711,6.4713,6.4095,6.3547,6.3213,6.2363,6.193,6.2027,6.2051,6.2057,6.2004,6.2176,6.2506,6.3011,6.3329,6.3794,6.4337,6.4189,6.3979,3.842,0.0,0.0,5.8831,6.3876,6.7976,6.9332,6.9743,6.92,6.6849,6.5302,6.3078,5.8815,5.706,5.5312,5.2387,5.178,5.1257,5.0172,5.0328,5.0588,5.0592,5.135,5.2764,5.5016,5.5699,5.6007,5.6007,5.5821,5.558,5.5418,5.4547,5.3976,5.382,5.3367,5.3111,5.3111,5.3191,5.2737,5.1731,5.13,5.0546,4.9584,4.867,4.7512,4.6025,4.2823,4.1329,4.1056,3.8955,3.7405,3.6323,3.6341,3.4772,3.2413,3.2466,3.187,3.0958,3.0386,3.0049,3.0068,3.0936,3.2899,3.5588,3.8729,4.3395,4.8288,5.1654,5.4735,5.7385,5.8542,6.0192,6.1695,6.2041,6.3524,6.493,6.5054,6.5647,6.5531,6.3667,6.3666,6.3533,6.1977,6.1751,6.2059,6.3039,6.3718,6.4637,6.6072,6.6518,6.6785,6.6916,6.5942,6.5101,6.4699,6.3736,6.3013,6.2628,6.1294,6.0588,6.0612,6.0434,6.0552,6.1064,6.1235,6.196,6.3279,6.3674,6.4315,6.5068,6.4884,6.482,0.0,0.0,4.5666,5.4773,5.9139,6.2808,6.9056,7.0559,7.009,6.8153,6.667,6.4362,5.998,5.8052,5.5922,5.202,5.1203,5.0319,4.828,4.8162,4.8687,4.9715,4.9954,5.0799,0.0,5.4141,5.5051,5.5051,5.5864,5.608,5.5453,5.5476,5.5245,5.4614,5.4179,5.395,5.395,5.3534,5.2484,5.0839,5.1061,5.0287,4.8587,4.7256,4.6233,4.5286,4.2656,4.1391,4.1056,3.8955,3.7013,3.5364,3.5715,3.4017,3.1496,3.1819,3.1419,3.0637,3.0004,2.9979,3.019,3.0227,3.1789,3.4193,3.7106,4.0952,4.5155,4.9116,5.2478,5.5218,5.6617,5.8999,6.1053,6.1104,6.2751,6.4472,6.5008,6.5647,6.5531,6.3667,6.3835,6.374,6.2018,6.207,6.231,6.2164,6.3155,6.4495,6.6173,6.655,6.6718,6.6718,6.5876,6.5316,6.528,6.3992,6.3262,6.3346,6.1206,6.0009,6.011,5.943,5.9478,6.0408,6.0547,6.17,6.3866,6.3902,6.4542,6.5768,6.5768,6.5768,0.0,0.0,3.836,4.5976,5.2114,5.7715,6.3245,6.6284,6.7583,6.6517,6.5163,6.3152,6.0001,5.7527,5.4953,5.1662,5.0549,4.9261,4.6926,4.6625,4.6764,4.7073,4.7305,0.0,0.0,0.0,0.0,5.4917,5.5292,5.565,5.6044,5.5255,5.4691,5.4464,5.3647,5.3184,5.3184,5.3277,5.2447,5.0802,4.9915,4.9027,4.8157,4.7073,4.619,4.5341,4.3289,4.1949,4.1151,3.9703,3.7597,3.5414,3.572,3.4168,3.172,3.2029,3.1495,3.0468,2.9831,2.9135,2.8712,2.9282,3.0377,3.1956,3.4473,3.822,4.2276,4.5629,4.9427,5.2762,5.4209,5.6854,5.9166,5.9348,6.0944,6.271,6.3701,6.4068,6.4052,6.3415,6.3308,6.2889,6.1714,6.1547,6.1809,6.2391,6.317,6.4215,6.5597,6.5835,6.5966,6.6225,6.5882,6.5462,6.5019,6.4086,6.3387,6.2934,6.1621,6.0568,6.0003,5.9803,5.9852,6.0195,6.0483,6.17,6.3902,6.3902,6.4542,6.5804,6.564,6.539,0.0,2.5107,3.0081,3.6698,4.3515,5.0122,5.6205,6.0333,6.2968,6.317,6.2544,6.1189,5.8571,5.6814,5.4621,5.1214,5.0322,4.9009,4.6007,4.5768,4.5813,4.5525,4.5929,4.6717,0.0,0.0,0.0,5.3485,5.4445,5.5229,5.5955,5.5229,5.4845,5.4845,5.3806,5.3221,5.3221,5.3319,5.2589,5.1042,4.9381,4.8209,4.75,4.6893,4.6066,4.5021,4.3513,4.2284,4.1265,4.0093,3.7934,3.5393,3.5581,3.409,3.1853,3.1993,3.1443,3.0497,2.9589,2.8732,2.8147,2.8678,2.9574,3.0905,3.3096,3.6347,3.9923,4.289,4.6599,5.0035,5.2107,5.498,5.7457,5.8208,5.9839,6.1459,6.245,6.2867,6.2957,6.2725,6.2605,6.2291,6.131,6.1113,6.135,6.2174,6.2927,6.3897,6.5275,6.551,6.5672,6.5895,6.5582,6.5224,6.4808,6.3872,6.3137,6.2839,6.1681,6.0741,6.0146,5.986,5.9852,6.0195,6.0624,6.1731,6.3471,6.3758,6.4315,6.5104,6.4979,6.4724,1.6418,1.8051,2.1109,2.7356,3.3607,4.0312,4.8147,5.2985,5.6383,5.8318,5.9012,5.8509,0.0,0.0,5.484,5.0684,5.0525,4.9535,4.5597,4.5458,4.5534,0.0,0.0,0.0,0.0,0.0,0.0,5.0972,0.0,5.4906,5.525,5.5434,5.5554,5.5554,5.4495,5.395,5.395,5.3566,5.2731,5.1468,4.9528,4.7913,4.6694,4.6694,4.5844,4.436,4.3378,4.2396,4.1415,4.0198,3.7987,3.539,3.5204,3.3794,3.1912,3.1691,3.1259,3.0643,2.9291,2.8694,2.8517,2.846,2.9442,3.0998,3.2935,3.5456,3.8216,4.0946,4.3966,4.7053,5.016,5.3166,5.5869,5.7554,5.9301,6.0659,6.1299,6.195,6.2245,6.159,6.1848,6.1796,6.0826,6.0758,6.0969,6.1359,6.2217,6.3449,6.5006,6.5542,6.5768,6.5732,6.5054,6.4617,6.4696,6.3334,6.2658,6.2939,6.1384,6.0528,6.0593,5.9661,5.9542,6.0372,6.1021,6.1781,6.2716,6.3471,6.3866,6.3902,6.3902,6.3866,1.5225,1.4774,1.5465,1.9538,2.5276,3.1775,3.8752,4.4598,4.9511,5.2762,5.424,5.4665,0.0,0.0,0.0,5.0632,4.9898,0.0,4.565,4.4298,0.0,4.2758,0.0,4.3395,4.5277,4.6304,0.0,0.0,5.2556,5.4551,5.5999,5.5193,5.4701,5.4701,5.366,5.3111,5.3111,5.2024,5.1484,5.1416,4.9491,4.7913,4.6694,4.6694,4.5911,4.4454,4.4086,4.3044,4.1542,4.0967,3.8745,3.5688,3.5393,3.3969,3.2091,3.1912,3.1523,3.0897,2.9506,2.9083,2.9143,2.8938,3.0064,3.1785,3.3464,3.5256,3.711,3.8844,4.1593,4.4403,4.6278,4.9655,5.2976,5.4666,5.6482,5.8274,5.983,6.0141,6.0344,6.1054,6.1033,6.0656,6.0059,5.975,5.9773,6.0389,6.0798,6.1812,6.3921,6.4992,6.5394,6.4951,6.4733,6.422,6.3304,6.2873,6.2551,6.2285,6.1823,6.129,6.0629,6.0935,6.0852,6.0436,6.1135,6.1897,6.2716,6.2896,6.3327,6.3902,6.3902,6.3579,1.5219,1.3532,1.2974,1.5413,1.9561,2.4712,3.0943,3.6849,4.21,4.6008,4.8651,0.0,0.0,0.0,0.0,0.0,0.0,0.0,4.6109,4.4077,4.2594,0.0,4.1517,0.0,4.3416,4.4775,4.655,0.0,5.1771,5.4131,5.5785,5.4942,5.4389,5.4389,5.337,5.2893,5.3109,5.1552,5.102,5.1379,4.9491,4.7932,4.6669,4.6669,4.5866,4.444,0.0,4.3469,4.2099,4.1446,3.9475,3.6789,3.5827,3.4405,3.2844,3.2284,3.1784,3.1133,2.9461,2.9192,2.9539,2.9143,3.0242,3.2057,3.397,3.5405,3.663,3.7633,3.9563,4.1647,4.3362,4.642,4.9805,5.2677,5.4616,5.6372,5.8481,5.8864,5.9113,6.0126,5.9772,5.9199,5.9013,5.8674,5.854,5.8808,5.9661,6.0807,6.2257,6.3692,6.446,6.4255,6.3836,6.3326,6.2664,6.1924,6.1545,6.1784,6.1487,6.1271,6.1135,6.1428,6.1314,6.0826,6.153,6.2018,6.2242,6.2536,6.281,6.3062,6.3062,6.2839,1.6331,1.4028,1.2916,1.4058,1.6225,1.9524,2.4925,3.0188,3.5048,3.9139,0.0,4.5216,4.4502,4.8918,5.1442,4.7619,0.0,4.9433,4.6476,4.4072,4.2282,4.1434,4.1001,4.1088,4.191,4.3488,4.5239,4.7111,5.0549,5.326,5.4972,5.4613,5.4327,5.432,5.3321,5.3023,5.3481,5.1674,5.1001,5.1361,4.9473,4.7898,4.6589,4.6605,4.5805,4.4368,4.4259,0.0,4.2813,4.1656,4.0068,3.817,3.6311,3.4888,3.3702,3.2685,3.2,3.1385,2.9464,2.9286,2.9783,2.9156,3.0236,3.218,3.4485,3.5819,3.663,3.7022,3.7919,3.9161,4.0899,4.3436,4.6559,5.0759,5.2978,5.4774,5.7105,5.7917,5.8441,5.9152,5.8498,5.7897,5.7865,5.7549,5.7173,5.6953,5.8346,5.9604,6.0046,6.1976,6.3341,6.3315,6.2719,6.226,6.2165,6.0831,6.0431,6.1394,6.0883,6.0896,6.1784,6.1501,6.1357,6.1386,6.192,6.2015,6.1651,6.2271,6.2385,6.1978,6.2005,6.2087,1.9431,1.7023,1.5356,1.563,1.6603,1.8553,2.2502,2.6438,0.0,0.0,0.0,4.1003,4.2186,4.5672,4.7995,4.6788,0.0,0.0,0.0,0.0,4.1141,0.0,0.0,0.0,0.0,0.0,0.0,0.0,0.0,5.06,5.4253,5.4125,5.3913,5.388,5.3204,5.3023,5.3481,5.1674,5.0944,5.1232,4.9455,4.7863,4.6508,4.6573,4.5758,4.4296,4.4244,0.0,4.2723,4.164,4.0131,3.835,3.6359,3.4954,3.3906,3.2685,3.2038,3.1675,3.0441,2.9899,2.9719,2.9122,3.0525,3.2857,3.481,3.6357,3.7251,3.6675,3.7315,3.8135,3.8061,4.0544,4.3891,4.7013,5.0294,5.3317,5.5577,5.7385,5.8655,5.8972,5.8441,5.7724,5.7192,5.622,5.5384,5.4882,5.5487,5.6254,5.7019,6.0536,6.2537,6.1412,6.1889,6.1765,6.0444,6.0511,6.0855,6.1292,6.1214,6.1329,6.1756,6.1651,6.1587,6.17,6.1702,6.1731,6.1792,6.1873,6.1984,6.1978,6.2114,6.2195,2.2272,2.0222,1.8702,1.8368,1.8695,1.9613,2.1782,0.0,0.0,0.0,0.0,3.7449,3.8466,0.0,0.0,0.0,0.0,0.0,0.0,0.0,0.0,0.0,0.0,0.0,0.0,0.0,0.0,0.0,0.0,4.7132,5.2048,5.3238,5.3524,5.2976,5.3222,5.3317,5.34,5.1654,5.0925,5.1157,4.9381,4.805,4.704,4.6628,4.5871,4.4841,4.4318,0.0,4.3416,4.1909,4.0762,3.9632,3.688,3.5351,3.4562,3.316,3.2315,3.179,3.1279,3.0499,2.9782,2.9919,3.0925,3.2489,3.4703,3.6547,3.7642,3.6972,3.7295,3.7567,3.6628,3.8231,4.1006,4.4484,4.9347,5.3793,5.5947,5.7387,5.8381,5.8882,5.8339,5.7471,5.6682,5.5782,5.4783,5.3789,5.3896,5.4468,5.5513,5.7827,5.9439,5.9698,6.0136,6.0243,5.9834,5.9615,5.9905,6.0873,6.0642,6.0782,6.1494,6.1473,6.1501,6.1708,6.1651,6.168,6.1784,6.1304,6.1387,6.1978,6.1652,6.1759,2.4652,2.3083,2.1908,2.1425,2.1263,2.1461,2.2211,2.4183,0.0,0.0,3.179,3.4422,3.521,0.0,4.2462,0.0,0.0,0.0,0.0,0.0,0.0,0.0,0.0,0.0,0.0,0.0,0.0,0.0,0.0,0.0,4.9879,5.2129,5.2927,5.2209,5.2954,5.3313,5.3193,5.1756,5.1069,5.1101,4.9547,4.8366,4.7512,4.6678,4.5947,4.526,4.4294,0.0,0.0,4.2031,4.1066,4.0439,3.7166,3.5495,3.4781,3.3482,3.2631,3.2165,3.2195,3.1455,3.0572,3.094,3.1133,3.1645,3.4311,3.6316,3.7682,3.7445,3.7579,3.7417,3.6162,3.6751,3.8832,4.3155,4.8885,5.3958,5.6081,5.7276,5.8104,5.8746,5.8204,5.7325,5.6461,5.555,5.4419,5.2881,5.2548,5.285,5.3811,5.453,5.5637,5.7346,5.8267,5.8823,5.9147,5.8757,5.9027,6.026,6.0058,6.0333,6.1263,6.1357,6.1473,6.1672,6.1708,6.1628,6.1532,6.0807,6.0791,6.1389,6.0783,6.0979,2.6263,2.4975,2.4001,2.4157,2.3773,2.3437,2.3873,0.0,0.0,2.7524,2.9656,3.1879,3.4188,3.6008,3.8022,0.0,0.0,0.0,0.0,0.0,0.0,0.0,0.0,0.0,0.0,0.0,0.0,0.0,0.0,0.0,4.8893,5.0605,5.1633,5.2077,5.2054,5.2257,5.2828,5.2096,5.1458,5.0927,5.0119,4.8901,4.7297,4.6539,4.5779,4.4983,4.3965,0.0,0.0,4.155,4.0353,3.9438,3.6558,3.4774,3.3671,3.3188,3.3101,3.3259,3.3378,3.3356,3.3004,3.1695,3.0732,3.0605,3.357,3.56,3.7015,3.7776,3.81,3.7869,3.6789,3.6712,3.8329,4.384,4.833,5.2002,5.4315,5.646,5.8058,5.8564,5.8069,5.737,5.667,5.5257,5.3596,5.1726,5.0709,5.0242,5.0371,5.0925,5.1943,5.361,5.6746,5.8396,5.7619,5.8496,5.9223,5.9512,6.0149,6.0752,6.1299,6.1473,6.1708,6.195,6.195,6.1534,6.0702,6.0602,6.0187,5.9456,5.9618,5.9776,2.7821,2.6949,2.6248,2.6139,2.5848,2.5535,2.5254,0.0,0.0,2.6719,2.8387,3.0326,3.2179,3.3377,3.5145,0.0,0.0,0.0,0.0,0.0,0.0,0.0,0.0,0.0,0.0,0.0,0.0,0.0,0.0,0.0,4.3577,4.7232,4.9289,4.9465,5.0704,5.1546,5.191,5.0875,5.0395,5.0467,4.8676,4.7546,4.6945,4.5496,4.4655,4.4327,4.3266,0.0,0.0,4.0813,3.9782,3.9115,3.6006,3.4469,3.3959,3.3412,3.3599,3.4273,3.5216,3.5108,3.4478,3.3966,3.2321,3.0882,3.2528,3.4654,3.6692,3.7614,3.8629,3.9031,3.7459,3.7245,3.8559,4.2751,4.642,4.9786,5.275,5.4882,5.6432,5.7204,5.7115,5.6702,5.6046,5.5257,5.3931,5.1514,5.0393,4.9618,4.8973,4.9264,5.0257,5.2127,5.478,5.6567,5.712,5.8101,5.886,5.9254,5.9663,6.0296,6.1117,6.1013,6.1232,6.1978,6.1978,6.1525,6.0593,6.0042,5.9564,5.9213,5.8897,5.9056,2.8727,2.8309,2.8016,2.7978,2.7832,2.7512,0.0,0.0,2.6736,2.6445,2.7659,2.9211,3.0506,3.1372,3.2882,0.0,0.0,0.0,0.0,0.0,0.0,0.0,0.0,0.0,0.0,0.0,0.0,0.0,0.0,0.0,3.9296,4.3008,4.5504,4.6369,4.8233,4.943,4.989,4.9144,4.8924,4.9176,4.7477,4.65,4.6101,4.4504,4.3647,4.3325,4.2186,0.0,0.0,3.9961,3.9126,3.8502,3.5849,3.4542,3.4147,3.3976,3.4442,3.5347,3.6842,3.692,3.6288,3.5978,3.4092,3.1995,3.1828,3.353,3.5729,3.7166,3.8843,3.987,3.8215,3.7899,3.8657,4.1426,4.4343,4.7401,5.0696,5.3064,5.4882,5.596,5.6391,5.6419,5.5718,5.5418,5.4376,5.163,5.0306,4.916,4.7796,4.7719,4.8433,5.0114,5.2059,5.4157,5.6487,5.7464,5.8213,5.8905,5.9239,5.9774,6.0648,6.044,6.068,6.1616,6.1643,6.1163,6.0232,5.9574,5.8961,5.8357,5.7971,5.8352,2.8758,2.8946,2.9237,2.9816,2.9647,2.9168,0.0,0.0,2.7373,2.6716,2.736,2.833,2.951,2.9988,3.1199,3.4158,0.0,0.0,0.0,0.0,0.0,0.0,0.0,0.0,0.0,0.0,0.0,0.0,0.0,0.0,3.7362,3.8173,4.0052,4.316,4.4301,4.5415,4.6554,4.7002,4.7149,4.6946,4.7036,4.6263,4.4703,4.3874,4.2928,0.0,0.0,0.0,0.0,3.9103,3.8294,3.7506,3.6276,3.4964,3.3905,3.4856,3.5711,3.6603,3.8131,3.8906,3.8898,3.7172,3.5587,3.3929,3.167,3.2075,3.3815,3.6551,3.8755,4.0095,3.9234,3.8418,3.8338,4.0206,4.2312,4.4759,4.7886,5.1083,5.3791,5.5158,5.6214,5.6669,5.5933,5.5634,5.4602,5.2083,5.0179,4.8377,4.6559,4.5895,4.6015,4.6943,4.8494,5.1157,5.5344,5.6557,5.7458,5.8273,5.9016,5.9466,5.9716,5.9828,6.0167,6.0774,6.0801,6.0358,5.9393,5.9393,5.8385,5.6446,5.668,5.7597,2.9189,2.8962,2.8661,2.8543,2.8587,2.8522,2.7962,0.0,2.7561,2.7374,2.7198,2.746,2.8756,2.8587,2.9546,3.3639,3.4135,0.0,0.0,0.0,0.0,0.0,0.0,0.0,0.0,0.0,0.0,0.0,0.0,0.0,3.6774,3.6884,3.8086,4.0544,4.192,4.3057,4.404,4.4294,4.4577,4.4928,4.4035,4.3166,4.2264,4.1104,3.9987,0.0,0.0,0.0,0.0,3.8107,3.787,3.7858,3.6366,3.5454,3.5093,3.5624,3.6435,3.7451,3.8767,3.9522,3.9711,3.8345,3.6878,3.5257,3.2767,3.2484,3.3752,3.727,3.8956,3.9827,4.0343,3.9413,3.8558,3.9421,4.0631,4.2339,4.5127,4.8021,5.0744,5.2688,5.4128,5.4931,5.4879,5.4517,5.3732,5.2144,5.0642,4.8881,4.6578,4.5879,4.5712,4.5995,4.7093,4.9425,5.351,5.5024,5.6253,5.7394,5.7706,5.8178,5.8973,5.8567,5.8813,5.9817,5.9844,5.942,5.8572,5.8493,5.7819,5.668,5.6786,5.7206,0.0,2.8669,2.8146,2.7864,2.7815,0.0,0.0,0.0,2.792,2.801,2.7501,2.7346,2.825,2.7921,2.8671,3.205,3.2699,0.0,0.0,0.0,0.0,0.0,0.0,0.0,0.0,0.0,0.0,0.0,0.0,0.0,3.6439,3.6022,3.647,3.8014,3.9064,3.9936,4.0661,4.094,4.1411,4.214,4.1437,4.0789,4.0121,3.9351,3.8259,0.0,0.0,0.0,0.0,3.7435,3.7779,3.8335,3.7246,3.6665,3.6483,3.667,3.7129,3.785,3.888,3.9643,4.0055,3.9254,3.7532,3.5353,3.3502,3.2839,3.3427,3.6673,3.8428,3.9732,4.1283,4.0603,3.9508,3.9625,3.9913,4.0653,4.2527,4.5153,4.7893,5.0241,5.2182,5.3627,5.4179,5.3965,5.3387,5.244,5.1016,4.9388,4.7318,4.6204,4.5455,4.5126,4.5601,4.7161,5.0226,5.2566,5.462,5.6223,5.6411,5.694,5.7981,5.7555,5.7803,5.8853,5.8907,5.8743,5.8254,5.7782,5.728,5.6812,5.6829,5.6891,0.0,0.0,0.0,0.0,0.0,0.0,0.0,0.0,0.0,2.8611,2.8307,2.7981,2.8203,2.8136,2.8568,3.0145,3.1546,0.0,0.0,0.0,0.0,0.0,0.0,0.0,0.0,0.0,0.0,0.0,0.0,0.0,3.6342,3.5612,3.5367,3.5843,3.6035,3.6385,3.6849,3.7282,3.7941,3.8829,3.9283,3.91,3.8345,3.8481,3.7611,0.0,0.0,0.0,0.0,3.7033,3.7852,3.8817,3.8637,3.8282,3.7863,3.7793,3.769,3.7764,3.8593,3.9369,3.9924,3.9913,3.7632,3.473,3.391,3.3049,3.28,3.4988,3.7322,3.9661,4.1864,4.1803,4.11,4.0547,3.9979,3.9642,4.0215,4.2493,4.523,4.7815,5.0418,5.2528,5.3753,5.3776,5.3405,5.2797,5.1281,4.9787,4.8451,4.6711,4.5273,4.4338,4.4213,4.4657,4.599,4.946,5.2471,5.4618,5.5089,5.5707,5.6588,5.6723,5.7071,5.7783,5.8015,5.8156,5.8285,5.7303,5.6812,5.6812,5.6871,5.6566,3.0258,0.0,2.8694,2.7393,2.6975,0.0,0.0,0.0,0.0,0.0,0.0,0.0,0.0,2.9845,2.9663,3.3766,3.4058,3.4507,3.6758,0.0,0.0,0.0,0.0,0.0,0.0,0.0,0.0,0.0,0.0,3.6807,3.6549,3.6076,3.5629,3.5272,3.4824,3.4778,3.5299,3.5507,3.5839,3.6403,3.7195,3.7502,3.7464,3.7307,3.6722,0.0,0.0,0.0,3.6639,3.6863,3.7469,3.8371,3.907,3.8596,3.7565,3.8076,3.7608,3.6891,3.7809,3.8523,3.921,3.9956,3.8617,3.6418,3.4916,3.2839,3.1529,3.39,3.5773,3.7779,4.0785,4.1555,4.1418,4.1055,3.9779,3.8704,3.8782,4.0053,4.2093,4.5127,4.8015,5.055,5.2194,5.2723,5.2788,5.2629,5.0937,4.9349,4.8346,4.6703,4.5205,4.4113,4.3705,4.3762,4.4435,4.7475,5.0217,5.2248,5.2999,5.3608,5.419,5.4818,5.539,5.5839,5.6793,5.7247,5.7169,5.691,5.676,5.6617,5.6034,5.5744,3.1689,3.1093,2.9988,2.9006,2.8002,2.7565,0.0,0.0,0.0,0.0,0.0,0.0,0.0,0.0,0.0,3.4643,3.5015,0.0,0.0,0.0,0.0,0.0,0.0,0.0,0.0,0.0,0.0,0.0,0.0,3.6551,3.6425,3.6076,3.6035,3.6455,3.5315,3.4383,3.368,3.359,3.3621,3.3725,3.4955,3.5515,3.5447,3.6288,3.6335,0.0,0.0,0.0,3.6827,3.6618,3.7091,3.7993,3.8428,3.8027,3.7245,3.7651,3.7137,3.6288,3.6916,3.7962,3.9223,4.0161,3.9578,3.8104,3.6396,3.3997,3.1995,3.3076,3.4533,3.6486,3.959,4.1168,4.1931,4.1681,4.0433,3.9066,3.8187,3.8484,3.9685,4.2279,4.5269,4.8075,5.0253,5.1288,5.1885,5.2077,5.1096,4.9952,4.9058,4.765,4.6205,4.4764,4.3992,4.3536,4.3506,4.5017,4.7024,4.9484,5.0499,5.14,5.2304,5.3309,5.4239,5.5196,5.6249,5.6786,5.6707,5.6707,5.6653,5.6492,5.6063,5.5508,3.288,3.2848,3.2172,3.1336,2.9709,2.874,0.0,0.0,0.0,0.0,0.0,0.0,0.0,0.0,0.0,0.0,0.0,0.0,0.0,0.0,0.0,0.0,0.0,0.0,0.0,0.0,0.0,0.0,0.0,3.5991,3.6091,3.5831,3.6334,3.78,3.6503,3.4845,3.2816,3.2362,3.1894,3.1418,3.2929,3.3494,3.3338,3.532,3.5915,0.0,0.0,0.0,3.6855,3.6233,3.6545,3.736,3.7235,3.689,3.6578,3.6777,3.6375,3.5704,3.618,3.7739,3.962,4.0435,4.0462,3.9759,3.8092,3.5737,3.3481,3.2781,3.3529,3.5244,3.8103,4.0504,4.2139,4.206,4.1315,3.9967,3.7917,3.7337,3.7749,3.9494,4.2316,4.5267,4.8123,4.9739,5.0857,5.1455,5.1289,5.0746,4.9812,4.8738,4.7415,4.5749,4.4618,4.3711,4.3031,4.2793,4.366,4.6019,4.7561,4.9192,5.0892,5.2265,5.3648,5.5143,5.609,5.6573,5.6573,5.6573,5.642,5.615,5.6043,5.5187,3.2949,3.5358,3.6465,3.2596,3.1148,3.0481,0.0,0.0,0.0,0.0,0.0,0.0,0.0,0.0,0.0,0.0,0.0,0.0,0.0,0.0,0.0,0.0,0.0,0.0,0.0,0.0,0.0,0.0,0.0,3.5556,3.5696,3.5571,3.5791,3.6531,3.6661,3.6139,3.5025,3.3496,3.2143,3.0995,3.1685,3.2407,3.3245,3.4153,3.492,0.0,0.0,3.5643,3.5884,3.5611,3.5442,3.5386,3.5957,3.5523,3.4577,3.5494,3.5285,3.4735,3.6139,3.7993,3.9788,4.051,4.1076,4.1071,3.9349,3.724,3.5063,3.3534,3.2833,3.3195,3.6125,3.872,4.0746,4.133,4.1404,4.0494,3.7436,3.6146,3.5906,3.7134,3.9344,4.2273,4.6079,4.829,4.9967,5.116,5.0876,5.0184,4.9252,4.8329,4.7265,4.6027,4.5024,4.4029,4.3001,4.213,4.1435,4.1058,4.4008,4.7136,5.0212,5.2129,5.3767,5.5008,5.5963,5.641,5.641,5.641,5.5952,5.5028,5.4355,5.3629,3.2464,3.4875,3.6635,3.538,3.4914,3.447,0.0,0.0,0.0,0.0,0.0,0.0,0.0,0.0,0.0,0.0,0.0,0.0,0.0,0.0,0.0,0.0,0.0,0.0,0.0,0.0,0.0,0.0,0.0,0.0,3.5687,3.5563,3.6087,3.7302,3.7274,3.7359,3.7657,3.5946,3.3702,3.0935,3.1681,3.1728,3.1192,3.276,3.3751,3.4297,0.0,3.5325,3.5823,3.5531,3.5127,3.463,3.4365,3.3956,3.3553,3.4622,3.5079,3.5375,3.6956,3.8353,3.9669,4.1011,4.1732,4.1798,4.0462,3.872,3.6764,3.4727,3.335,3.2948,3.4895,3.7685,4.011,4.0862,4.1339,4.0914,3.8227,3.6553,3.5688,3.5998,3.7844,4.0333,4.3357,4.577,4.7914,4.9584,4.9961,4.9936,4.9645,4.9073,4.8288,4.7048,4.5845,4.4763,4.3822,4.2304,4.1388,4.1348,4.317,4.5708,4.9034,5.1204,5.2937,5.424,5.5418,5.6106,5.6308,5.5715,5.5185,5.4656,5.3879,5.3156,3.2289,3.4364,3.6379,3.7418,0.0,0.0,0.0,0.0,0.0,0.0,0.0,0.0,0.0,0.0,0.0,0.0,0.0,0.0,0.0,0.0,0.0,0.0,0.0,0.0,0.0,0.0,0.0,0.0,0.0,0.0,3.6067,3.5626,3.6167,3.7745,3.7699,3.8234,3.9534,3.8394,3.5729,3.1759,3.2227,3.1526,2.989,3.1523,3.2498,3.2886,3.3905,3.4863,3.5657,3.5481,3.4981,3.422,3.3334,3.2956,3.3031,3.3997,3.5087,3.627,3.7621,3.8695,3.9772,4.129,4.2094,4.2322,4.1449,4.0003,3.8254,3.6063,3.4388,3.3403,3.4169,3.6545,3.9008,4.0078,4.0983,4.1021,3.8826,3.7101,3.5833,3.5359,3.6911,3.8978,4.1238,4.3708,4.6021,4.7926,4.8948,4.9586,4.9803,4.9548,4.8968,4.8064,4.6788,4.5462,4.4154,4.2001,4.0982,4.156,4.2524,4.4374,4.7447,5.0068,5.2123,5.3545,5.4988,5.5722,5.5773,5.4974,5.4373,5.3873,5.3183,5.2588,3.2939,3.5452,3.7533,3.7083,3.6679,0.0,3.8471,0.0,0.0,0.0,0.0,0.0,0.0,0.0,0.0,0.0,0.0,0.0,0.0,0.0,0.0,0.0,0.0,0.0,0.0,0.0,0.0,0.0,0.0,0.0,3.6933,3.5661,3.5447,3.6564,3.7436,3.8507,3.979,3.9984,3.8039,3.404,3.2975,3.2043,3.1172,3.0808,3.1067,3.1776,3.2796,3.3836,3.4836,3.5228,3.4854,3.3982,3.3386,3.3099,3.3093,3.3785,3.5125,3.6742,3.7398,3.8883,4.049,4.1024,4.1865,4.2566,4.2058,4.0887,3.9295,3.7318,3.5709,3.4412,3.3822,3.4969,3.6726,3.8496,3.9994,4.041,3.8361,3.7016,3.5948,3.5098,3.6231,3.8109,4.0605,4.3119,4.5272,4.6787,4.7884,4.8629,4.9026,4.8765,4.862,4.8691,4.759,4.5687,4.2973,4.0248,3.8712,3.8687,4.0722,4.2999,4.5341,4.9105,5.1859,5.3372,5.4931,5.5296,5.4442,5.4556,5.364,5.1812,5.1462,5.1247,3.2454,3.5451,3.8221,3.7844,3.8473,0.0,0.0,0.0,0.0,0.0,0.0,0.0,0.0,0.0,0.0,0.0,0.0,0.0,0.0,0.0,0.0,0.0,0.0,0.0,0.0,0.0,0.0,0.0,0.0,0.0,3.7687,3.6654,3.6332,3.6926,3.704,3.7964,3.9773,4.0282,3.9715,3.8009,3.5811,3.3549,3.132,3.044,3.022,3.056,3.1729,3.3097,3.4659,3.555,3.5558,3.4831,3.3552,3.2922,3.2903,3.4093,3.5431,3.6797,3.7909,3.863,3.9226,4.0199,4.0977,4.1517,4.1627,4.1328,4.0618,3.8996,3.7252,3.5473,3.3796,3.4674,3.6274,3.7402,3.9194,4.0178,3.8448,3.7642,3.688,3.5648,3.6373,3.7868,3.9898,4.1792,4.3696,4.5772,4.6736,4.7575,4.8679,4.8735,4.8758,4.8993,4.7302,4.5383,4.3286,4.0751,3.8878,3.803,3.9365,4.1559,4.4567,4.8294,5.1257,5.3344,5.4352,5.4745,5.4457,5.3394,5.232,5.1302,5.1193,5.1109,3.4016,3.6845,3.9566,3.9625,0.0,0.0,0.0,0.0,0.0,0.0,0.0,0.0,0.0,0.0,0.0,0.0,0.0,0.0,0.0,0.0,0.0,0.0,0.0,0.0,0.0,0.0,0.0,0.0,0.0,0.0,0.0,3.7826,3.7207,3.7192,3.6809,3.7467,3.9258,4.0286,4.0803,4.0735,3.8661,3.5933,3.2574,3.1031,3.02,3.0034,3.089,3.2542,3.4666,3.5891,3.613,3.5548,3.4098,3.3308,3.3146,3.4528,3.5755,3.6833,3.7984,3.8269,3.8336,3.9424,4.012,4.0694,4.1248,4.1634,4.1632,4.0318,3.8595,3.665,3.4293,3.4434,3.5308,3.6063,3.7708,3.8928,3.8173,3.7827,3.736,3.6303,3.6939,3.8166,3.9826,4.1283,4.2896,4.498,4.5746,4.6639,4.8216,4.8376,4.8496,4.8862,4.7243,4.55,4.3984,4.1517,3.9443,3.8041,3.8806,4.0669,4.3751,4.756,5.0719,5.3148,5.3928,5.4237,5.4048,5.26,5.1583,5.0919,5.1006,5.1101,3.8191,4.0008,4.1754,0.0,0.0,0.0,0.0,0.0,0.0,0.0,0.0,0.0,0.0,0.0,0.0,0.0,0.0,0.0,0.0,0.0,0.0,0.0,0.0,0.0,0.0,0.0,0.0,0.0,0.0,0.0,0.0,3.9145,3.7812,3.7149,3.6768,3.7125,3.8189,4.0129,4.127,4.1696,4.1365,3.9157,3.5232,3.262,3.1065,3.0395,3.0367,3.198,3.4829,3.6068,3.6426,3.6055,3.5155,3.439,3.3922,3.5009,3.6063,3.6959,3.7422,3.7819,3.8195,3.8788,3.9466,4.0256,4.111,4.1876,4.2199,4.1211,3.9699,3.7851,3.5365,3.4028,3.3506,3.4359,3.5352,3.6379,3.7372,3.7451,3.7244,3.7041,3.7809,3.8995,4.0518,4.1786,4.3053,4.4403,4.4949,4.5798,4.748,4.7523,4.7671,4.842,4.7496,4.6255,4.4919,4.2334,4.0166,3.8606,3.9125,4.048,4.2606,4.6803,5.0206,5.2625,5.3748,5.3806,5.2892,5.2431,5.1657,5.0605,5.0702,5.1155,3.7608,3.9625,0.0,4.0769,0.0,0.0,0.0,0.0,0.0,0.0,0.0,0.0,0.0,0.0,0.0,0.0,0.0,0.0,0.0,0.0,0.0,0.0,0.0,0.0,0.0,0.0,0.0,0.0,0.0,0.0,0.0,4.1215,3.9784,3.8366,3.7656,3.7405,3.7583,3.9179,4.0474,4.1501,4.1508,3.9743,3.628,3.418,3.2406,3.0961,3.1198,3.2536,3.474,3.7074,3.7749,3.7302,3.6718,3.6138,3.5765,3.6159,3.672,3.7235,3.7209,3.699,3.6743,3.6791,3.7427,3.8387,3.9819,4.1054,4.1938,4.2135,4.0873,3.8868,3.633,3.4599,3.3566,3.3857,3.5111,3.6396,3.6976,3.7706,3.8054,3.7546,3.8007,3.9078,4.0918,4.1994,4.3137,4.4756,4.4725,4.4989,4.6408,4.7275,4.7833,4.7995,4.7164,4.6121,4.4958,4.2274,4.0399,3.9751,3.9425,4.0075,4.2008,4.6032,4.9179,5.1165,5.2277,5.278,5.2696,5.1891,5.1209,5.0692,5.1334,5.1992,4.1546,4.3308,0.0,4.417,0.0,0.0,0.0,0.0,0.0,0.0,0.0,0.0,0.0,0.0,0.0,0.0,0.0,0.0,0.0,0.0,0.0,0.0,0.0,0.0,0.0,0.0,0.0,0.0,0.0,0.0,0.0,4.2326,4.1056,0.0,3.8295,3.7597,3.7056,3.8505,3.9874,4.1194,4.182,4.1022,3.8922,3.613,3.3839,3.2159,3.255,3.3647,3.5246,3.763,3.8444,3.8178,3.7962,3.744,3.685,3.7161,3.7351,3.737,3.6974,3.6486,3.5948,3.5437,3.6099,3.7274,3.8585,4.0236,4.1883,4.2466,4.1649,4.0011,3.7551,3.5703,3.4255,3.3428,3.4255,3.5505,3.6443,3.7422,3.8014,3.7873,3.8277,3.9203,4.0986,4.2144,4.3216,4.449,4.4342,4.4506,4.5658,4.6421,4.6874,4.6974,4.6574,4.5862,4.485,4.2717,4.1143,4.0484,4.0005,4.0352,4.1791,4.5446,4.8396,5.0384,5.1603,5.2342,5.2659,5.1876,5.1397,5.1287,5.2258,5.2971,4.7889,0.0,0.0,5.0301,0.0,0.0,0.0,0.0,0.0,0.0,0.0,0.0,0.0,0.0,0.0,0.0,0.0,0.0,0.0,0.0,0.0,0.0,0.0,0.0,0.0,0.0,0.0,0.0,0.0,0.0,0.0,4.2689,0.0,3.9739,3.882,3.7839,3.6749,3.8051,3.9363,0.0,4.1961,4.2533,4.2327,3.8256,3.5378,3.359,3.4063,3.4827,3.5885,3.7771,3.8531,3.8628,3.8892,3.8358,3.7484,3.8068,3.7938,3.7495,3.6831,3.6241,3.5617,3.4643,3.5325,3.6593,3.7441,3.9566,4.1804,4.2505,4.2218,4.1258,3.8974,3.7184,3.5444,3.346,3.3395,3.4184,3.5894,3.6844,3.7558,3.8127,3.8575,3.9341,4.0913,4.2235,4.3235,4.3754,4.392,4.4211,4.4989,4.508,4.5207,4.5518,4.561,4.5297,4.451,4.3337,4.2133,4.0946,4.0747,4.1037,4.1802,4.4902,4.7626,4.9853,5.1205,5.2077,5.2529,5.199,5.185,5.2042,5.3168,5.3836,4.7334,4.7888,0.0,0.0,0.0,0.0,0.0,0.0,0.0,0.0,0.0,0.0,0.0,0.0,0.0,0.0,0.0,0.0,0.0,0.0,0.0,0.0,0.0,0.0,0.0,0.0,0.0,0.0,0.0,0.0,4.2955,0.0,0.0,4.1015,3.9527,3.8246,3.7189,3.7119,3.7898,0.0,4.1007,4.2085,4.279,4.0117,3.7115,3.3976,3.4012,3.435,3.4956,3.694,3.7783,3.7909,3.8626,3.8725,3.8394,3.8491,3.8378,3.7973,3.7133,3.6416,3.5659,3.4398,3.4553,3.5487,3.7129,3.8973,4.095,4.284,4.318,4.2465,4.045,3.8569,3.6825,3.5548,3.5102,3.509,3.5687,3.6997,3.8089,3.8352,3.876,3.9444,4.083,4.1973,4.2889,4.3422,4.3971,4.4029,4.3278,4.3487,4.3686,4.3753,4.3623,4.3483,4.3271,4.2558,4.195,4.1452,4.0882,4.0815,4.1328,4.3707,4.5759,4.7496,4.8889,4.987,5.0354,5.0511,5.0841,5.1388,5.2312,5.3373,0.0,0.0,0.0,0.0,0.0,0.0,0.0,0.0,0.0,0.0,0.0,0.0,0.0,0.0,0.0,0.0,0.0,0.0,0.0,0.0,0.0,0.0,0.0,0.0,0.0,0.0,0.0,0.0,0.0,4.1765,0.0,4.2209,4.2204,4.1607,4.0297,3.8927,3.7476,3.6862,3.7263,3.8609,4.0061,4.1705,4.3356,4.1001,3.826,3.5296,3.4785,3.4404,3.4154,3.5621,3.6541,3.7138,3.8184,3.8878,3.9344,3.998,3.9774,3.9098,3.8262,3.725,3.6045,3.4073,3.3927,3.4736,3.6071,3.8086,4.0398,4.264,4.3697,4.3716,4.1867,4.0444,3.8977,3.7272,3.6069,3.5553,3.6526,3.7376,3.813,3.8713,3.8501,3.8588,3.9814,4.1189,4.2655,4.4236,4.401,4.3331,4.2457,4.2204,4.1917,4.1614,4.1873,4.2076,4.2142,4.2034,4.1836,4.1433,4.0886,4.0914,4.1651,4.2436,4.3647,4.5476,4.6825,4.7807,4.8406,4.8632,4.9197,5.0037,5.1079,5.233,0.0,0.0,0.0,0.0,0.0,0.0,0.0,0.0,0.0,0.0,0.0,0.0,0.0,0.0,0.0,0.0,0.0,0.0,0.0,0.0,0.0,0.0,0.0,0.0,0.0,0.0,0.0,0.0,0.0,0.0,3.9807,4.1038,4.1755,4.1715,4.0885,3.9511,3.7737,3.6962,3.6907,3.7534,3.9377,4.1496,4.382,4.1718,3.9465,3.7085,3.5896,3.4698,3.3703,3.4228,3.5128,3.6224,3.7524,3.8854,4.0159,4.1454,4.1433,4.0557,3.9661,3.8444,3.6768,3.4086,3.3569,3.4098,3.476,3.688,3.9587,4.1812,4.363,4.4492,4.2998,4.2104,4.0982,3.8846,3.7237,3.6541,3.772,3.7851,3.7988,3.8996,3.8285,3.7824,3.899,4.0547,4.2533,4.5024,4.4083,4.28,4.214,4.1277,4.048,3.9686,4.0079,4.0542,4.0856,4.1237,4.133,4.1059,4.0799,4.1007,4.1767,4.1122,4.1508,4.31,4.4539,4.5492,4.5869,4.6346,4.7038,4.7961,4.9578,5.1002,0.0,0.0,0.0,0.0,0.0,0.0,0.0,0.0,0.0,0.0,0.0,0.0,0.0,0.0,0.0,0.0,0.0,0.0,0.0,0.0,0.0,0.0,0.0,0.0,0.0,0.0,0.0,0.0,0.0,0.0,3.8614,3.97,4.0694,4.1408,4.0804,3.9725,3.8145,3.7085,3.643,3.6033,3.9195,4.1843,4.389,4.3314,4.1586,3.8944,3.6785,3.5153,3.3908,3.3341,3.3776,3.5053,3.6438,3.838,4.0471,4.1643,4.2337,4.2469,4.0952,3.9606,3.809,3.5162,3.3727,3.3263,3.3799,3.5442,3.7594,3.9985,4.2167,4.3671,4.3153,4.2387,4.1552,4.0671,4.0128,3.9556,3.8604,3.8231,3.833,3.9073,3.8635,3.8646,4.0063,4.1206,4.2473,4.4085,4.4198,4.3564,4.2103,4.1119,4.0139,3.9072,3.8119,3.8018,3.9115,3.9244,3.9534,4.0285,4.0451,4.0406,4.0238,3.9982,3.9636,3.9175,4.1302,4.2091,4.1386,4.3137,4.4293,4.4871,4.7505,4.9643,4.5086,0.0,0.0,0.0,0.0,0.0,0.0,0.0,0.0,0.0,0.0,0.0,0.0,0.0,0.0,0.0,0.0,0.0,0.0,0.0,0.0,0.0,0.0,0.0,0.0,0.0,0.0,0.0,0.0,3.8714,3.7786,3.879,3.998,4.1179,4.1314,4.0506,3.8777,3.7676,3.682,3.6368,3.8616,4.0713,4.2631,4.319,4.2267,4.0129,3.8134,3.5947,3.3687,3.3195,3.3444,3.4301,3.5886,3.8123,4.071,4.2389,4.3186,4.3364,4.2649,4.1272,3.9373,3.6476,3.4847,3.3953,3.3485,3.4498,3.6306,3.8775,4.1032,4.285,4.3296,4.3299,4.2943,4.2302,4.1755,4.1189,4.0527,3.9712,3.8793,3.7775,3.7382,3.7752,3.9373,4.0443,4.1799,4.3977,4.4378,4.4047,4.2981,4.1773,4.0533,3.9295,3.7979,3.7438,3.8101,3.8286,3.8679,3.9432,3.9783,4.0095,4.0326,3.9536,3.8605,3.7609,3.9011,3.9388,3.8767,3.9786,4.0898,4.2079,4.458,4.7059,0.0,0.0,0.0,0.0,0.0,0.0,0.0,0.0,0.0,0.0,0.0,0.0,0.0,0.0,0.0,0.0,0.0,0.0,0.0,0.0,0.0,0.0,0.0,0.0,0.0,0.0,0.0,0.0,0.0,3.8611,3.737,3.835,3.9486,4.0585,4.1529,4.1163,3.9344,3.7745,3.6787,3.6524,3.7636,3.9131,4.1003,4.2205,4.2052,4.0741,3.9186,3.7041,3.4564,3.3747,3.3863,3.462,3.5962,3.8123,4.0731,4.2621,4.3563,4.3854,4.3747,4.2646,4.0884,3.7926,3.6031,3.4603,3.3199,3.3526,3.4876,3.7119,3.9466,4.1562,4.3104,4.3878,4.4127,4.3828,4.3294,4.2556,4.1541,4.0366,3.8966,3.6885,3.6492,3.7061,3.884,3.9842,4.1288,4.4001,4.4485,4.4408,4.3833,4.2801,4.1494,3.9893,3.8463,3.7549,3.7364,3.762,3.7982,3.8558,3.932,3.9882,4.0244,3.9345,3.8161,3.6743,3.7089,3.693,3.6194,3.713,3.8286,3.9717,4.2505,4.5295,0.0,0.0,0.0,0.0,0.0,0.0,0.0,0.0,0.0,0.0,0.0,0.0,0.0,0.0,0.0,0.0,0.0,0.0,0.0,0.0,0.0,0.0,0.0,0.0,0.0,0.0,0.0,0.0,0.0,3.9617,3.7423,3.8435,3.9159,3.9297,4.1052,4.1285,3.9773,3.6889,3.5503,3.5669,3.6174,3.7428,3.9252,4.0471,4.0882,4.0558,3.9647,3.8621,3.7496,3.5336,3.5283,3.6661,3.7007,3.8448,4.0468,4.1735,4.3107,4.4252,4.3623,4.3309,4.2636,3.9583,3.7007,3.4726,3.2679,3.2263,3.283,3.4501,3.6827,3.944,4.2293,4.3589,4.4452,4.5423,4.524,4.3909,4.044,3.9265,3.8509,3.7297,3.6903,3.7357,3.9157,4.0114,4.1464,4.3776,4.4541,4.4734,4.4303,4.4087,4.3098,4.0882,3.9385,3.801,3.6781,3.6946,3.7366,3.7826,3.9183,3.9706,3.9103,3.9242,3.83,3.5988,3.5545,3.4539,3.2956,3.5645,3.7245,3.7935,4.2132,4.5412,0.0,0.0,0.0,0.0,0.0,0.0,0.0,0.0,0.0,0.0,0.0,0.0,0.0,0.0,0.0,0.0,0.0,0.0,0.0,0.0,0.0,0.0,0.0,0.0,0.0,0.0,0.0,0.0,0.0,0.0,3.8374,3.8503,3.8803,3.9103,4.0316,4.0435,3.9334,3.7237,3.621,3.6385,3.6007,3.6588,3.7973,3.9506,4.0318,4.0535,4.0723,3.9773,3.8077,3.721,3.7102,3.7477,3.7742,3.8467,3.947,4.0681,4.1775,4.2756,4.3693,4.3939,4.3457,4.1272,3.9247,3.697,3.3357,3.2077,3.2117,3.318,3.4743,3.6915,4.0056,4.1992,4.333,4.4362,4.4068,4.3105,4.1388,3.9736,3.8338,3.7461,3.712,3.7561,3.9498,4.0328,4.1304,4.3046,4.4153,4.4761,4.4684,4.463,4.4187,4.3074,4.1016,3.9183,3.7806,3.7274,3.6956,3.6973,3.8069,3.88,3.897,3.8767,3.7816,3.5999,3.5413,3.4424,3.3023,3.4587,3.6197,3.7924,4.1571,4.4776,0.0,0.0,0.0,0.0,0.0,0.0,0.0,0.0,0.0,0.0,0.0,0.0,0.0,0.0,0.0,0.0,0.0,0.0,0.0,0.0,0.0,0.0,0.0,0.0,0.0,0.0,0.0,0.0,0.0,0.0,3.9795,3.9348,3.9125,3.9099,3.9324,3.935,3.9131,3.7632,3.6895,3.6915,3.6328,3.6582,3.7625,3.9079,3.9948,4.0418,4.1022,4.0706,3.9703,3.931,3.905,3.8948,3.8967,3.8771,3.8598,3.9309,4.005,4.0913,4.2474,4.3528,4.3956,4.256,4.0964,3.8864,3.4844,3.2842,3.2074,3.271,3.3688,3.5273,3.8618,4.1155,4.2956,4.3525,4.3393,4.2812,4.1789,4.0165,3.8745,3.834,3.7865,3.8152,4.0073,4.0626,4.1263,4.2565,4.3525,4.4211,4.4565,4.4778,4.4803,4.4535,4.2586,4.0572,3.8791,3.7998,3.7352,3.6792,3.7866,3.8663,3.9053,3.8846,3.8026,3.6496,3.5996,3.5291,3.4412,3.4886,3.629,3.8544,4.1962,4.5113,0.0,0.0,0.0,0.0,0.0,0.0,0.0,0.0,0.0,0.0,0.0,0.0,0.0,0.0,0.0,0.0,0.0,0.0,0.0,0.0,0.0,0.0,0.0,0.0,0.0,0.0,0.0,0.0,0.0,4.487,4.1632,4.0861,4.0024,3.8959,3.8155,3.8218,3.9131,3.8045,3.7396,3.7242,3.7021,3.7329,3.8123,3.9145,3.9803,4.0125,4.0545,4.1432,4.2496,4.1435,4.114,4.1259,4.0641,3.9339,3.7827,3.7562,3.8003,3.887,3.9935,4.2062,4.4216,4.338,4.2004,4.0085,3.7063,3.4418,3.2604,3.319,3.3621,3.4716,3.8236,4.1195,4.3261,4.3195,4.3396,4.3169,4.1499,4.0385,3.978,3.9871,3.9163,3.9131,4.0918,4.1181,4.144,4.2336,4.2694,4.3143,4.3828,4.4485,4.4889,4.5069,4.3878,4.2092,3.9581,3.9082,3.8435,3.7365,3.8662,3.9369,3.9165,3.958,3.9074,3.7485,3.7207,3.7007,3.685,3.6576,3.759,3.9772,4.3429,4.6625,1.8057,0.0,0.0,0.0,0.0,0.0,0.0,0.0,0.0,0.0,0.0,0.0,0.0,0.0,0.0,0.0,0.0,0.0,0.0,0.0,0.0,0.0,0.0,0.0,0.0,0.0,0.0,0.0,4.8362,4.6173,4.336,4.0219,3.8084,3.709,3.6945,3.7078,3.7497,3.7519,3.7577,3.7691,3.7365,3.7589,3.8331,3.9211,3.9935,4.0598,4.1158,4.1723,4.2203,4.1648,4.1505,4.1558,4.0735,3.9017,3.6906,3.655,3.6431,3.6851,3.9249,4.127,4.2809,4.3359,4.2724,4.1172,3.8119,3.5958,3.45,3.4218,3.431,3.5205,3.8696,3.9962,4.0718,4.2241,4.2398,4.2164,4.2043,4.1476,4.0696,3.9971,4.0,4.05,4.1665,4.2261,4.244,4.1938,4.236,4.2607,4.2167,4.3168,4.4001,4.4319,4.3739,4.2502,4.0489,3.9792,3.8687,3.6845,3.7929,3.8538,3.827,3.9626,3.9854,3.8707,3.8866,3.8743,3.8313,3.8093,3.9187,4.1505,4.5717,4.8703,0.0,0.0,0.0,0.0,0.0,0.0,3.2253,3.4295,3.6999,0.0,0.0,0.0,0.0,0.0,0.0,0.0,0.0,0.0,0.0,0.0,0.0,0.0,0.0,0.0,0.0,0.0,0.0,5.1465,5.0166,4.7895,4.4311,4.0378,3.7758,3.6678,3.6389,3.6484,3.7039,3.7405,3.7926,3.8523,3.8371,3.8562,3.9072,3.9638,4.0077,4.0367,4.0448,4.0672,4.094,4.0286,4.0703,4.1637,4.0848,3.9127,3.7039,3.6075,3.5658,3.5751,3.7782,3.994,4.1947,4.3225,4.3266,4.2419,4.0197,3.7985,3.6192,3.5657,3.5402,3.5742,3.804,3.8577,3.9005,4.093,4.1277,4.1402,4.2236,4.1697,4.0964,4.0536,4.0788,4.1328,4.2204,4.2949,4.3152,4.23,4.2222,4.1966,4.1219,4.2087,4.3008,4.3555,4.3565,4.2956,4.1685,4.0664,3.9499,3.8033,3.8432,3.8631,3.8473,3.9858,4.0225,3.9466,3.9832,3.9986,3.9929,3.9281,4.0657,4.4028,4.7465,4.9749,0.0,0.0,0.0,0.0,0.0,0.0,2.7682,2.9404,3.0918,3.711,0.0,0.0,0.0,0.0,0.0,0.0,0.0,0.0,0.0,0.0,0.0,0.0,0.0,0.0,0.0,5.7381,5.5092,5.2729,5.1789,4.9349,4.4929,4.1139,3.8545,3.7234,3.6389,3.6329,3.7071,3.7572,3.8283,3.9321,3.9533,3.9762,4.0007,4.0255,4.0216,3.9881,3.9244,3.9018,3.9133,3.8275,3.9257,4.1312,4.0781,3.9492,3.7701,3.6061,3.536,3.5364,3.6163,3.8462,4.1353,4.2924,4.3622,4.365,4.2551,4.03,3.797,3.76,3.7051,3.6711,3.7283,3.7507,3.8041,3.9736,4.032,4.0833,4.2109,4.1547,4.0896,4.13,4.1453,4.1784,4.2621,4.351,4.3871,4.3182,4.2273,4.1427,4.0628,4.1087,4.1771,4.2514,4.3052,4.312,4.2655,4.1542,4.06,3.9932,3.9571,3.9361,3.9266,4.0188,4.0436,3.9926,4.0306,4.0763,4.1286,4.027,4.2088,4.6517,4.8425,4.9853,0.0,0.0,0.0,0.0,0.0,0.0,1.6937,1.6902,1.8461,0.0,0.0,0.0,0.0,0.0,0.0,0.0,0.0,0.0,0.0,0.0,0.0,0.0,0.0,0.0,0.0,5.9144,5.6838,5.5063,5.1415,4.828,4.599,4.2,3.9235,3.7951,3.6754,3.6192,3.6385,3.7331,3.8076,3.8697,3.9037,3.9495,4.0089,4.0428,4.0428,4.0019,3.9905,3.9134,3.7966,3.8026,3.8734,3.9806,3.9713,3.8752,3.7332,3.6325,3.5525,3.5148,3.6168,3.8013,4.0196,4.2385,4.3489,4.3876,4.3361,4.2481,4.1437,4.0596,3.9961,3.9649,4.0037,3.8982,3.8305,4.0532,4.0482,4.0387,4.1821,4.1608,4.1128,4.1214,4.1802,4.2475,4.3012,4.4716,4.5417,4.3729,4.2881,4.1659,3.9653,3.936,3.953,4.0112,4.1033,4.1586,4.1522,4.1706,4.1134,3.9451,4.0134,4.0141,3.9175,4.0547,4.1123,4.0703,4.0471,4.0419,4.0591,4.1639,4.3535,4.6214,4.7521,4.9067,0.0,0.0,0.0,1.3377,0.0,0.0,0.0,1.2356,1.3124,1.874,0.0,0.0,0.0,0.0,0.0,0.0,0.0,0.0,0.0,0.0,0.0,0.0,0.0,0.0,0.0,6.1127,5.8526,5.5438,5.1558,4.872,4.739,4.4037,4.1409,3.9618,3.8505,3.7838,3.7648,3.7675,3.809,3.8936,3.8837,3.9043,3.9476,3.9979,3.9848,3.9211,3.919,3.8225,3.6722,3.7056,3.7475,3.7996,3.8804,3.8719,3.8056,3.6965,3.623,3.5819,3.6308,3.7836,3.9801,4.1602,4.3103,4.4117,4.4059,4.3402,4.2558,4.1746,4.1089,4.0655,4.0766,3.9848,3.9281,4.08,4.0769,4.064,4.172,4.1439,4.0939,4.0945,4.1499,4.2202,4.2978,4.4905,4.5875,4.4448,4.3267,4.1848,3.9951,3.9335,3.9135,3.9384,4.0447,4.1244,4.144,4.1569,4.1198,4.0074,4.0257,4.0094,3.9391,4.0072,4.0347,4.0121,4.0008,4.0137,4.056,4.1442,4.2966,4.5032,4.6649,4.8603,0.0,0.0,0.0,0.0,0.0,1.1251,0.0,0.0,0.0,0.0,0.0,0.0,0.0,0.0,0.0,0.0,0.0,0.0,0.0,0.0,0.0,0.0,0.0,0.0,0.0,6.2016,5.9047,5.5108,5.1663,4.9333,4.8501,4.5776,4.337,4.1408,4.0439,3.9818,3.9516,3.8524,3.8568,3.9634,3.8977,3.8695,3.8799,3.9412,3.9217,3.8352,3.8479,3.754,3.5985,3.6417,3.6594,3.6718,3.8435,3.915,3.914,3.8189,3.7467,3.6953,3.6682,3.7801,3.9583,4.0775,4.2542,4.4265,4.4519,4.399,4.3149,4.2625,4.2021,4.1536,4.1445,4.0776,4.0326,4.1108,4.0986,4.0856,4.1504,4.1158,4.0672,4.0667,4.1092,4.1792,4.2859,4.4794,4.592,4.5161,4.3757,4.2189,4.0461,3.9534,3.9051,3.9,4.0032,4.0949,4.1521,4.141,4.1145,4.0861,4.0479,4.0071,3.9671,3.9449,3.9312,3.9335,3.9398,3.9822,4.0648,4.0844,4.1893,4.3745,4.5772,4.7888,0.0,0.0,0.0,0.0,1.4476,0.0,0.0,0.0,0.8121,0.6071,0.0,0.0,0.0,0.0,0.0,0.0,0.0,0.0,0.0,0.0,0.0,0.0,0.0,0.0,0.0,0.0,5.6666,5.5104,5.1229,4.8879,4.8748,4.5603,4.3416,4.2623,4.1473,4.0902,4.094,4.0227,4.0134,4.0531,3.9686,3.9088,3.8742,3.9448,3.9343,3.8587,3.9051,3.8192,3.6507,3.7683,3.7719,3.7214,3.936,4.0047,3.9874,4.0369,3.9645,3.8321,3.7421,3.7963,3.9188,4.0051,4.1924,4.4001,4.4714,4.4729,4.4565,4.4902,4.4474,4.3939,4.4018,4.2338,4.0873,4.1848,4.0958,4.0148,4.1005,4.0945,4.0654,4.0567,4.1118,4.1918,4.2994,4.4769,4.5945,4.5717,4.4656,4.2971,4.0298,3.869,3.7806,3.786,3.8482,3.9512,4.1024,4.1442,4.1459,4.1082,4.138,4.1073,3.9911,3.9347,3.9133,3.9356,3.8993,3.9389,4.051,4.0618,4.1475,4.3125,4.4784,4.6359,0.0,0.0,0.0,0.0,0.0,0.0,0.9477,0.0,0.5843,0.0,0.0,0.0,0.0,0.0,0.0,0.0,0.0,0.0,0.0,0.0,0.0,0.0,0.0,0.0,0.0,0.0,0.0,0.0,0.0,4.8399,4.8238,4.5503,4.3631,4.2909,4.2563,4.239,4.2417,4.1839,4.1505,4.1385,3.9921,3.8986,3.8568,3.8898,3.8821,3.8459,3.9156,3.851,3.7074,3.8483,3.8646,3.8223,4.0994,4.1325,4.0299,4.0918,4.0463,3.9425,3.8372,3.8555,3.9425,4.0547,4.2137,4.3692,4.4126,4.4557,4.4879,4.4947,4.4606,4.4327,4.4667,4.3545,4.2422,4.2758,4.1977,4.1149,4.1103,4.0996,4.0819,4.0474,4.0679,4.1218,4.2131,4.4009,4.5291,4.5006,4.4272,4.3069,4.1187,3.9451,3.8464,3.8646,3.8997,3.957,4.0513,4.1332,4.1468,4.0627,4.0329,3.9764,3.8895,3.8731,3.8585,3.8431,3.8995,3.9812,4.0923,4.2038,4.3061,4.4063,4.4289,4.5408,2.5779,0.0,0.0,0.0,0.0,0.0,0.0,0.0,0.0,0.0,0.0,0.0,0.0,0.0,0.0,0.0,0.0,0.0,0.0,0.0,0.0,0.0,0.0,0.0,0.0,0.0,0.0,5.2872,4.9573,4.7405,4.6948,4.4744,4.3262,4.2767,4.2935,4.3144,4.3403,4.2949,4.2556,4.2157,4.0377,3.9149,3.855,3.8546,3.8497,3.8471,3.9336,3.9005,3.7998,3.9434,3.954,3.9003,4.1654,4.1773,4.0615,4.1822,4.1669,4.0672,3.9557,3.9121,3.9321,4.058,4.1778,4.2784,4.3113,4.3647,4.4062,4.4068,4.3923,4.3855,4.4265,4.3757,4.315,4.3045,4.2576,4.1937,4.1121,4.1155,4.1112,4.0424,4.0412,4.0724,4.1417,4.3005,4.4171,4.4208,4.3718,4.2928,4.1613,4.0089,3.9147,3.9131,3.9469,3.9896,4.0454,4.149,4.1659,4.0609,3.9811,3.908,3.8476,3.8452,3.8402,3.8285,3.9317,4.0572,4.2051,4.3423,4.4538,4.5345,4.4818,4.5431,0.0,0.0,0.0,1.9758,0.0,0.0,0.0,0.0,0.8787,0.0,0.0,0.0,0.0,0.0,0.0,0.0,0.0,0.0,0.0,0.0,0.0,0.0,0.0,0.0,0.0,0.0,0.0,4.867,4.7005,4.5682,4.4758,4.2948,4.2004,4.212,4.2085,4.2573,4.3674,4.35,4.3185,4.2864,4.1256,3.9865,3.8704,3.8653,3.8646,3.8859,3.982,3.9912,3.9402,4.0578,4.0315,3.9301,4.0507,4.0737,4.0769,4.3847,4.3944,4.2345,4.0976,3.9603,3.8587,3.9607,4.0343,4.0927,4.182,4.1949,4.1885,4.2341,4.2579,4.2691,4.2937,4.2659,4.2334,4.2345,4.231,4.1996,4.0865,4.1229,4.1464,4.0474,4.0412,4.07,4.1325,4.1886,4.2599,4.358,4.3369,4.2532,4.0954,4.0182,3.9426,3.8624,3.9386,4.0308,4.1175,4.2118,4.2319,4.1522,4.0709,3.9967,3.9365,3.8786,3.891,3.9806,4.0074,4.1526,4.4198,4.4331,4.5221,4.6742,4.6799,4.6812,0.0,0.0,2.6861,2.2994,0.0,0.0,0.0,0.0,0.0,0.0,0.0,0.0,0.0,0.0,0.0,0.0,0.0,0.0,0.0,0.0,0.0,0.0,0.0,0.0,0.0,0.0,0.0,4.7852,4.5881,4.4236,0.0,4.0989,3.99,4.006,4.1023,4.1848,4.2435,4.327,4.3234,4.2361,4.065,3.9539,3.9029,3.8776,3.9129,3.9917,4.0776,4.117,4.1223,4.1693,4.1116,4.0056,4.1289,4.1361,4.0955,4.2291,4.2292,4.1375,3.9979,3.8962,3.8427,3.9057,3.9837,4.0721,4.1524,4.1623,4.1529,4.1649,4.1371,4.13,4.2159,4.2544,4.2797,4.3099,4.3123,4.2808,4.1733,4.168,4.1547,4.073,4.0655,4.082,4.1047,4.1274,4.1811,4.2754,4.3049,4.2896,4.2174,4.0921,4.0131,4.0156,4.0028,4.0368,4.1403,4.2258,4.2578,4.232,4.0773,3.9853,3.9751,3.8883,3.8862,3.9747,4.0404,4.1794,4.3923,4.5789,4.7249,4.8289,4.9531,4.9046,2.9943,2.9455,0.0,2.4968,2.121,0.0,1.2923,0.0,0.0,0.0,0.0,0.0,0.0,0.0,0.0,0.0,0.0,0.0,0.0,0.0,0.0,0.0,0.0,0.0,0.0,0.0,4.5596,4.4678,4.4391,4.3457,0.0,0.0,3.9075,3.8778,4.0022,4.0825,4.1128,4.2548,4.275,4.1674,4.0355,3.966,3.9468,3.9314,3.9688,4.0505,4.1467,4.1853,4.184,4.1772,4.1155,4.0248,4.0673,4.0552,4.0289,4.161,4.1731,4.1131,3.9781,3.9079,3.8763,3.8931,3.9539,4.0343,4.0896,4.1024,4.0896,4.0723,4.0415,4.0352,4.1249,4.1952,4.2558,4.3133,4.3484,4.3366,4.2083,4.1934,4.1713,4.0566,4.0386,4.0504,4.0689,4.0871,4.1193,4.1693,4.2404,4.2716,4.2159,4.1318,4.0781,4.0896,4.0556,4.0873,4.2245,4.3001,4.3278,4.2916,4.1471,4.054,4.0235,3.9478,3.9434,4.0285,4.1153,4.2497,4.4301,4.6544,4.8032,4.8887,5.0176,4.97]}]]